<?xml version="1.0" encoding="UTF-8" standalone="no" ?>
<gpx xmlns="http://www.topografix.com/GPX/1/1" xmlns:xsi="http://www.w3.org/2001/XMLSchema-instance" xsi:schemaLocation="http://www.topografix.com/GPX/1/1 http://www.topografix.com/GPX/1/1/gpx.xsd" version="1.1" creator="VisuGPX - https://www.visugpx.com">
  <metadata>
    <name>2014-08-29 - Liliental, Bickensohl, Lösshohlwege-Pfad</name>
    <desc><![CDATA[2014-08-29 - Liliental, Bickensohl, Lösshohlwege-Pfad - Club vosgien Colmar, reconnaissance de la randonnée prévue le 10 septembre, Jean-Pierre Béringer, Denis Vouin]]></desc>
  </metadata>
  <trk>
    <name><![CDATA[AOU-29-14 14:02:57]]></name>
    <trkseg>
      <trkpt lat="48.06752" lon="7.67556">
        <ele>289.49</ele>
        <time>2014-08-29T05:42:27Z</time>
      </trkpt>
      <trkpt lat="48.06751" lon="7.67557">
        <ele>300.07</ele>
        <time>2014-08-29T05:42:44Z</time>
      </trkpt>
      <trkpt lat="48.06751" lon="7.67557">
        <ele>300.07</ele>
        <time>2014-08-29T05:42:45Z</time>
      </trkpt>
      <trkpt lat="48.06751" lon="7.67559">
        <ele>299.11</ele>
        <time>2014-08-29T05:44:19Z</time>
      </trkpt>
      <trkpt lat="48.06751" lon="7.6756">
        <ele>299.11</ele>
        <time>2014-08-29T05:45:08Z</time>
      </trkpt>
      <trkpt lat="48.06749" lon="7.67567">
        <ele>298.15</ele>
        <time>2014-08-29T05:46:13Z</time>
      </trkpt>
      <trkpt lat="48.06752" lon="7.67579">
        <ele>297.67</ele>
        <time>2014-08-29T05:46:59Z</time>
      </trkpt>
      <trkpt lat="48.06755" lon="7.67576">
        <ele>297.67</ele>
        <time>2014-08-29T05:47:10Z</time>
      </trkpt>
      <trkpt lat="48.06758" lon="7.67564">
        <ele>296.7</ele>
        <time>2014-08-29T05:47:19Z</time>
      </trkpt>
      <trkpt lat="48.06759" lon="7.67553">
        <ele>295.74</ele>
        <time>2014-08-29T05:47:25Z</time>
      </trkpt>
      <trkpt lat="48.06764" lon="7.67536">
        <ele>294.78</ele>
        <time>2014-08-29T05:47:36Z</time>
      </trkpt>
      <trkpt lat="48.06772" lon="7.67531">
        <ele>294.78</ele>
        <time>2014-08-29T05:47:43Z</time>
      </trkpt>
      <trkpt lat="48.06793" lon="7.6753">
        <ele>294.78</ele>
        <time>2014-08-29T05:47:58Z</time>
      </trkpt>
      <trkpt lat="48.06799" lon="7.67531">
        <ele>295.26</ele>
        <time>2014-08-29T05:48:03Z</time>
      </trkpt>
      <trkpt lat="48.06804" lon="7.67528">
        <ele>295.26</ele>
        <time>2014-08-29T05:48:19Z</time>
      </trkpt>
      <trkpt lat="48.06805" lon="7.67532">
        <ele>295.26</ele>
        <time>2014-08-29T05:48:30Z</time>
      </trkpt>
      <trkpt lat="48.06802" lon="7.6755">
        <ele>294.3</ele>
        <time>2014-08-29T05:48:41Z</time>
      </trkpt>
      <trkpt lat="48.068" lon="7.67558">
        <ele>293.34</ele>
        <time>2014-08-29T05:48:45Z</time>
      </trkpt>
      <trkpt lat="48.06797" lon="7.67573">
        <ele>293.34</ele>
        <time>2014-08-29T05:48:54Z</time>
      </trkpt>
      <trkpt lat="48.06796" lon="7.67579">
        <ele>292.86</ele>
        <time>2014-08-29T05:48:57Z</time>
      </trkpt>
      <trkpt lat="48.06792" lon="7.67594">
        <ele>292.38</ele>
        <time>2014-08-29T05:49:04Z</time>
      </trkpt>
      <trkpt lat="48.0679" lon="7.67597">
        <ele>291.42</ele>
        <time>2014-08-29T05:49:06Z</time>
      </trkpt>
      <trkpt lat="48.06781" lon="7.67624">
        <ele>290.46</ele>
        <time>2014-08-29T05:49:23Z</time>
      </trkpt>
      <trkpt lat="48.0678" lon="7.67628">
        <ele>289.97</ele>
        <time>2014-08-29T05:49:25Z</time>
      </trkpt>
      <trkpt lat="48.06768" lon="7.67651">
        <ele>288.53</ele>
        <time>2014-08-29T05:49:41Z</time>
      </trkpt>
      <trkpt lat="48.06761" lon="7.67664">
        <ele>288.05</ele>
        <time>2014-08-29T05:49:49Z</time>
      </trkpt>
      <trkpt lat="48.06759" lon="7.67668">
        <ele>287.57</ele>
        <time>2014-08-29T05:49:52Z</time>
      </trkpt>
      <trkpt lat="48.06754" lon="7.67679">
        <ele>287.09</ele>
        <time>2014-08-29T05:49:58Z</time>
      </trkpt>
      <trkpt lat="48.06743" lon="7.67703">
        <ele>285.65</ele>
        <time>2014-08-29T05:50:13Z</time>
      </trkpt>
      <trkpt lat="48.06735" lon="7.67723">
        <ele>284.21</ele>
        <time>2014-08-29T05:50:27Z</time>
      </trkpt>
      <trkpt lat="48.06735" lon="7.67724">
        <ele>283.73</ele>
        <time>2014-08-29T05:50:28Z</time>
      </trkpt>
      <trkpt lat="48.06737" lon="7.67755">
        <ele>282.28</ele>
        <time>2014-08-29T05:50:41Z</time>
      </trkpt>
      <trkpt lat="48.06736" lon="7.67756">
        <ele>282.28</ele>
        <time>2014-08-29T05:50:43Z</time>
      </trkpt>
      <trkpt lat="48.06737" lon="7.67785">
        <ele>280.84</ele>
        <time>2014-08-29T05:50:56Z</time>
      </trkpt>
      <trkpt lat="48.06737" lon="7.67799">
        <ele>279.88</ele>
        <time>2014-08-29T05:51:07Z</time>
      </trkpt>
      <trkpt lat="48.06737" lon="7.67811">
        <ele>278.92</ele>
        <time>2014-08-29T05:51:14Z</time>
      </trkpt>
      <trkpt lat="48.06745" lon="7.67842">
        <ele>277.96</ele>
        <time>2014-08-29T05:51:29Z</time>
      </trkpt>
      <trkpt lat="48.06746" lon="7.67847">
        <ele>277.96</ele>
        <time>2014-08-29T05:51:32Z</time>
      </trkpt>
      <trkpt lat="48.06746" lon="7.67855">
        <ele>277.48</ele>
        <time>2014-08-29T05:51:37Z</time>
      </trkpt>
      <trkpt lat="48.06748" lon="7.6786">
        <ele>277.48</ele>
        <time>2014-08-29T05:51:40Z</time>
      </trkpt>
      <trkpt lat="48.06756" lon="7.67882">
        <ele>277</ele>
        <time>2014-08-29T05:51:53Z</time>
      </trkpt>
      <trkpt lat="48.06777" lon="7.67892">
        <ele>277.48</ele>
        <time>2014-08-29T05:52:06Z</time>
      </trkpt>
      <trkpt lat="48.06789" lon="7.67897">
        <ele>277.96</ele>
        <time>2014-08-29T05:52:18Z</time>
      </trkpt>
      <trkpt lat="48.06804" lon="7.67908">
        <ele>278.44</ele>
        <time>2014-08-29T05:52:31Z</time>
      </trkpt>
      <trkpt lat="48.06807" lon="7.67907">
        <ele>278.92</ele>
        <time>2014-08-29T05:52:33Z</time>
      </trkpt>
      <trkpt lat="48.06821" lon="7.67915">
        <ele>279.4</ele>
        <time>2014-08-29T05:52:45Z</time>
      </trkpt>
      <trkpt lat="48.06831" lon="7.6792">
        <ele>280.36</ele>
        <time>2014-08-29T05:52:58Z</time>
      </trkpt>
      <trkpt lat="48.0683" lon="7.6792">
        <ele>279.88</ele>
        <time>2014-08-29T05:53:05Z</time>
      </trkpt>
      <trkpt lat="48.06827" lon="7.6792">
        <ele>279.88</ele>
        <time>2014-08-29T05:53:09Z</time>
      </trkpt>
      <trkpt lat="48.06811" lon="7.67917">
        <ele>279.4</ele>
        <time>2014-08-29T05:53:22Z</time>
      </trkpt>
      <trkpt lat="48.06797" lon="7.67914">
        <ele>278.44</ele>
        <time>2014-08-29T05:53:32Z</time>
      </trkpt>
      <trkpt lat="48.06783" lon="7.67911">
        <ele>277.96</ele>
        <time>2014-08-29T05:53:43Z</time>
      </trkpt>
      <trkpt lat="48.06767" lon="7.67897">
        <ele>277.48</ele>
        <time>2014-08-29T05:53:59Z</time>
      </trkpt>
      <trkpt lat="48.06766" lon="7.67895">
        <ele>277.48</ele>
        <time>2014-08-29T05:54:00Z</time>
      </trkpt>
      <trkpt lat="48.06763" lon="7.67881">
        <ele>277.48</ele>
        <time>2014-08-29T05:54:04Z</time>
      </trkpt>
      <trkpt lat="48.06746" lon="7.67856">
        <ele>277.96</ele>
        <time>2014-08-29T05:54:17Z</time>
      </trkpt>
      <trkpt lat="48.06744" lon="7.67852">
        <ele>277.96</ele>
        <time>2014-08-29T05:54:20Z</time>
      </trkpt>
      <trkpt lat="48.06734" lon="7.67822">
        <ele>279.4</ele>
        <time>2014-08-29T05:54:36Z</time>
      </trkpt>
      <trkpt lat="48.06732" lon="7.67792">
        <ele>280.36</ele>
        <time>2014-08-29T05:54:49Z</time>
      </trkpt>
      <trkpt lat="48.06734" lon="7.67764">
        <ele>282.28</ele>
        <time>2014-08-29T05:55:03Z</time>
      </trkpt>
      <trkpt lat="48.06734" lon="7.67756">
        <ele>282.28</ele>
        <time>2014-08-29T05:55:07Z</time>
      </trkpt>
      <trkpt lat="48.06734" lon="7.67744">
        <ele>282.28</ele>
        <time>2014-08-29T05:55:12Z</time>
      </trkpt>
      <trkpt lat="48.06735" lon="7.6773">
        <ele>283.25</ele>
        <time>2014-08-29T05:55:20Z</time>
      </trkpt>
      <trkpt lat="48.06737" lon="7.67715">
        <ele>284.69</ele>
        <time>2014-08-29T05:55:31Z</time>
      </trkpt>
      <trkpt lat="48.06748" lon="7.67693">
        <ele>285.65</ele>
        <time>2014-08-29T05:55:44Z</time>
      </trkpt>
      <trkpt lat="48.0676" lon="7.67673">
        <ele>287.09</ele>
        <time>2014-08-29T05:55:57Z</time>
      </trkpt>
      <trkpt lat="48.06768" lon="7.67653">
        <ele>287.57</ele>
        <time>2014-08-29T05:56:10Z</time>
      </trkpt>
      <trkpt lat="48.06775" lon="7.67635">
        <ele>288.05</ele>
        <time>2014-08-29T05:56:21Z</time>
      </trkpt>
      <trkpt lat="48.06782" lon="7.67621">
        <ele>289.01</ele>
        <time>2014-08-29T05:56:30Z</time>
      </trkpt>
      <trkpt lat="48.06789" lon="7.676">
        <ele>290.46</ele>
        <time>2014-08-29T05:56:44Z</time>
      </trkpt>
      <trkpt lat="48.0679" lon="7.67598">
        <ele>290.46</ele>
        <time>2014-08-29T05:56:55Z</time>
      </trkpt>
      <trkpt lat="48.06788" lon="7.67602">
        <ele>289.49</ele>
        <time>2014-08-29T05:56:59Z</time>
      </trkpt>
      <trkpt lat="48.06781" lon="7.67623">
        <ele>288.05</ele>
        <time>2014-08-29T05:57:14Z</time>
      </trkpt>
      <trkpt lat="48.06781" lon="7.67624">
        <ele>288.05</ele>
        <time>2014-08-29T05:57:15Z</time>
      </trkpt>
      <trkpt lat="48.06771" lon="7.67648">
        <ele>287.09</ele>
        <time>2014-08-29T05:57:29Z</time>
      </trkpt>
      <trkpt lat="48.06762" lon="7.67668">
        <ele>285.65</ele>
        <time>2014-08-29T05:57:44Z</time>
      </trkpt>
      <trkpt lat="48.06756" lon="7.67683">
        <ele>284.69</ele>
        <time>2014-08-29T05:58:01Z</time>
      </trkpt>
      <trkpt lat="48.06742" lon="7.67702">
        <ele>283.25</ele>
        <time>2014-08-29T05:58:16Z</time>
      </trkpt>
      <trkpt lat="48.06742" lon="7.67703">
        <ele>283.73</ele>
        <time>2014-08-29T05:58:21Z</time>
      </trkpt>
      <trkpt lat="48.06737" lon="7.67706">
        <ele>283.25</ele>
        <time>2014-08-29T05:58:35Z</time>
      </trkpt>
      <trkpt lat="48.06738" lon="7.67718">
        <ele>282.77</ele>
        <time>2014-08-29T05:58:46Z</time>
      </trkpt>
      <trkpt lat="48.06738" lon="7.67747">
        <ele>280.36</ele>
        <time>2014-08-29T05:59:01Z</time>
      </trkpt>
      <trkpt lat="48.06739" lon="7.67779">
        <ele>278.92</ele>
        <time>2014-08-29T05:59:15Z</time>
      </trkpt>
      <trkpt lat="48.06741" lon="7.67805">
        <ele>277.48</ele>
        <time>2014-08-29T05:59:31Z</time>
      </trkpt>
      <trkpt lat="48.06743" lon="7.67844">
        <ele>276.04</ele>
        <time>2014-08-29T05:59:46Z</time>
      </trkpt>
      <trkpt lat="48.06743" lon="7.67846">
        <ele>276.04</ele>
        <time>2014-08-29T05:59:47Z</time>
      </trkpt>
      <trkpt lat="48.0675" lon="7.67861">
        <ele>276.04</ele>
        <time>2014-08-29T05:59:57Z</time>
      </trkpt>
      <trkpt lat="48.06751" lon="7.67865">
        <ele>275.56</ele>
        <time>2014-08-29T06:00:00Z</time>
      </trkpt>
      <trkpt lat="48.06754" lon="7.67873">
        <ele>275.56</ele>
        <time>2014-08-29T06:00:04Z</time>
      </trkpt>
      <trkpt lat="48.06752" lon="7.67898">
        <ele>275.56</ele>
        <time>2014-08-29T06:00:18Z</time>
      </trkpt>
      <trkpt lat="48.06767" lon="7.67911">
        <ele>275.56</ele>
        <time>2014-08-29T06:00:33Z</time>
      </trkpt>
      <trkpt lat="48.06784" lon="7.67911">
        <ele>276.04</ele>
        <time>2014-08-29T06:00:42Z</time>
      </trkpt>
      <trkpt lat="48.06807" lon="7.67917">
        <ele>277</ele>
        <time>2014-08-29T06:00:56Z</time>
      </trkpt>
      <trkpt lat="48.06823" lon="7.67925">
        <ele>277.48</ele>
        <time>2014-08-29T06:01:10Z</time>
      </trkpt>
      <trkpt lat="48.0684" lon="7.6793">
        <ele>277.96</ele>
        <time>2014-08-29T06:01:22Z</time>
      </trkpt>
      <trkpt lat="48.06857" lon="7.67933">
        <ele>278.92</ele>
        <time>2014-08-29T06:01:36Z</time>
      </trkpt>
      <trkpt lat="48.06874" lon="7.67936">
        <ele>279.88</ele>
        <time>2014-08-29T06:01:49Z</time>
      </trkpt>
      <trkpt lat="48.06889" lon="7.6794">
        <ele>280.84</ele>
        <time>2014-08-29T06:02:01Z</time>
      </trkpt>
      <trkpt lat="48.06892" lon="7.67942">
        <ele>280.84</ele>
        <time>2014-08-29T06:02:04Z</time>
      </trkpt>
      <trkpt lat="48.06902" lon="7.67944">
        <ele>282.28</ele>
        <time>2014-08-29T06:02:11Z</time>
      </trkpt>
      <trkpt lat="48.06911" lon="7.67949">
        <ele>282.28</ele>
        <time>2014-08-29T06:02:22Z</time>
      </trkpt>
      <trkpt lat="48.06917" lon="7.67947">
        <ele>282.77</ele>
        <time>2014-08-29T06:02:28Z</time>
      </trkpt>
      <trkpt lat="48.06929" lon="7.67946">
        <ele>283.25</ele>
        <time>2014-08-29T06:02:33Z</time>
      </trkpt>
      <trkpt lat="48.06941" lon="7.67941">
        <ele>283.25</ele>
        <time>2014-08-29T06:02:38Z</time>
      </trkpt>
      <trkpt lat="48.06949" lon="7.67941">
        <ele>283.73</ele>
        <time>2014-08-29T06:02:43Z</time>
      </trkpt>
      <trkpt lat="48.06951" lon="7.67942">
        <ele>283.73</ele>
        <time>2014-08-29T06:02:45Z</time>
      </trkpt>
      <trkpt lat="48.06962" lon="7.67949">
        <ele>284.21</ele>
        <time>2014-08-29T06:02:54Z</time>
      </trkpt>
      <trkpt lat="48.06973" lon="7.67956">
        <ele>285.17</ele>
        <time>2014-08-29T06:03:04Z</time>
      </trkpt>
      <trkpt lat="48.06991" lon="7.67959">
        <ele>285.65</ele>
        <time>2014-08-29T06:03:18Z</time>
      </trkpt>
      <trkpt lat="48.07005" lon="7.67961">
        <ele>286.61</ele>
        <time>2014-08-29T06:03:30Z</time>
      </trkpt>
      <trkpt lat="48.0702" lon="7.67967">
        <ele>287.57</ele>
        <time>2014-08-29T06:03:43Z</time>
      </trkpt>
      <trkpt lat="48.07035" lon="7.67973">
        <ele>288.53</ele>
        <time>2014-08-29T06:03:56Z</time>
      </trkpt>
      <trkpt lat="48.07043" lon="7.67976">
        <ele>288.53</ele>
        <time>2014-08-29T06:04:03Z</time>
      </trkpt>
      <trkpt lat="48.07055" lon="7.67976">
        <ele>289.49</ele>
        <time>2014-08-29T06:04:13Z</time>
      </trkpt>
      <trkpt lat="48.07068" lon="7.67978">
        <ele>289.97</ele>
        <time>2014-08-29T06:04:25Z</time>
      </trkpt>
      <trkpt lat="48.07079" lon="7.67982">
        <ele>290.94</ele>
        <time>2014-08-29T06:04:34Z</time>
      </trkpt>
      <trkpt lat="48.07082" lon="7.67987">
        <ele>290.94</ele>
        <time>2014-08-29T06:04:38Z</time>
      </trkpt>
      <trkpt lat="48.07088" lon="7.67989">
        <ele>291.42</ele>
        <time>2014-08-29T06:04:43Z</time>
      </trkpt>
      <trkpt lat="48.07103" lon="7.67993">
        <ele>291.9</ele>
        <time>2014-08-29T06:04:56Z</time>
      </trkpt>
      <trkpt lat="48.07107" lon="7.67995">
        <ele>291.9</ele>
        <time>2014-08-29T06:04:59Z</time>
      </trkpt>
      <trkpt lat="48.07121" lon="7.68011">
        <ele>292.38</ele>
        <time>2014-08-29T06:05:14Z</time>
      </trkpt>
      <trkpt lat="48.07133" lon="7.68029">
        <ele>293.34</ele>
        <time>2014-08-29T06:05:26Z</time>
      </trkpt>
      <trkpt lat="48.0714" lon="7.68045">
        <ele>292.86</ele>
        <time>2014-08-29T06:05:33Z</time>
      </trkpt>
      <trkpt lat="48.07156" lon="7.68056">
        <ele>293.82</ele>
        <time>2014-08-29T06:05:46Z</time>
      </trkpt>
      <trkpt lat="48.07157" lon="7.68059">
        <ele>294.3</ele>
        <time>2014-08-29T06:05:48Z</time>
      </trkpt>
      <trkpt lat="48.07168" lon="7.68076">
        <ele>294.78</ele>
        <time>2014-08-29T06:06:00Z</time>
      </trkpt>
      <trkpt lat="48.07171" lon="7.68082">
        <ele>294.78</ele>
        <time>2014-08-29T06:06:05Z</time>
      </trkpt>
      <trkpt lat="48.07181" lon="7.6809">
        <ele>294.78</ele>
        <time>2014-08-29T06:06:13Z</time>
      </trkpt>
      <trkpt lat="48.07191" lon="7.68112">
        <ele>295.74</ele>
        <time>2014-08-29T06:06:27Z</time>
      </trkpt>
      <trkpt lat="48.07202" lon="7.68121">
        <ele>296.22</ele>
        <time>2014-08-29T06:06:39Z</time>
      </trkpt>
      <trkpt lat="48.07209" lon="7.68131">
        <ele>296.7</ele>
        <time>2014-08-29T06:06:45Z</time>
      </trkpt>
      <trkpt lat="48.07224" lon="7.68144">
        <ele>297.67</ele>
        <time>2014-08-29T06:06:57Z</time>
      </trkpt>
      <trkpt lat="48.07231" lon="7.68151">
        <ele>298.15</ele>
        <time>2014-08-29T06:07:05Z</time>
      </trkpt>
      <trkpt lat="48.07246" lon="7.68166">
        <ele>298.63</ele>
        <time>2014-08-29T06:07:19Z</time>
      </trkpt>
      <trkpt lat="48.0725" lon="7.68173">
        <ele>299.11</ele>
        <time>2014-08-29T06:07:24Z</time>
      </trkpt>
      <trkpt lat="48.07255" lon="7.68176">
        <ele>299.11</ele>
        <time>2014-08-29T06:07:29Z</time>
      </trkpt>
      <trkpt lat="48.07271" lon="7.68191">
        <ele>300.55</ele>
        <time>2014-08-29T06:07:44Z</time>
      </trkpt>
      <trkpt lat="48.0728" lon="7.68197">
        <ele>301.03</ele>
        <time>2014-08-29T06:07:52Z</time>
      </trkpt>
      <trkpt lat="48.07286" lon="7.68199">
        <ele>301.99</ele>
        <time>2014-08-29T06:07:57Z</time>
      </trkpt>
      <trkpt lat="48.07307" lon="7.68192">
        <ele>302.47</ele>
        <time>2014-08-29T06:08:13Z</time>
      </trkpt>
      <trkpt lat="48.07309" lon="7.6819">
        <ele>302.95</ele>
        <time>2014-08-29T06:08:15Z</time>
      </trkpt>
      <trkpt lat="48.07322" lon="7.6819">
        <ele>303.43</ele>
        <time>2014-08-29T06:08:25Z</time>
      </trkpt>
      <trkpt lat="48.07336" lon="7.68191">
        <ele>304.39</ele>
        <time>2014-08-29T06:08:39Z</time>
      </trkpt>
      <trkpt lat="48.07344" lon="7.68192">
        <ele>305.36</ele>
        <time>2014-08-29T06:08:46Z</time>
      </trkpt>
      <trkpt lat="48.07361" lon="7.68198">
        <ele>305.84</ele>
        <time>2014-08-29T06:08:59Z</time>
      </trkpt>
      <trkpt lat="48.07378" lon="7.68194">
        <ele>307.28</ele>
        <time>2014-08-29T06:09:14Z</time>
      </trkpt>
      <trkpt lat="48.07398" lon="7.68201">
        <ele>308.24</ele>
        <time>2014-08-29T06:09:28Z</time>
      </trkpt>
      <trkpt lat="48.07412" lon="7.682">
        <ele>308.72</ele>
        <time>2014-08-29T06:09:39Z</time>
      </trkpt>
      <trkpt lat="48.07426" lon="7.68197">
        <ele>309.68</ele>
        <time>2014-08-29T06:09:50Z</time>
      </trkpt>
      <trkpt lat="48.07441" lon="7.68194">
        <ele>310.64</ele>
        <time>2014-08-29T06:10:05Z</time>
      </trkpt>
      <trkpt lat="48.07454" lon="7.68193">
        <ele>311.12</ele>
        <time>2014-08-29T06:10:17Z</time>
      </trkpt>
      <trkpt lat="48.07468" lon="7.68195">
        <ele>312.09</ele>
        <time>2014-08-29T06:10:31Z</time>
      </trkpt>
      <trkpt lat="48.07477" lon="7.68201">
        <ele>313.05</ele>
        <time>2014-08-29T06:10:45Z</time>
      </trkpt>
      <trkpt lat="48.07479" lon="7.68206">
        <ele>312.09</ele>
        <time>2014-08-29T06:11:04Z</time>
      </trkpt>
      <trkpt lat="48.07476" lon="7.68211">
        <ele>311.6</ele>
        <time>2014-08-29T06:11:51Z</time>
      </trkpt>
      <trkpt lat="48.07477" lon="7.68209">
        <ele>310.64</ele>
        <time>2014-08-29T06:12:16Z</time>
      </trkpt>
      <trkpt lat="48.07479" lon="7.68208">
        <ele>312.09</ele>
        <time>2014-08-29T06:12:49Z</time>
      </trkpt>
      <trkpt lat="48.07476" lon="7.68199">
        <ele>312.09</ele>
        <time>2014-08-29T06:13:58Z</time>
      </trkpt>
      <trkpt lat="48.07476" lon="7.68199">
        <ele>312.09</ele>
        <time>2014-08-29T06:14:31Z</time>
      </trkpt>
      <trkpt lat="48.07478" lon="7.68199">
        <ele>312.57</ele>
        <time>2014-08-29T06:15:36Z</time>
      </trkpt>
      <trkpt lat="48.07477" lon="7.68202">
        <ele>311.12</ele>
        <time>2014-08-29T06:15:40Z</time>
      </trkpt>
      <trkpt lat="48.07477" lon="7.68201">
        <ele>311.6</ele>
        <time>2014-08-29T06:15:59Z</time>
      </trkpt>
      <trkpt lat="48.07483" lon="7.68212">
        <ele>310.64</ele>
        <time>2014-08-29T06:16:09Z</time>
      </trkpt>
      <trkpt lat="48.07482" lon="7.68212">
        <ele>313.53</ele>
        <time>2014-08-29T06:16:11Z</time>
      </trkpt>
      <trkpt lat="48.07481" lon="7.6821">
        <ele>309.2</ele>
        <time>2014-08-29T06:16:13Z</time>
      </trkpt>
      <trkpt lat="48.0748" lon="7.6821">
        <ele>309.68</ele>
        <time>2014-08-29T06:16:14Z</time>
      </trkpt>
      <trkpt lat="48.07479" lon="7.68208">
        <ele>314.01</ele>
        <time>2014-08-29T06:16:16Z</time>
      </trkpt>
      <trkpt lat="48.07478" lon="7.68208">
        <ele>314.01</ele>
        <time>2014-08-29T06:16:17Z</time>
      </trkpt>
      <trkpt lat="48.07477" lon="7.68207">
        <ele>310.64</ele>
        <time>2014-08-29T06:16:19Z</time>
      </trkpt>
      <trkpt lat="48.07476" lon="7.68207">
        <ele>310.64</ele>
        <time>2014-08-29T06:16:20Z</time>
      </trkpt>
      <trkpt lat="48.07468" lon="7.68206">
        <ele>309.2</ele>
        <time>2014-08-29T06:16:29Z</time>
      </trkpt>
      <trkpt lat="48.07465" lon="7.68204">
        <ele>313.53</ele>
        <time>2014-08-29T06:16:33Z</time>
      </trkpt>
      <trkpt lat="48.07464" lon="7.68202">
        <ele>310.64</ele>
        <time>2014-08-29T06:16:34Z</time>
      </trkpt>
      <trkpt lat="48.07458" lon="7.68198">
        <ele>309.2</ele>
        <time>2014-08-29T06:16:41Z</time>
      </trkpt>
      <trkpt lat="48.07457" lon="7.68197">
        <ele>312.57</ele>
        <time>2014-08-29T06:16:44Z</time>
      </trkpt>
      <trkpt lat="48.07457" lon="7.68197">
        <ele>312.57</ele>
        <time>2014-08-29T06:16:45Z</time>
      </trkpt>
      <trkpt lat="48.07455" lon="7.68196">
        <ele>308.72</ele>
        <time>2014-08-29T06:16:48Z</time>
      </trkpt>
      <trkpt lat="48.07448" lon="7.68195">
        <ele>313.53</ele>
        <time>2014-08-29T06:16:53Z</time>
      </trkpt>
      <trkpt lat="48.07446" lon="7.68194">
        <ele>313.53</ele>
        <time>2014-08-29T06:16:54Z</time>
      </trkpt>
      <trkpt lat="48.07443" lon="7.68192">
        <ele>307.76</ele>
        <time>2014-08-29T06:16:56Z</time>
      </trkpt>
      <trkpt lat="48.07439" lon="7.6819">
        <ele>312.09</ele>
        <time>2014-08-29T06:16:59Z</time>
      </trkpt>
      <trkpt lat="48.07436" lon="7.68189">
        <ele>311.12</ele>
        <time>2014-08-29T06:17:01Z</time>
      </trkpt>
      <trkpt lat="48.07428" lon="7.68186">
        <ele>312.57</ele>
        <time>2014-08-29T06:17:07Z</time>
      </trkpt>
      <trkpt lat="48.07422" lon="7.68186">
        <ele>309.2</ele>
        <time>2014-08-29T06:17:11Z</time>
      </trkpt>
      <trkpt lat="48.07407" lon="7.68184">
        <ele>308.24</ele>
        <time>2014-08-29T06:17:20Z</time>
      </trkpt>
      <trkpt lat="48.07402" lon="7.68183">
        <ele>312.57</ele>
        <time>2014-08-29T06:17:24Z</time>
      </trkpt>
      <trkpt lat="48.074" lon="7.68183">
        <ele>308.24</ele>
        <time>2014-08-29T06:17:26Z</time>
      </trkpt>
      <trkpt lat="48.07394" lon="7.6818">
        <ele>311.6</ele>
        <time>2014-08-29T06:17:31Z</time>
      </trkpt>
      <trkpt lat="48.0739" lon="7.68179">
        <ele>308.24</ele>
        <time>2014-08-29T06:17:34Z</time>
      </trkpt>
      <trkpt lat="48.07386" lon="7.68178">
        <ele>307.28</ele>
        <time>2014-08-29T06:17:36Z</time>
      </trkpt>
      <trkpt lat="48.07385" lon="7.68177">
        <ele>310.64</ele>
        <time>2014-08-29T06:17:37Z</time>
      </trkpt>
      <trkpt lat="48.07383" lon="7.68176">
        <ele>312.09</ele>
        <time>2014-08-29T06:17:39Z</time>
      </trkpt>
      <trkpt lat="48.07381" lon="7.68175">
        <ele>307.76</ele>
        <time>2014-08-29T06:17:41Z</time>
      </trkpt>
      <trkpt lat="48.07377" lon="7.68172">
        <ele>312.57</ele>
        <time>2014-08-29T06:17:44Z</time>
      </trkpt>
      <trkpt lat="48.07374" lon="7.6817">
        <ele>307.28</ele>
        <time>2014-08-29T06:17:47Z</time>
      </trkpt>
      <trkpt lat="48.07372" lon="7.68168">
        <ele>311.6</ele>
        <time>2014-08-29T06:17:49Z</time>
      </trkpt>
      <trkpt lat="48.07369" lon="7.68165">
        <ele>308.24</ele>
        <time>2014-08-29T06:17:52Z</time>
      </trkpt>
      <trkpt lat="48.07368" lon="7.68163">
        <ele>308.24</ele>
        <time>2014-08-29T06:17:53Z</time>
      </trkpt>
      <trkpt lat="48.07365" lon="7.6816">
        <ele>312.09</ele>
        <time>2014-08-29T06:17:56Z</time>
      </trkpt>
      <trkpt lat="48.07363" lon="7.68155">
        <ele>312.09</ele>
        <time>2014-08-29T06:17:59Z</time>
      </trkpt>
      <trkpt lat="48.07359" lon="7.68151">
        <ele>308.72</ele>
        <time>2014-08-29T06:18:03Z</time>
      </trkpt>
      <trkpt lat="48.07357" lon="7.68147">
        <ele>312.09</ele>
        <time>2014-08-29T06:18:07Z</time>
      </trkpt>
      <trkpt lat="48.07357" lon="7.68146">
        <ele>312.09</ele>
        <time>2014-08-29T06:18:08Z</time>
      </trkpt>
      <trkpt lat="48.07357" lon="7.68144">
        <ele>308.24</ele>
        <time>2014-08-29T06:18:10Z</time>
      </trkpt>
      <trkpt lat="48.07355" lon="7.68142">
        <ele>312.09</ele>
        <time>2014-08-29T06:18:14Z</time>
      </trkpt>
      <trkpt lat="48.07354" lon="7.68136">
        <ele>308.24</ele>
        <time>2014-08-29T06:18:18Z</time>
      </trkpt>
      <trkpt lat="48.07353" lon="7.68129">
        <ele>311.6</ele>
        <time>2014-08-29T06:18:21Z</time>
      </trkpt>
      <trkpt lat="48.07353" lon="7.68124">
        <ele>312.57</ele>
        <time>2014-08-29T06:18:23Z</time>
      </trkpt>
      <trkpt lat="48.07352" lon="7.68121">
        <ele>307.76</ele>
        <time>2014-08-29T06:18:25Z</time>
      </trkpt>
      <trkpt lat="48.07351" lon="7.68118">
        <ele>312.57</ele>
        <time>2014-08-29T06:18:27Z</time>
      </trkpt>
      <trkpt lat="48.07349" lon="7.68112">
        <ele>307.76</ele>
        <time>2014-08-29T06:18:31Z</time>
      </trkpt>
      <trkpt lat="48.07349" lon="7.68111">
        <ele>311.6</ele>
        <time>2014-08-29T06:18:32Z</time>
      </trkpt>
      <trkpt lat="48.07348" lon="7.68107">
        <ele>312.09</ele>
        <time>2014-08-29T06:18:34Z</time>
      </trkpt>
      <trkpt lat="48.07346" lon="7.68104">
        <ele>308.24</ele>
        <time>2014-08-29T06:18:36Z</time>
      </trkpt>
      <trkpt lat="48.07346" lon="7.68103">
        <ele>310.16</ele>
        <time>2014-08-29T06:18:37Z</time>
      </trkpt>
      <trkpt lat="48.07344" lon="7.68101">
        <ele>313.53</ele>
        <time>2014-08-29T06:18:39Z</time>
      </trkpt>
      <trkpt lat="48.07344" lon="7.681">
        <ele>312.57</ele>
        <time>2014-08-29T06:18:40Z</time>
      </trkpt>
      <trkpt lat="48.07343" lon="7.68099">
        <ele>309.2</ele>
        <time>2014-08-29T06:18:41Z</time>
      </trkpt>
      <trkpt lat="48.07341" lon="7.68096">
        <ele>313.53</ele>
        <time>2014-08-29T06:18:44Z</time>
      </trkpt>
      <trkpt lat="48.0734" lon="7.68094">
        <ele>309.68</ele>
        <time>2014-08-29T06:18:46Z</time>
      </trkpt>
      <trkpt lat="48.07339" lon="7.68091">
        <ele>312.57</ele>
        <time>2014-08-29T06:18:48Z</time>
      </trkpt>
      <trkpt lat="48.07336" lon="7.68086">
        <ele>308.72</ele>
        <time>2014-08-29T06:18:51Z</time>
      </trkpt>
      <trkpt lat="48.07335" lon="7.68082">
        <ele>314.01</ele>
        <time>2014-08-29T06:18:53Z</time>
      </trkpt>
      <trkpt lat="48.07334" lon="7.68081">
        <ele>312.57</ele>
        <time>2014-08-29T06:18:54Z</time>
      </trkpt>
      <trkpt lat="48.07332" lon="7.68078">
        <ele>311.12</ele>
        <time>2014-08-29T06:18:56Z</time>
      </trkpt>
      <trkpt lat="48.07331" lon="7.68075">
        <ele>314.01</ele>
        <time>2014-08-29T06:18:58Z</time>
      </trkpt>
      <trkpt lat="48.0733" lon="7.68072">
        <ele>309.68</ele>
        <time>2014-08-29T06:19:00Z</time>
      </trkpt>
      <trkpt lat="48.07329" lon="7.68069">
        <ele>314.01</ele>
        <time>2014-08-29T06:19:02Z</time>
      </trkpt>
      <trkpt lat="48.07329" lon="7.68067">
        <ele>314.01</ele>
        <time>2014-08-29T06:19:03Z</time>
      </trkpt>
      <trkpt lat="48.07328" lon="7.68063">
        <ele>308.72</ele>
        <time>2014-08-29T06:19:05Z</time>
      </trkpt>
      <trkpt lat="48.07328" lon="7.68061">
        <ele>312.09</ele>
        <time>2014-08-29T06:19:06Z</time>
      </trkpt>
      <trkpt lat="48.07329" lon="7.68055">
        <ele>311.12</ele>
        <time>2014-08-29T06:19:11Z</time>
      </trkpt>
      <trkpt lat="48.07329" lon="7.68054">
        <ele>315.45</ele>
        <time>2014-08-29T06:19:12Z</time>
      </trkpt>
      <trkpt lat="48.07328" lon="7.68053">
        <ele>315.45</ele>
        <time>2014-08-29T06:19:13Z</time>
      </trkpt>
      <trkpt lat="48.07328" lon="7.68052">
        <ele>312.09</ele>
        <time>2014-08-29T06:19:15Z</time>
      </trkpt>
      <trkpt lat="48.07327" lon="7.68051">
        <ele>314.49</ele>
        <time>2014-08-29T06:19:16Z</time>
      </trkpt>
      <trkpt lat="48.07313" lon="7.6803">
        <ele>315.45</ele>
        <time>2014-08-29T06:19:27Z</time>
      </trkpt>
      <trkpt lat="48.07303" lon="7.6801">
        <ele>317.85</ele>
        <time>2014-08-29T06:19:39Z</time>
      </trkpt>
      <trkpt lat="48.073" lon="7.68007">
        <ele>313.53</ele>
        <time>2014-08-29T06:19:41Z</time>
      </trkpt>
      <trkpt lat="48.07299" lon="7.68006">
        <ele>314.97</ele>
        <time>2014-08-29T06:19:42Z</time>
      </trkpt>
      <trkpt lat="48.07294" lon="7.67999">
        <ele>318.33</ele>
        <time>2014-08-29T06:19:48Z</time>
      </trkpt>
      <trkpt lat="48.07294" lon="7.67998">
        <ele>318.33</ele>
        <time>2014-08-29T06:19:49Z</time>
      </trkpt>
      <trkpt lat="48.07293" lon="7.67995">
        <ele>314.49</ele>
        <time>2014-08-29T06:19:51Z</time>
      </trkpt>
      <trkpt lat="48.07292" lon="7.67992">
        <ele>319.3</ele>
        <time>2014-08-29T06:19:53Z</time>
      </trkpt>
      <trkpt lat="48.07292" lon="7.6799">
        <ele>317.85</ele>
        <time>2014-08-29T06:19:54Z</time>
      </trkpt>
      <trkpt lat="48.07282" lon="7.67975">
        <ele>317.85</ele>
        <time>2014-08-29T06:20:02Z</time>
      </trkpt>
      <trkpt lat="48.07272" lon="7.67952">
        <ele>319.78</ele>
        <time>2014-08-29T06:20:18Z</time>
      </trkpt>
      <trkpt lat="48.07267" lon="7.67945">
        <ele>319.3</ele>
        <time>2014-08-29T06:20:23Z</time>
      </trkpt>
      <trkpt lat="48.0726" lon="7.67942">
        <ele>319.78</ele>
        <time>2014-08-29T06:20:28Z</time>
      </trkpt>
      <trkpt lat="48.07239" lon="7.67941">
        <ele>321.22</ele>
        <time>2014-08-29T06:20:46Z</time>
      </trkpt>
      <trkpt lat="48.07231" lon="7.67938">
        <ele>322.18</ele>
        <time>2014-08-29T06:21:00Z</time>
      </trkpt>
      <trkpt lat="48.07214" lon="7.67941">
        <ele>323.14</ele>
        <time>2014-08-29T06:21:12Z</time>
      </trkpt>
      <trkpt lat="48.07212" lon="7.6794">
        <ele>322.66</ele>
        <time>2014-08-29T06:21:14Z</time>
      </trkpt>
      <trkpt lat="48.07204" lon="7.67932">
        <ele>323.14</ele>
        <time>2014-08-29T06:21:23Z</time>
      </trkpt>
      <trkpt lat="48.07198" lon="7.67919">
        <ele>322.66</ele>
        <time>2014-08-29T06:21:37Z</time>
      </trkpt>
      <trkpt lat="48.072" lon="7.67924">
        <ele>322.66</ele>
        <time>2014-08-29T06:21:40Z</time>
      </trkpt>
      <trkpt lat="48.07201" lon="7.6793">
        <ele>322.66</ele>
        <time>2014-08-29T06:21:44Z</time>
      </trkpt>
      <trkpt lat="48.07211" lon="7.67948">
        <ele>322.66</ele>
        <time>2014-08-29T06:21:58Z</time>
      </trkpt>
      <trkpt lat="48.07225" lon="7.67944">
        <ele>321.7</ele>
        <time>2014-08-29T06:22:10Z</time>
      </trkpt>
      <trkpt lat="48.07226" lon="7.67936">
        <ele>322.66</ele>
        <time>2014-08-29T06:22:14Z</time>
      </trkpt>
      <trkpt lat="48.07227" lon="7.67927">
        <ele>322.18</ele>
        <time>2014-08-29T06:22:19Z</time>
      </trkpt>
      <trkpt lat="48.0724" lon="7.67903">
        <ele>322.66</ele>
        <time>2014-08-29T06:22:37Z</time>
      </trkpt>
      <trkpt lat="48.0724" lon="7.67899">
        <ele>322.66</ele>
        <time>2014-08-29T06:22:58Z</time>
      </trkpt>
      <trkpt lat="48.07257" lon="7.6788">
        <ele>323.14</ele>
        <time>2014-08-29T06:23:17Z</time>
      </trkpt>
      <trkpt lat="48.07264" lon="7.67873">
        <ele>322.66</ele>
        <time>2014-08-29T06:23:33Z</time>
      </trkpt>
      <trkpt lat="48.0727" lon="7.67879">
        <ele>323.14</ele>
        <time>2014-08-29T06:23:51Z</time>
      </trkpt>
      <trkpt lat="48.07283" lon="7.67886">
        <ele>324.58</ele>
        <time>2014-08-29T06:24:08Z</time>
      </trkpt>
      <trkpt lat="48.07295" lon="7.67889">
        <ele>325.54</ele>
        <time>2014-08-29T06:24:16Z</time>
      </trkpt>
      <trkpt lat="48.07315" lon="7.67902">
        <ele>326.99</ele>
        <time>2014-08-29T06:24:30Z</time>
      </trkpt>
      <trkpt lat="48.07316" lon="7.67905">
        <ele>327.95</ele>
        <time>2014-08-29T06:24:32Z</time>
      </trkpt>
      <trkpt lat="48.07334" lon="7.67921">
        <ele>328.91</ele>
        <time>2014-08-29T06:24:50Z</time>
      </trkpt>
      <trkpt lat="48.07346" lon="7.67929">
        <ele>330.35</ele>
        <time>2014-08-29T06:25:09Z</time>
      </trkpt>
      <trkpt lat="48.07354" lon="7.67928">
        <ele>330.83</ele>
        <time>2014-08-29T06:25:26Z</time>
      </trkpt>
      <trkpt lat="48.07372" lon="7.67933">
        <ele>332.27</ele>
        <time>2014-08-29T06:25:40Z</time>
      </trkpt>
      <trkpt lat="48.07387" lon="7.67942">
        <ele>333.23</ele>
        <time>2014-08-29T06:25:55Z</time>
      </trkpt>
      <trkpt lat="48.07404" lon="7.6795">
        <ele>334.2</ele>
        <time>2014-08-29T06:26:10Z</time>
      </trkpt>
      <trkpt lat="48.07414" lon="7.67955">
        <ele>336.12</ele>
        <time>2014-08-29T06:26:20Z</time>
      </trkpt>
      <trkpt lat="48.07421" lon="7.67961">
        <ele>337.56</ele>
        <time>2014-08-29T06:26:33Z</time>
      </trkpt>
      <trkpt lat="48.07451" lon="7.67974">
        <ele>339.48</ele>
        <time>2014-08-29T06:26:51Z</time>
      </trkpt>
      <trkpt lat="48.07467" lon="7.67972">
        <ele>340.44</ele>
        <time>2014-08-29T06:27:09Z</time>
      </trkpt>
      <trkpt lat="48.07469" lon="7.67971">
        <ele>340.44</ele>
        <time>2014-08-29T06:27:29Z</time>
      </trkpt>
      <trkpt lat="48.07469" lon="7.67971">
        <ele>340.44</ele>
        <time>2014-08-29T06:27:58Z</time>
      </trkpt>
      <trkpt lat="48.07478" lon="7.67972">
        <ele>341.41</ele>
        <time>2014-08-29T06:28:17Z</time>
      </trkpt>
      <trkpt lat="48.07477" lon="7.67971">
        <ele>341.41</ele>
        <time>2014-08-29T06:28:35Z</time>
      </trkpt>
      <trkpt lat="48.07476" lon="7.67971">
        <ele>341.89</ele>
        <time>2014-08-29T06:28:55Z</time>
      </trkpt>
      <trkpt lat="48.07478" lon="7.67967">
        <ele>341.89</ele>
        <time>2014-08-29T06:28:57Z</time>
      </trkpt>
      <trkpt lat="48.07474" lon="7.67939">
        <ele>342.85</ele>
        <time>2014-08-29T06:29:05Z</time>
      </trkpt>
      <trkpt lat="48.07469" lon="7.67923">
        <ele>342.85</ele>
        <time>2014-08-29T06:29:20Z</time>
      </trkpt>
      <trkpt lat="48.07468" lon="7.67922">
        <ele>342.85</ele>
        <time>2014-08-29T06:29:22Z</time>
      </trkpt>
      <trkpt lat="48.07454" lon="7.67908">
        <ele>343.33</ele>
        <time>2014-08-29T06:29:37Z</time>
      </trkpt>
      <trkpt lat="48.0745" lon="7.67898">
        <ele>345.73</ele>
        <time>2014-08-29T06:29:43Z</time>
      </trkpt>
      <trkpt lat="48.07446" lon="7.6789">
        <ele>347.17</ele>
        <time>2014-08-29T06:29:50Z</time>
      </trkpt>
      <trkpt lat="48.07441" lon="7.67865">
        <ele>351.02</ele>
        <time>2014-08-29T06:30:07Z</time>
      </trkpt>
      <trkpt lat="48.0744" lon="7.67859">
        <ele>351.98</ele>
        <time>2014-08-29T06:30:23Z</time>
      </trkpt>
      <trkpt lat="48.07439" lon="7.67857">
        <ele>352.46</ele>
        <time>2014-08-29T06:30:25Z</time>
      </trkpt>
      <trkpt lat="48.07441" lon="7.67843">
        <ele>353.42</ele>
        <time>2014-08-29T06:30:36Z</time>
      </trkpt>
      <trkpt lat="48.07443" lon="7.67829">
        <ele>353.9</ele>
        <time>2014-08-29T06:30:44Z</time>
      </trkpt>
      <trkpt lat="48.07448" lon="7.67812">
        <ele>355.34</ele>
        <time>2014-08-29T06:30:56Z</time>
      </trkpt>
      <trkpt lat="48.07449" lon="7.6781">
        <ele>355.83</ele>
        <time>2014-08-29T06:30:57Z</time>
      </trkpt>
      <trkpt lat="48.07451" lon="7.67797">
        <ele>356.31</ele>
        <time>2014-08-29T06:31:03Z</time>
      </trkpt>
      <trkpt lat="48.07454" lon="7.67793">
        <ele>356.79</ele>
        <time>2014-08-29T06:31:08Z</time>
      </trkpt>
      <trkpt lat="48.07459" lon="7.67773">
        <ele>357.27</ele>
        <time>2014-08-29T06:31:22Z</time>
      </trkpt>
      <trkpt lat="48.07463" lon="7.67752">
        <ele>358.23</ele>
        <time>2014-08-29T06:31:35Z</time>
      </trkpt>
      <trkpt lat="48.07472" lon="7.67728">
        <ele>358.71</ele>
        <time>2014-08-29T06:31:50Z</time>
      </trkpt>
      <trkpt lat="48.07481" lon="7.67708">
        <ele>359.19</ele>
        <time>2014-08-29T06:32:02Z</time>
      </trkpt>
      <trkpt lat="48.07488" lon="7.67696">
        <ele>358.71</ele>
        <time>2014-08-29T06:32:12Z</time>
      </trkpt>
      <trkpt lat="48.07499" lon="7.67695">
        <ele>358.23</ele>
        <time>2014-08-29T06:32:26Z</time>
      </trkpt>
      <trkpt lat="48.07508" lon="7.67705">
        <ele>357.27</ele>
        <time>2014-08-29T06:32:43Z</time>
      </trkpt>
      <trkpt lat="48.07507" lon="7.67706">
        <ele>357.27</ele>
        <time>2014-08-29T06:33:04Z</time>
      </trkpt>
      <trkpt lat="48.07506" lon="7.67707">
        <ele>357.75</ele>
        <time>2014-08-29T06:33:43Z</time>
      </trkpt>
      <trkpt lat="48.07514" lon="7.67712">
        <ele>358.23</ele>
        <time>2014-08-29T06:34:02Z</time>
      </trkpt>
      <trkpt lat="48.07524" lon="7.67719">
        <ele>357.75</ele>
        <time>2014-08-29T06:34:10Z</time>
      </trkpt>
      <trkpt lat="48.07538" lon="7.67722">
        <ele>358.71</ele>
        <time>2014-08-29T06:34:25Z</time>
      </trkpt>
      <trkpt lat="48.07538" lon="7.67736">
        <ele>359.67</ele>
        <time>2014-08-29T06:34:45Z</time>
      </trkpt>
      <trkpt lat="48.07541" lon="7.67747">
        <ele>360.15</ele>
        <time>2014-08-29T06:34:54Z</time>
      </trkpt>
      <trkpt lat="48.07542" lon="7.67772">
        <ele>360.15</ele>
        <time>2014-08-29T06:35:09Z</time>
      </trkpt>
      <trkpt lat="48.07539" lon="7.6776">
        <ele>360.15</ele>
        <time>2014-08-29T06:35:13Z</time>
      </trkpt>
      <trkpt lat="48.0754" lon="7.67755">
        <ele>359.67</ele>
        <time>2014-08-29T06:35:15Z</time>
      </trkpt>
      <trkpt lat="48.07537" lon="7.67729">
        <ele>359.19</ele>
        <time>2014-08-29T06:35:30Z</time>
      </trkpt>
      <trkpt lat="48.07535" lon="7.67721">
        <ele>359.19</ele>
        <time>2014-08-29T06:35:48Z</time>
      </trkpt>
      <trkpt lat="48.07534" lon="7.67734">
        <ele>359.67</ele>
        <time>2014-08-29T06:36:17Z</time>
      </trkpt>
      <trkpt lat="48.07546" lon="7.67748">
        <ele>359.19</ele>
        <time>2014-08-29T06:36:34Z</time>
      </trkpt>
      <trkpt lat="48.07552" lon="7.67747">
        <ele>359.67</ele>
        <time>2014-08-29T06:36:40Z</time>
      </trkpt>
      <trkpt lat="48.07562" lon="7.67755">
        <ele>361.11</ele>
        <time>2014-08-29T06:36:52Z</time>
      </trkpt>
      <trkpt lat="48.07581" lon="7.67768">
        <ele>361.59</ele>
        <time>2014-08-29T06:37:12Z</time>
      </trkpt>
      <trkpt lat="48.07582" lon="7.67769">
        <ele>362.07</ele>
        <time>2014-08-29T06:37:13Z</time>
      </trkpt>
      <trkpt lat="48.07599" lon="7.67777">
        <ele>363.52</ele>
        <time>2014-08-29T06:37:31Z</time>
      </trkpt>
      <trkpt lat="48.0761" lon="7.67782">
        <ele>364.96</ele>
        <time>2014-08-29T06:37:44Z</time>
      </trkpt>
      <trkpt lat="48.07624" lon="7.67793">
        <ele>367.84</ele>
        <time>2014-08-29T06:38:01Z</time>
      </trkpt>
      <trkpt lat="48.07636" lon="7.67798">
        <ele>370.24</ele>
        <time>2014-08-29T06:38:21Z</time>
      </trkpt>
      <trkpt lat="48.07645" lon="7.67813">
        <ele>371.69</ele>
        <time>2014-08-29T06:38:32Z</time>
      </trkpt>
      <trkpt lat="48.07653" lon="7.67812">
        <ele>373.61</ele>
        <time>2014-08-29T06:38:47Z</time>
      </trkpt>
      <trkpt lat="48.07675" lon="7.67802">
        <ele>376.01</ele>
        <time>2014-08-29T06:39:04Z</time>
      </trkpt>
      <trkpt lat="48.07678" lon="7.67802">
        <ele>377.45</ele>
        <time>2014-08-29T06:39:09Z</time>
      </trkpt>
      <trkpt lat="48.07696" lon="7.67802">
        <ele>380.34</ele>
        <time>2014-08-29T06:39:26Z</time>
      </trkpt>
      <trkpt lat="48.07704" lon="7.67804">
        <ele>382.26</ele>
        <time>2014-08-29T06:39:45Z</time>
      </trkpt>
      <trkpt lat="48.07717" lon="7.6781">
        <ele>385.15</ele>
        <time>2014-08-29T06:40:02Z</time>
      </trkpt>
      <trkpt lat="48.07739" lon="7.67819">
        <ele>387.07</ele>
        <time>2014-08-29T06:40:18Z</time>
      </trkpt>
      <trkpt lat="48.07741" lon="7.67818">
        <ele>387.07</ele>
        <time>2014-08-29T06:40:20Z</time>
      </trkpt>
      <trkpt lat="48.07761" lon="7.67821">
        <ele>389.47</ele>
        <time>2014-08-29T06:40:36Z</time>
      </trkpt>
      <trkpt lat="48.07776" lon="7.67824">
        <ele>392.84</ele>
        <time>2014-08-29T06:40:55Z</time>
      </trkpt>
      <trkpt lat="48.07788" lon="7.67822">
        <ele>395.72</ele>
        <time>2014-08-29T06:41:11Z</time>
      </trkpt>
      <trkpt lat="48.07798" lon="7.67821">
        <ele>398.6</ele>
        <time>2014-08-29T06:41:27Z</time>
      </trkpt>
      <trkpt lat="48.07802" lon="7.67823">
        <ele>398.6</ele>
        <time>2014-08-29T06:41:29Z</time>
      </trkpt>
      <trkpt lat="48.07828" lon="7.67847">
        <ele>401.01</ele>
        <time>2014-08-29T06:41:45Z</time>
      </trkpt>
      <trkpt lat="48.07836" lon="7.67862">
        <ele>401.97</ele>
        <time>2014-08-29T06:42:02Z</time>
      </trkpt>
      <trkpt lat="48.07861" lon="7.67883">
        <ele>402.93</ele>
        <time>2014-08-29T06:42:22Z</time>
      </trkpt>
      <trkpt lat="48.07867" lon="7.67914">
        <ele>403.41</ele>
        <time>2014-08-29T06:42:41Z</time>
      </trkpt>
      <trkpt lat="48.07884" lon="7.67936">
        <ele>403.89</ele>
        <time>2014-08-29T06:42:57Z</time>
      </trkpt>
      <trkpt lat="48.07903" lon="7.67956">
        <ele>404.37</ele>
        <time>2014-08-29T06:43:15Z</time>
      </trkpt>
      <trkpt lat="48.07917" lon="7.67978">
        <ele>404.85</ele>
        <time>2014-08-29T06:43:31Z</time>
      </trkpt>
      <trkpt lat="48.07935" lon="7.68005">
        <ele>404.37</ele>
        <time>2014-08-29T06:43:47Z</time>
      </trkpt>
      <trkpt lat="48.07941" lon="7.6801">
        <ele>404.85</ele>
        <time>2014-08-29T06:43:52Z</time>
      </trkpt>
      <trkpt lat="48.07955" lon="7.68016">
        <ele>405.33</ele>
        <time>2014-08-29T06:44:10Z</time>
      </trkpt>
      <trkpt lat="48.07974" lon="7.68021">
        <ele>406.29</ele>
        <time>2014-08-29T06:44:25Z</time>
      </trkpt>
      <trkpt lat="48.07999" lon="7.67999">
        <ele>406.77</ele>
        <time>2014-08-29T06:44:45Z</time>
      </trkpt>
      <trkpt lat="48.08024" lon="7.67988">
        <ele>408.22</ele>
        <time>2014-08-29T06:45:06Z</time>
      </trkpt>
      <trkpt lat="48.08043" lon="7.67967">
        <ele>409.18</ele>
        <time>2014-08-29T06:45:25Z</time>
      </trkpt>
      <trkpt lat="48.08047" lon="7.67959">
        <ele>410.14</ele>
        <time>2014-08-29T06:45:43Z</time>
      </trkpt>
      <trkpt lat="48.08056" lon="7.67963">
        <ele>410.14</ele>
        <time>2014-08-29T06:46:01Z</time>
      </trkpt>
      <trkpt lat="48.08086" lon="7.6798">
        <ele>411.1</ele>
        <time>2014-08-29T06:46:17Z</time>
      </trkpt>
      <trkpt lat="48.0809" lon="7.67984">
        <ele>411.58</ele>
        <time>2014-08-29T06:46:21Z</time>
      </trkpt>
      <trkpt lat="48.08095" lon="7.68001">
        <ele>411.58</ele>
        <time>2014-08-29T06:46:28Z</time>
      </trkpt>
      <trkpt lat="48.08099" lon="7.68031">
        <ele>412.54</ele>
        <time>2014-08-29T06:46:44Z</time>
      </trkpt>
      <trkpt lat="48.081" lon="7.68034">
        <ele>412.06</ele>
        <time>2014-08-29T06:46:46Z</time>
      </trkpt>
      <trkpt lat="48.08108" lon="7.68062">
        <ele>413.02</ele>
        <time>2014-08-29T06:46:59Z</time>
      </trkpt>
      <trkpt lat="48.08112" lon="7.68087">
        <ele>413.02</ele>
        <time>2014-08-29T06:47:12Z</time>
      </trkpt>
      <trkpt lat="48.08117" lon="7.68109">
        <ele>413.02</ele>
        <time>2014-08-29T06:47:24Z</time>
      </trkpt>
      <trkpt lat="48.08122" lon="7.68132">
        <ele>413.02</ele>
        <time>2014-08-29T06:47:39Z</time>
      </trkpt>
      <trkpt lat="48.08128" lon="7.68156">
        <ele>412.06</ele>
        <time>2014-08-29T06:47:56Z</time>
      </trkpt>
      <trkpt lat="48.08133" lon="7.68163">
        <ele>412.06</ele>
        <time>2014-08-29T06:48:03Z</time>
      </trkpt>
      <trkpt lat="48.08169" lon="7.68191">
        <ele>411.58</ele>
        <time>2014-08-29T06:48:23Z</time>
      </trkpt>
      <trkpt lat="48.08182" lon="7.68214">
        <ele>410.62</ele>
        <time>2014-08-29T06:48:39Z</time>
      </trkpt>
      <trkpt lat="48.08202" lon="7.68211">
        <ele>410.62</ele>
        <time>2014-08-29T06:48:56Z</time>
      </trkpt>
      <trkpt lat="48.08219" lon="7.68207">
        <ele>411.1</ele>
        <time>2014-08-29T06:49:14Z</time>
      </trkpt>
      <trkpt lat="48.08229" lon="7.68208">
        <ele>411.58</ele>
        <time>2014-08-29T06:49:33Z</time>
      </trkpt>
      <trkpt lat="48.08239" lon="7.6823">
        <ele>412.06</ele>
        <time>2014-08-29T06:49:52Z</time>
      </trkpt>
      <trkpt lat="48.08266" lon="7.68265">
        <ele>413.02</ele>
        <time>2014-08-29T06:50:12Z</time>
      </trkpt>
      <trkpt lat="48.08274" lon="7.68276">
        <ele>413.98</ele>
        <time>2014-08-29T06:50:26Z</time>
      </trkpt>
      <trkpt lat="48.08278" lon="7.68277">
        <ele>414.47</ele>
        <time>2014-08-29T06:50:33Z</time>
      </trkpt>
      <trkpt lat="48.08283" lon="7.68279">
        <ele>413.98</ele>
        <time>2014-08-29T06:50:38Z</time>
      </trkpt>
      <trkpt lat="48.083" lon="7.68286">
        <ele>414.95</ele>
        <time>2014-08-29T06:50:55Z</time>
      </trkpt>
      <trkpt lat="48.08313" lon="7.68309">
        <ele>415.91</ele>
        <time>2014-08-29T06:51:11Z</time>
      </trkpt>
      <trkpt lat="48.08316" lon="7.68339">
        <ele>416.87</ele>
        <time>2014-08-29T06:51:27Z</time>
      </trkpt>
      <trkpt lat="48.08316" lon="7.68344">
        <ele>417.35</ele>
        <time>2014-08-29T06:51:30Z</time>
      </trkpt>
      <trkpt lat="48.08315" lon="7.68374">
        <ele>417.35</ele>
        <time>2014-08-29T06:51:45Z</time>
      </trkpt>
      <trkpt lat="48.08311" lon="7.68404">
        <ele>418.79</ele>
        <time>2014-08-29T06:52:02Z</time>
      </trkpt>
      <trkpt lat="48.0831" lon="7.68427">
        <ele>419.27</ele>
        <time>2014-08-29T06:52:14Z</time>
      </trkpt>
      <trkpt lat="48.08311" lon="7.68461">
        <ele>421.19</ele>
        <time>2014-08-29T06:52:30Z</time>
      </trkpt>
      <trkpt lat="48.08313" lon="7.68483">
        <ele>421.68</ele>
        <time>2014-08-29T06:52:43Z</time>
      </trkpt>
      <trkpt lat="48.08315" lon="7.68505">
        <ele>422.64</ele>
        <time>2014-08-29T06:52:57Z</time>
      </trkpt>
      <trkpt lat="48.08312" lon="7.68534">
        <ele>422.64</ele>
        <time>2014-08-29T06:53:09Z</time>
      </trkpt>
      <trkpt lat="48.08312" lon="7.68559">
        <ele>423.12</ele>
        <time>2014-08-29T06:53:20Z</time>
      </trkpt>
      <trkpt lat="48.08309" lon="7.68585">
        <ele>424.56</ele>
        <time>2014-08-29T06:53:34Z</time>
      </trkpt>
      <trkpt lat="48.08315" lon="7.68607">
        <ele>425.52</ele>
        <time>2014-08-29T06:53:48Z</time>
      </trkpt>
      <trkpt lat="48.08314" lon="7.68626">
        <ele>424.56</ele>
        <time>2014-08-29T06:54:09Z</time>
      </trkpt>
      <trkpt lat="48.08314" lon="7.68626">
        <ele>425.04</ele>
        <time>2014-08-29T06:54:45Z</time>
      </trkpt>
      <trkpt lat="48.08317" lon="7.68627">
        <ele>424.56</ele>
        <time>2014-08-29T06:55:25Z</time>
      </trkpt>
      <trkpt lat="48.0832" lon="7.68622">
        <ele>424.56</ele>
        <time>2014-08-29T06:55:47Z</time>
      </trkpt>
      <trkpt lat="48.08297" lon="7.68625">
        <ele>423.12</ele>
        <time>2014-08-29T06:56:02Z</time>
      </trkpt>
      <trkpt lat="48.08281" lon="7.6863">
        <ele>422.16</ele>
        <time>2014-08-29T06:56:18Z</time>
      </trkpt>
      <trkpt lat="48.08287" lon="7.68628">
        <ele>422.64</ele>
        <time>2014-08-29T06:56:25Z</time>
      </trkpt>
      <trkpt lat="48.08304" lon="7.68628">
        <ele>424.08</ele>
        <time>2014-08-29T06:56:41Z</time>
      </trkpt>
      <trkpt lat="48.08316" lon="7.68615">
        <ele>425.04</ele>
        <time>2014-08-29T06:56:55Z</time>
      </trkpt>
      <trkpt lat="48.08316" lon="7.68599">
        <ele>424.56</ele>
        <time>2014-08-29T06:57:11Z</time>
      </trkpt>
      <trkpt lat="48.08323" lon="7.68616">
        <ele>425.04</ele>
        <time>2014-08-29T06:57:34Z</time>
      </trkpt>
      <trkpt lat="48.08322" lon="7.6862">
        <ele>424.56</ele>
        <time>2014-08-29T06:57:53Z</time>
      </trkpt>
      <trkpt lat="48.08338" lon="7.68622">
        <ele>424.56</ele>
        <time>2014-08-29T06:58:20Z</time>
      </trkpt>
      <trkpt lat="48.08348" lon="7.68626">
        <ele>423.12</ele>
        <time>2014-08-29T06:58:28Z</time>
      </trkpt>
      <trkpt lat="48.08353" lon="7.68625">
        <ele>422.64</ele>
        <time>2014-08-29T06:58:36Z</time>
      </trkpt>
      <trkpt lat="48.08366" lon="7.68623">
        <ele>421.19</ele>
        <time>2014-08-29T06:58:50Z</time>
      </trkpt>
      <trkpt lat="48.0838" lon="7.68623">
        <ele>420.23</ele>
        <time>2014-08-29T06:59:01Z</time>
      </trkpt>
      <trkpt lat="48.08391" lon="7.6862">
        <ele>419.27</ele>
        <time>2014-08-29T06:59:17Z</time>
      </trkpt>
      <trkpt lat="48.08412" lon="7.68632">
        <ele>418.79</ele>
        <time>2014-08-29T06:59:33Z</time>
      </trkpt>
      <trkpt lat="48.08429" lon="7.68648">
        <ele>419.27</ele>
        <time>2014-08-29T06:59:49Z</time>
      </trkpt>
      <trkpt lat="48.08445" lon="7.68662">
        <ele>420.71</ele>
        <time>2014-08-29T07:00:04Z</time>
      </trkpt>
      <trkpt lat="48.08451" lon="7.68672">
        <ele>420.71</ele>
        <time>2014-08-29T07:00:10Z</time>
      </trkpt>
      <trkpt lat="48.08458" lon="7.68688">
        <ele>421.19</ele>
        <time>2014-08-29T07:00:19Z</time>
      </trkpt>
      <trkpt lat="48.0848" lon="7.68716">
        <ele>421.19</ele>
        <time>2014-08-29T07:00:38Z</time>
      </trkpt>
      <trkpt lat="48.08496" lon="7.68755">
        <ele>419.75</ele>
        <time>2014-08-29T07:00:58Z</time>
      </trkpt>
      <trkpt lat="48.08509" lon="7.68771">
        <ele>417.35</ele>
        <time>2014-08-29T07:01:13Z</time>
      </trkpt>
      <trkpt lat="48.08512" lon="7.68776">
        <ele>417.83</ele>
        <time>2014-08-29T07:01:17Z</time>
      </trkpt>
      <trkpt lat="48.08523" lon="7.68794">
        <ele>415.91</ele>
        <time>2014-08-29T07:01:35Z</time>
      </trkpt>
      <trkpt lat="48.08521" lon="7.68797">
        <ele>415.91</ele>
        <time>2014-08-29T07:02:14Z</time>
      </trkpt>
      <trkpt lat="48.08524" lon="7.68797">
        <ele>415.91</ele>
        <time>2014-08-29T07:02:34Z</time>
      </trkpt>
      <trkpt lat="48.08511" lon="7.68792">
        <ele>415.91</ele>
        <time>2014-08-29T07:02:55Z</time>
      </trkpt>
      <trkpt lat="48.08529" lon="7.68812">
        <ele>413.98</ele>
        <time>2014-08-29T07:03:11Z</time>
      </trkpt>
      <trkpt lat="48.08551" lon="7.68845">
        <ele>413.02</ele>
        <time>2014-08-29T07:03:29Z</time>
      </trkpt>
      <trkpt lat="48.08559" lon="7.68856">
        <ele>413.02</ele>
        <time>2014-08-29T07:03:42Z</time>
      </trkpt>
      <trkpt lat="48.08555" lon="7.68856">
        <ele>413.5</ele>
        <time>2014-08-29T07:04:02Z</time>
      </trkpt>
      <trkpt lat="48.08554" lon="7.68854">
        <ele>413.02</ele>
        <time>2014-08-29T07:04:24Z</time>
      </trkpt>
      <trkpt lat="48.08555" lon="7.68851">
        <ele>412.54</ele>
        <time>2014-08-29T07:04:38Z</time>
      </trkpt>
      <trkpt lat="48.08558" lon="7.68857">
        <ele>412.54</ele>
        <time>2014-08-29T07:04:58Z</time>
      </trkpt>
      <trkpt lat="48.08555" lon="7.68853">
        <ele>412.54</ele>
        <time>2014-08-29T07:05:17Z</time>
      </trkpt>
      <trkpt lat="48.08558" lon="7.68851">
        <ele>412.06</ele>
        <time>2014-08-29T07:05:30Z</time>
      </trkpt>
      <trkpt lat="48.08556" lon="7.68852">
        <ele>413.02</ele>
        <time>2014-08-29T07:05:49Z</time>
      </trkpt>
      <trkpt lat="48.08556" lon="7.68854">
        <ele>412.54</ele>
        <time>2014-08-29T07:06:00Z</time>
      </trkpt>
      <trkpt lat="48.08557" lon="7.68852">
        <ele>412.54</ele>
        <time>2014-08-29T07:06:12Z</time>
      </trkpt>
      <trkpt lat="48.08558" lon="7.68853">
        <ele>412.54</ele>
        <time>2014-08-29T07:06:30Z</time>
      </trkpt>
      <trkpt lat="48.08556" lon="7.68855">
        <ele>412.54</ele>
        <time>2014-08-29T07:06:48Z</time>
      </trkpt>
      <trkpt lat="48.08556" lon="7.68858">
        <ele>412.06</ele>
        <time>2014-08-29T07:07:06Z</time>
      </trkpt>
      <trkpt lat="48.08557" lon="7.68858">
        <ele>412.06</ele>
        <time>2014-08-29T07:07:23Z</time>
      </trkpt>
      <trkpt lat="48.08558" lon="7.68856">
        <ele>412.06</ele>
        <time>2014-08-29T07:07:42Z</time>
      </trkpt>
      <trkpt lat="48.0856" lon="7.68849">
        <ele>412.06</ele>
        <time>2014-08-29T07:08:02Z</time>
      </trkpt>
      <trkpt lat="48.0856" lon="7.68848">
        <ele>411.58</ele>
        <time>2014-08-29T07:08:18Z</time>
      </trkpt>
      <trkpt lat="48.08558" lon="7.68848">
        <ele>412.06</ele>
        <time>2014-08-29T07:08:35Z</time>
      </trkpt>
      <trkpt lat="48.08559" lon="7.68842">
        <ele>411.58</ele>
        <time>2014-08-29T07:09:30Z</time>
      </trkpt>
      <trkpt lat="48.08558" lon="7.68845">
        <ele>411.58</ele>
        <time>2014-08-29T07:12:08Z</time>
      </trkpt>
      <trkpt lat="48.08557" lon="7.68846">
        <ele>409.18</ele>
        <time>2014-08-29T07:12:16Z</time>
      </trkpt>
      <trkpt lat="48.08557" lon="7.68846">
        <ele>412.54</ele>
        <time>2014-08-29T07:12:19Z</time>
      </trkpt>
      <trkpt lat="48.08557" lon="7.68846">
        <ele>408.7</ele>
        <time>2014-08-29T07:12:22Z</time>
      </trkpt>
      <trkpt lat="48.08557" lon="7.68846">
        <ele>411.58</ele>
        <time>2014-08-29T07:12:23Z</time>
      </trkpt>
      <trkpt lat="48.08557" lon="7.68846">
        <ele>410.14</ele>
        <time>2014-08-29T07:12:26Z</time>
      </trkpt>
      <trkpt lat="48.08558" lon="7.68846">
        <ele>413.5</ele>
        <time>2014-08-29T07:12:35Z</time>
      </trkpt>
      <trkpt lat="48.08558" lon="7.68848">
        <ele>406.77</ele>
        <time>2014-08-29T07:12:37Z</time>
      </trkpt>
      <trkpt lat="48.08558" lon="7.68849">
        <ele>409.18</ele>
        <time>2014-08-29T07:12:38Z</time>
      </trkpt>
      <trkpt lat="48.08558" lon="7.68851">
        <ele>411.1</ele>
        <time>2014-08-29T07:12:40Z</time>
      </trkpt>
      <trkpt lat="48.08558" lon="7.68854">
        <ele>414.47</ele>
        <time>2014-08-29T07:12:42Z</time>
      </trkpt>
      <trkpt lat="48.08558" lon="7.68859">
        <ele>408.7</ele>
        <time>2014-08-29T07:12:45Z</time>
      </trkpt>
      <trkpt lat="48.08558" lon="7.6886">
        <ele>410.14</ele>
        <time>2014-08-29T07:12:46Z</time>
      </trkpt>
      <trkpt lat="48.08558" lon="7.68862">
        <ele>413.02</ele>
        <time>2014-08-29T07:12:48Z</time>
      </trkpt>
      <trkpt lat="48.08558" lon="7.68863">
        <ele>408.22</ele>
        <time>2014-08-29T07:12:49Z</time>
      </trkpt>
      <trkpt lat="48.08558" lon="7.68864">
        <ele>416.39</ele>
        <time>2014-08-29T07:12:50Z</time>
      </trkpt>
      <trkpt lat="48.08558" lon="7.68864">
        <ele>409.18</ele>
        <time>2014-08-29T07:12:51Z</time>
      </trkpt>
      <trkpt lat="48.08558" lon="7.68865">
        <ele>415.43</ele>
        <time>2014-08-29T07:12:52Z</time>
      </trkpt>
      <trkpt lat="48.08558" lon="7.68866">
        <ele>410.14</ele>
        <time>2014-08-29T07:12:53Z</time>
      </trkpt>
      <trkpt lat="48.08557" lon="7.68868">
        <ele>406.29</ele>
        <time>2014-08-29T07:12:55Z</time>
      </trkpt>
      <trkpt lat="48.08557" lon="7.68868">
        <ele>412.54</ele>
        <time>2014-08-29T07:12:56Z</time>
      </trkpt>
      <trkpt lat="48.08557" lon="7.68869">
        <ele>412.06</ele>
        <time>2014-08-29T07:12:57Z</time>
      </trkpt>
      <trkpt lat="48.08557" lon="7.68869">
        <ele>408.7</ele>
        <time>2014-08-29T07:12:59Z</time>
      </trkpt>
      <trkpt lat="48.08557" lon="7.68869">
        <ele>411.58</ele>
        <time>2014-08-29T07:13:00Z</time>
      </trkpt>
      <trkpt lat="48.08557" lon="7.68869">
        <ele>408.7</ele>
        <time>2014-08-29T07:13:10Z</time>
      </trkpt>
      <trkpt lat="48.08557" lon="7.6887">
        <ele>413.02</ele>
        <time>2014-08-29T07:13:12Z</time>
      </trkpt>
      <trkpt lat="48.08557" lon="7.6887">
        <ele>412.06</ele>
        <time>2014-08-29T07:13:13Z</time>
      </trkpt>
      <trkpt lat="48.08557" lon="7.6887">
        <ele>411.58</ele>
        <time>2014-08-29T07:13:15Z</time>
      </trkpt>
      <trkpt lat="48.08557" lon="7.6887">
        <ele>405.81</ele>
        <time>2014-08-29T07:13:39Z</time>
      </trkpt>
      <trkpt lat="48.08557" lon="7.6887">
        <ele>412.54</ele>
        <time>2014-08-29T07:13:40Z</time>
      </trkpt>
      <trkpt lat="48.08558" lon="7.68869">
        <ele>408.22</ele>
        <time>2014-08-29T07:13:41Z</time>
      </trkpt>
      <trkpt lat="48.08561" lon="7.68866">
        <ele>411.58</ele>
        <time>2014-08-29T07:13:44Z</time>
      </trkpt>
      <trkpt lat="48.08561" lon="7.68854">
        <ele>414.47</ele>
        <time>2014-08-29T07:13:53Z</time>
      </trkpt>
      <trkpt lat="48.08561" lon="7.68853">
        <ele>408.22</ele>
        <time>2014-08-29T07:13:54Z</time>
      </trkpt>
      <trkpt lat="48.08562" lon="7.68852">
        <ele>413.98</ele>
        <time>2014-08-29T07:13:56Z</time>
      </trkpt>
      <trkpt lat="48.08562" lon="7.68851">
        <ele>409.66</ele>
        <time>2014-08-29T07:13:57Z</time>
      </trkpt>
      <trkpt lat="48.08563" lon="7.68852">
        <ele>409.18</ele>
        <time>2014-08-29T07:13:59Z</time>
      </trkpt>
      <trkpt lat="48.08564" lon="7.68852">
        <ele>410.62</ele>
        <time>2014-08-29T07:14:01Z</time>
      </trkpt>
      <trkpt lat="48.08564" lon="7.68852">
        <ele>413.98</ele>
        <time>2014-08-29T07:14:02Z</time>
      </trkpt>
      <trkpt lat="48.08565" lon="7.68852">
        <ele>407.74</ele>
        <time>2014-08-29T07:14:03Z</time>
      </trkpt>
      <trkpt lat="48.08566" lon="7.68853">
        <ele>408.22</ele>
        <time>2014-08-29T07:14:04Z</time>
      </trkpt>
      <trkpt lat="48.08568" lon="7.68855">
        <ele>412.54</ele>
        <time>2014-08-29T07:14:07Z</time>
      </trkpt>
      <trkpt lat="48.08568" lon="7.68856">
        <ele>409.18</ele>
        <time>2014-08-29T07:14:08Z</time>
      </trkpt>
      <trkpt lat="48.08568" lon="7.68856">
        <ele>413.02</ele>
        <time>2014-08-29T07:14:09Z</time>
      </trkpt>
      <trkpt lat="48.08568" lon="7.68856">
        <ele>409.66</ele>
        <time>2014-08-29T07:14:10Z</time>
      </trkpt>
      <trkpt lat="48.08568" lon="7.68856">
        <ele>409.18</ele>
        <time>2014-08-29T07:14:14Z</time>
      </trkpt>
      <trkpt lat="48.08568" lon="7.68856">
        <ele>408.7</ele>
        <time>2014-08-29T07:14:21Z</time>
      </trkpt>
      <trkpt lat="48.08567" lon="7.68855">
        <ele>412.54</ele>
        <time>2014-08-29T07:15:07Z</time>
      </trkpt>
      <trkpt lat="48.08567" lon="7.68855">
        <ele>409.18</ele>
        <time>2014-08-29T07:15:08Z</time>
      </trkpt>
      <trkpt lat="48.08567" lon="7.68855">
        <ele>412.54</ele>
        <time>2014-08-29T07:15:13Z</time>
      </trkpt>
      <trkpt lat="48.08567" lon="7.68856">
        <ele>408.22</ele>
        <time>2014-08-29T07:15:14Z</time>
      </trkpt>
      <trkpt lat="48.08567" lon="7.68858">
        <ele>410.14</ele>
        <time>2014-08-29T07:15:15Z</time>
      </trkpt>
      <trkpt lat="48.08568" lon="7.68861">
        <ele>405.81</ele>
        <time>2014-08-29T07:15:18Z</time>
      </trkpt>
      <trkpt lat="48.08568" lon="7.68861">
        <ele>410.62</ele>
        <time>2014-08-29T07:15:20Z</time>
      </trkpt>
      <trkpt lat="48.08568" lon="7.68861">
        <ele>405.81</ele>
        <time>2014-08-29T07:15:31Z</time>
      </trkpt>
      <trkpt lat="48.08568" lon="7.68861">
        <ele>409.18</ele>
        <time>2014-08-29T07:15:33Z</time>
      </trkpt>
      <trkpt lat="48.08566" lon="7.6886">
        <ele>405.33</ele>
        <time>2014-08-29T07:15:36Z</time>
      </trkpt>
      <trkpt lat="48.08566" lon="7.68859">
        <ele>405.81</ele>
        <time>2014-08-29T07:15:37Z</time>
      </trkpt>
      <trkpt lat="48.08565" lon="7.68858">
        <ele>410.62</ele>
        <time>2014-08-29T07:15:38Z</time>
      </trkpt>
      <trkpt lat="48.08564" lon="7.68857">
        <ele>406.29</ele>
        <time>2014-08-29T07:15:39Z</time>
      </trkpt>
      <trkpt lat="48.08563" lon="7.68857">
        <ele>411.1</ele>
        <time>2014-08-29T07:15:40Z</time>
      </trkpt>
      <trkpt lat="48.08562" lon="7.68854">
        <ele>407.74</ele>
        <time>2014-08-29T07:15:43Z</time>
      </trkpt>
      <trkpt lat="48.08561" lon="7.68854">
        <ele>411.58</ele>
        <time>2014-08-29T07:15:44Z</time>
      </trkpt>
      <trkpt lat="48.08561" lon="7.68851">
        <ele>406.29</ele>
        <time>2014-08-29T07:15:59Z</time>
      </trkpt>
      <trkpt lat="48.0856" lon="7.68852">
        <ele>412.06</ele>
        <time>2014-08-29T07:16:02Z</time>
      </trkpt>
      <trkpt lat="48.08559" lon="7.68853">
        <ele>411.1</ele>
        <time>2014-08-29T07:16:03Z</time>
      </trkpt>
      <trkpt lat="48.08559" lon="7.68854">
        <ele>414.47</ele>
        <time>2014-08-29T07:16:04Z</time>
      </trkpt>
      <trkpt lat="48.08558" lon="7.68855">
        <ele>409.66</ele>
        <time>2014-08-29T07:16:05Z</time>
      </trkpt>
      <trkpt lat="48.08557" lon="7.68859">
        <ele>409.18</ele>
        <time>2014-08-29T07:16:24Z</time>
      </trkpt>
      <trkpt lat="48.08557" lon="7.68859">
        <ele>414.95</ele>
        <time>2014-08-29T07:16:36Z</time>
      </trkpt>
      <trkpt lat="48.08558" lon="7.68858">
        <ele>405.81</ele>
        <time>2014-08-29T07:16:37Z</time>
      </trkpt>
      <trkpt lat="48.08559" lon="7.68858">
        <ele>412.06</ele>
        <time>2014-08-29T07:16:38Z</time>
      </trkpt>
      <trkpt lat="48.08561" lon="7.68858">
        <ele>407.26</ele>
        <time>2014-08-29T07:16:39Z</time>
      </trkpt>
      <trkpt lat="48.08562" lon="7.68858">
        <ele>412.06</ele>
        <time>2014-08-29T07:16:40Z</time>
      </trkpt>
      <trkpt lat="48.08565" lon="7.68858">
        <ele>407.26</ele>
        <time>2014-08-29T07:16:43Z</time>
      </trkpt>
      <trkpt lat="48.08565" lon="7.68858">
        <ele>411.1</ele>
        <time>2014-08-29T07:16:44Z</time>
      </trkpt>
      <trkpt lat="48.08565" lon="7.68858">
        <ele>407.26</ele>
        <time>2014-08-29T07:16:50Z</time>
      </trkpt>
      <trkpt lat="48.08565" lon="7.68858">
        <ele>411.58</ele>
        <time>2014-08-29T07:16:51Z</time>
      </trkpt>
      <trkpt lat="48.08565" lon="7.68858">
        <ele>406.77</ele>
        <time>2014-08-29T07:16:52Z</time>
      </trkpt>
      <trkpt lat="48.08565" lon="7.68858">
        <ele>409.66</ele>
        <time>2014-08-29T07:16:53Z</time>
      </trkpt>
      <trkpt lat="48.08566" lon="7.68858">
        <ele>413.5</ele>
        <time>2014-08-29T07:16:54Z</time>
      </trkpt>
      <trkpt lat="48.08566" lon="7.68859">
        <ele>407.26</ele>
        <time>2014-08-29T07:16:55Z</time>
      </trkpt>
      <trkpt lat="48.08567" lon="7.68859">
        <ele>413.5</ele>
        <time>2014-08-29T07:16:56Z</time>
      </trkpt>
      <trkpt lat="48.08567" lon="7.6886">
        <ele>408.22</ele>
        <time>2014-08-29T07:16:57Z</time>
      </trkpt>
      <trkpt lat="48.08568" lon="7.6886">
        <ele>409.66</ele>
        <time>2014-08-29T07:17:00Z</time>
      </trkpt>
      <trkpt lat="48.08568" lon="7.6886">
        <ele>407.74</ele>
        <time>2014-08-29T07:17:04Z</time>
      </trkpt>
      <trkpt lat="48.08568" lon="7.6886">
        <ele>411.58</ele>
        <time>2014-08-29T07:17:29Z</time>
      </trkpt>
      <trkpt lat="48.08568" lon="7.6886">
        <ele>408.7</ele>
        <time>2014-08-29T07:17:32Z</time>
      </trkpt>
      <trkpt lat="48.08568" lon="7.6886">
        <ele>411.1</ele>
        <time>2014-08-29T07:17:35Z</time>
      </trkpt>
      <trkpt lat="48.08568" lon="7.6886">
        <ele>409.18</ele>
        <time>2014-08-29T07:17:37Z</time>
      </trkpt>
      <trkpt lat="48.08569" lon="7.68858">
        <ele>404.37</ele>
        <time>2014-08-29T07:17:46Z</time>
      </trkpt>
      <trkpt lat="48.08569" lon="7.68857">
        <ele>410.62</ele>
        <time>2014-08-29T07:17:47Z</time>
      </trkpt>
      <trkpt lat="48.0857" lon="7.68854">
        <ele>409.66</ele>
        <time>2014-08-29T07:17:50Z</time>
      </trkpt>
      <trkpt lat="48.0857" lon="7.68854">
        <ele>405.81</ele>
        <time>2014-08-29T07:17:52Z</time>
      </trkpt>
      <trkpt lat="48.0857" lon="7.68856">
        <ele>411.58</ele>
        <time>2014-08-29T07:17:53Z</time>
      </trkpt>
      <trkpt lat="48.0857" lon="7.68857">
        <ele>406.29</ele>
        <time>2014-08-29T07:17:54Z</time>
      </trkpt>
      <trkpt lat="48.0857" lon="7.68859">
        <ele>409.66</ele>
        <time>2014-08-29T07:17:55Z</time>
      </trkpt>
      <trkpt lat="48.0857" lon="7.68855">
        <ele>405.33</ele>
        <time>2014-08-29T07:18:04Z</time>
      </trkpt>
      <trkpt lat="48.0857" lon="7.68854">
        <ele>408.22</ele>
        <time>2014-08-29T07:18:05Z</time>
      </trkpt>
      <trkpt lat="48.0857" lon="7.68853">
        <ele>413.5</ele>
        <time>2014-08-29T07:18:06Z</time>
      </trkpt>
      <trkpt lat="48.0857" lon="7.68853">
        <ele>410.14</ele>
        <time>2014-08-29T07:18:07Z</time>
      </trkpt>
      <trkpt lat="48.08571" lon="7.68852">
        <ele>406.29</ele>
        <time>2014-08-29T07:18:14Z</time>
      </trkpt>
      <trkpt lat="48.0857" lon="7.68853">
        <ele>412.54</ele>
        <time>2014-08-29T07:18:16Z</time>
      </trkpt>
      <trkpt lat="48.0857" lon="7.68853">
        <ele>411.58</ele>
        <time>2014-08-29T07:18:17Z</time>
      </trkpt>
      <trkpt lat="48.0857" lon="7.68854">
        <ele>409.18</ele>
        <time>2014-08-29T07:18:19Z</time>
      </trkpt>
      <trkpt lat="48.08571" lon="7.68853">
        <ele>412.54</ele>
        <time>2014-08-29T07:18:29Z</time>
      </trkpt>
      <trkpt lat="48.08571" lon="7.68852">
        <ele>412.54</ele>
        <time>2014-08-29T07:18:30Z</time>
      </trkpt>
      <trkpt lat="48.08571" lon="7.68851">
        <ele>405.33</ele>
        <time>2014-08-29T07:18:31Z</time>
      </trkpt>
      <trkpt lat="48.08572" lon="7.68849">
        <ele>411.1</ele>
        <time>2014-08-29T07:18:32Z</time>
      </trkpt>
      <trkpt lat="48.08572" lon="7.68846">
        <ele>409.66</ele>
        <time>2014-08-29T07:18:34Z</time>
      </trkpt>
      <trkpt lat="48.08572" lon="7.68841">
        <ele>403.89</ele>
        <time>2014-08-29T07:18:37Z</time>
      </trkpt>
      <trkpt lat="48.08572" lon="7.68839">
        <ele>411.1</ele>
        <time>2014-08-29T07:18:38Z</time>
      </trkpt>
      <trkpt lat="48.08573" lon="7.68836">
        <ele>406.77</ele>
        <time>2014-08-29T07:18:40Z</time>
      </trkpt>
      <trkpt lat="48.08574" lon="7.68835">
        <ele>410.62</ele>
        <time>2014-08-29T07:18:41Z</time>
      </trkpt>
      <trkpt lat="48.08575" lon="7.68831">
        <ele>416.39</ele>
        <time>2014-08-29T07:18:45Z</time>
      </trkpt>
      <trkpt lat="48.08576" lon="7.68829">
        <ele>405.81</ele>
        <time>2014-08-29T07:18:46Z</time>
      </trkpt>
      <trkpt lat="48.08577" lon="7.68828">
        <ele>412.06</ele>
        <time>2014-08-29T07:18:47Z</time>
      </trkpt>
      <trkpt lat="48.08578" lon="7.68819">
        <ele>406.77</ele>
        <time>2014-08-29T07:18:52Z</time>
      </trkpt>
      <trkpt lat="48.08578" lon="7.68817">
        <ele>411.1</ele>
        <time>2014-08-29T07:18:53Z</time>
      </trkpt>
      <trkpt lat="48.08578" lon="7.68814">
        <ele>415.43</ele>
        <time>2014-08-29T07:18:55Z</time>
      </trkpt>
      <trkpt lat="48.08579" lon="7.68807">
        <ele>409.18</ele>
        <time>2014-08-29T07:18:59Z</time>
      </trkpt>
      <trkpt lat="48.0858" lon="7.68805">
        <ele>413.98</ele>
        <time>2014-08-29T07:19:00Z</time>
      </trkpt>
      <trkpt lat="48.0858" lon="7.68802">
        <ele>409.66</ele>
        <time>2014-08-29T07:19:02Z</time>
      </trkpt>
      <trkpt lat="48.0858" lon="7.688">
        <ele>413.02</ele>
        <time>2014-08-29T07:19:03Z</time>
      </trkpt>
      <trkpt lat="48.0858" lon="7.68796">
        <ele>409.66</ele>
        <time>2014-08-29T07:19:06Z</time>
      </trkpt>
      <trkpt lat="48.0858" lon="7.68795">
        <ele>416.39</ele>
        <time>2014-08-29T07:19:07Z</time>
      </trkpt>
      <trkpt lat="48.0858" lon="7.68794">
        <ele>412.54</ele>
        <time>2014-08-29T07:19:08Z</time>
      </trkpt>
      <trkpt lat="48.0858" lon="7.68786">
        <ele>415.43</ele>
        <time>2014-08-29T07:19:15Z</time>
      </trkpt>
      <trkpt lat="48.0858" lon="7.68784">
        <ele>412.54</ele>
        <time>2014-08-29T07:19:16Z</time>
      </trkpt>
      <trkpt lat="48.08581" lon="7.68778">
        <ele>411.58</ele>
        <time>2014-08-29T07:19:21Z</time>
      </trkpt>
      <trkpt lat="48.08582" lon="7.68772">
        <ele>415.43</ele>
        <time>2014-08-29T07:19:26Z</time>
      </trkpt>
      <trkpt lat="48.08583" lon="7.68771">
        <ele>414.95</ele>
        <time>2014-08-29T07:19:27Z</time>
      </trkpt>
      <trkpt lat="48.08584" lon="7.68765">
        <ele>412.54</ele>
        <time>2014-08-29T07:19:30Z</time>
      </trkpt>
      <trkpt lat="48.08584" lon="7.68755">
        <ele>415.91</ele>
        <time>2014-08-29T07:19:35Z</time>
      </trkpt>
      <trkpt lat="48.08584" lon="7.68752">
        <ele>415.43</ele>
        <time>2014-08-29T07:19:36Z</time>
      </trkpt>
      <trkpt lat="48.08584" lon="7.68751">
        <ele>410.14</ele>
        <time>2014-08-29T07:19:37Z</time>
      </trkpt>
      <trkpt lat="48.08584" lon="7.68748">
        <ele>409.66</ele>
        <time>2014-08-29T07:19:38Z</time>
      </trkpt>
      <trkpt lat="48.08583" lon="7.68743">
        <ele>414.47</ele>
        <time>2014-08-29T07:19:40Z</time>
      </trkpt>
      <trkpt lat="48.08583" lon="7.6874">
        <ele>414.47</ele>
        <time>2014-08-29T07:19:41Z</time>
      </trkpt>
      <trkpt lat="48.08582" lon="7.68738">
        <ele>408.22</ele>
        <time>2014-08-29T07:19:42Z</time>
      </trkpt>
      <trkpt lat="48.08582" lon="7.68735">
        <ele>409.18</ele>
        <time>2014-08-29T07:19:43Z</time>
      </trkpt>
      <trkpt lat="48.08583" lon="7.68732">
        <ele>415.43</ele>
        <time>2014-08-29T07:19:45Z</time>
      </trkpt>
      <trkpt lat="48.08583" lon="7.6873">
        <ele>414.47</ele>
        <time>2014-08-29T07:19:46Z</time>
      </trkpt>
      <trkpt lat="48.08583" lon="7.68728">
        <ele>410.14</ele>
        <time>2014-08-29T07:19:47Z</time>
      </trkpt>
      <trkpt lat="48.08582" lon="7.68724">
        <ele>417.35</ele>
        <time>2014-08-29T07:19:50Z</time>
      </trkpt>
      <trkpt lat="48.08582" lon="7.68722">
        <ele>416.87</ele>
        <time>2014-08-29T07:19:51Z</time>
      </trkpt>
      <trkpt lat="48.08581" lon="7.68721">
        <ele>410.14</ele>
        <time>2014-08-29T07:19:52Z</time>
      </trkpt>
      <trkpt lat="48.08581" lon="7.68719">
        <ele>405.81</ele>
        <time>2014-08-29T07:19:53Z</time>
      </trkpt>
      <trkpt lat="48.0858" lon="7.68718">
        <ele>406.29</ele>
        <time>2014-08-29T07:19:54Z</time>
      </trkpt>
      <trkpt lat="48.08579" lon="7.68714">
        <ele>416.39</ele>
        <time>2014-08-29T07:19:56Z</time>
      </trkpt>
      <trkpt lat="48.08579" lon="7.68713">
        <ele>419.75</ele>
        <time>2014-08-29T07:19:57Z</time>
      </trkpt>
      <trkpt lat="48.08578" lon="7.68711">
        <ele>416.39</ele>
        <time>2014-08-29T07:19:58Z</time>
      </trkpt>
      <trkpt lat="48.08577" lon="7.68709">
        <ele>412.06</ele>
        <time>2014-08-29T07:19:59Z</time>
      </trkpt>
      <trkpt lat="48.08577" lon="7.68708">
        <ele>407.74</ele>
        <time>2014-08-29T07:20:00Z</time>
      </trkpt>
      <trkpt lat="48.08576" lon="7.68706">
        <ele>405.81</ele>
        <time>2014-08-29T07:20:01Z</time>
      </trkpt>
      <trkpt lat="48.08576" lon="7.68703">
        <ele>414.47</ele>
        <time>2014-08-29T07:20:03Z</time>
      </trkpt>
      <trkpt lat="48.08575" lon="7.68701">
        <ele>419.27</ele>
        <time>2014-08-29T07:20:04Z</time>
      </trkpt>
      <trkpt lat="48.08575" lon="7.68699">
        <ele>418.31</ele>
        <time>2014-08-29T07:20:05Z</time>
      </trkpt>
      <trkpt lat="48.08574" lon="7.68695">
        <ele>412.54</ele>
        <time>2014-08-29T07:20:07Z</time>
      </trkpt>
      <trkpt lat="48.08574" lon="7.6869">
        <ele>406.77</ele>
        <time>2014-08-29T07:20:09Z</time>
      </trkpt>
      <trkpt lat="48.08574" lon="7.68688">
        <ele>410.62</ele>
        <time>2014-08-29T07:20:10Z</time>
      </trkpt>
      <trkpt lat="48.08574" lon="7.68686">
        <ele>415.43</ele>
        <time>2014-08-29T07:20:11Z</time>
      </trkpt>
      <trkpt lat="48.08574" lon="7.68684">
        <ele>410.62</ele>
        <time>2014-08-29T07:20:12Z</time>
      </trkpt>
      <trkpt lat="48.08575" lon="7.68681">
        <ele>413.98</ele>
        <time>2014-08-29T07:20:14Z</time>
      </trkpt>
      <trkpt lat="48.08575" lon="7.68679">
        <ele>404.85</ele>
        <time>2014-08-29T07:20:16Z</time>
      </trkpt>
      <trkpt lat="48.08575" lon="7.68679">
        <ele>408.22</ele>
        <time>2014-08-29T07:20:17Z</time>
      </trkpt>
      <trkpt lat="48.08576" lon="7.68677">
        <ele>404.37</ele>
        <time>2014-08-29T07:20:18Z</time>
      </trkpt>
      <trkpt lat="48.08576" lon="7.68674">
        <ele>412.54</ele>
        <time>2014-08-29T07:20:19Z</time>
      </trkpt>
      <trkpt lat="48.08576" lon="7.68669">
        <ele>413.02</ele>
        <time>2014-08-29T07:20:21Z</time>
      </trkpt>
      <trkpt lat="48.08575" lon="7.68664">
        <ele>405.81</ele>
        <time>2014-08-29T07:20:23Z</time>
      </trkpt>
      <trkpt lat="48.08575" lon="7.68662">
        <ele>407.74</ele>
        <time>2014-08-29T07:20:24Z</time>
      </trkpt>
      <trkpt lat="48.08574" lon="7.6865">
        <ele>412.06</ele>
        <time>2014-08-29T07:20:28Z</time>
      </trkpt>
      <trkpt lat="48.08573" lon="7.68648">
        <ele>418.79</ele>
        <time>2014-08-29T07:20:29Z</time>
      </trkpt>
      <trkpt lat="48.08573" lon="7.68646">
        <ele>418.31</ele>
        <time>2014-08-29T07:20:30Z</time>
      </trkpt>
      <trkpt lat="48.08573" lon="7.68642">
        <ele>414.47</ele>
        <time>2014-08-29T07:20:32Z</time>
      </trkpt>
      <trkpt lat="48.08574" lon="7.68641">
        <ele>406.29</ele>
        <time>2014-08-29T07:20:33Z</time>
      </trkpt>
      <trkpt lat="48.08575" lon="7.68639">
        <ele>408.22</ele>
        <time>2014-08-29T07:20:34Z</time>
      </trkpt>
      <trkpt lat="48.08576" lon="7.68638">
        <ele>414.47</ele>
        <time>2014-08-29T07:20:35Z</time>
      </trkpt>
      <trkpt lat="48.08577" lon="7.68636">
        <ele>416.39</ele>
        <time>2014-08-29T07:20:37Z</time>
      </trkpt>
      <trkpt lat="48.08577" lon="7.68634">
        <ele>406.29</ele>
        <time>2014-08-29T07:20:38Z</time>
      </trkpt>
      <trkpt lat="48.08577" lon="7.6863">
        <ele>410.14</ele>
        <time>2014-08-29T07:20:40Z</time>
      </trkpt>
      <trkpt lat="48.08577" lon="7.68629">
        <ele>414.47</ele>
        <time>2014-08-29T07:20:41Z</time>
      </trkpt>
      <trkpt lat="48.0858" lon="7.68625">
        <ele>405.33</ele>
        <time>2014-08-29T07:20:44Z</time>
      </trkpt>
      <trkpt lat="48.0858" lon="7.68624">
        <ele>408.7</ele>
        <time>2014-08-29T07:20:45Z</time>
      </trkpt>
      <trkpt lat="48.08581" lon="7.68622">
        <ele>413.5</ele>
        <time>2014-08-29T07:20:46Z</time>
      </trkpt>
      <trkpt lat="48.08581" lon="7.6862">
        <ele>416.39</ele>
        <time>2014-08-29T07:20:48Z</time>
      </trkpt>
      <trkpt lat="48.0858" lon="7.68617">
        <ele>409.18</ele>
        <time>2014-08-29T07:20:50Z</time>
      </trkpt>
      <trkpt lat="48.0858" lon="7.68616">
        <ele>410.14</ele>
        <time>2014-08-29T07:20:51Z</time>
      </trkpt>
      <trkpt lat="48.08579" lon="7.68612">
        <ele>414.95</ele>
        <time>2014-08-29T07:20:53Z</time>
      </trkpt>
      <trkpt lat="48.0858" lon="7.6861">
        <ele>411.1</ele>
        <time>2014-08-29T07:20:54Z</time>
      </trkpt>
      <trkpt lat="48.08577" lon="7.68585">
        <ele>411.58</ele>
        <time>2014-08-29T07:21:09Z</time>
      </trkpt>
      <trkpt lat="48.08578" lon="7.68581">
        <ele>409.66</ele>
        <time>2014-08-29T07:21:11Z</time>
      </trkpt>
      <trkpt lat="48.08579" lon="7.68575">
        <ele>410.62</ele>
        <time>2014-08-29T07:21:15Z</time>
      </trkpt>
      <trkpt lat="48.08574" lon="7.68563">
        <ele>407.74</ele>
        <time>2014-08-29T07:21:25Z</time>
      </trkpt>
      <trkpt lat="48.08572" lon="7.68557">
        <ele>412.06</ele>
        <time>2014-08-29T07:21:29Z</time>
      </trkpt>
      <trkpt lat="48.08572" lon="7.68554">
        <ele>407.74</ele>
        <time>2014-08-29T07:21:31Z</time>
      </trkpt>
      <trkpt lat="48.08571" lon="7.68553">
        <ele>407.74</ele>
        <time>2014-08-29T07:21:32Z</time>
      </trkpt>
      <trkpt lat="48.08569" lon="7.68553">
        <ele>412.54</ele>
        <time>2014-08-29T07:21:34Z</time>
      </trkpt>
      <trkpt lat="48.08568" lon="7.68552">
        <ele>413.02</ele>
        <time>2014-08-29T07:21:35Z</time>
      </trkpt>
      <trkpt lat="48.08544" lon="7.68527">
        <ele>410.14</ele>
        <time>2014-08-29T07:21:52Z</time>
      </trkpt>
      <trkpt lat="48.08527" lon="7.68511">
        <ele>410.62</ele>
        <time>2014-08-29T07:22:10Z</time>
      </trkpt>
      <trkpt lat="48.08521" lon="7.68505">
        <ele>410.62</ele>
        <time>2014-08-29T07:22:16Z</time>
      </trkpt>
      <trkpt lat="48.08518" lon="7.68503">
        <ele>406.77</ele>
        <time>2014-08-29T07:22:19Z</time>
      </trkpt>
      <trkpt lat="48.08517" lon="7.68502">
        <ele>408.22</ele>
        <time>2014-08-29T07:22:20Z</time>
      </trkpt>
      <trkpt lat="48.08515" lon="7.685">
        <ele>411.58</ele>
        <time>2014-08-29T07:22:22Z</time>
      </trkpt>
      <trkpt lat="48.08514" lon="7.68496">
        <ele>408.22</ele>
        <time>2014-08-29T07:22:24Z</time>
      </trkpt>
      <trkpt lat="48.08511" lon="7.68491">
        <ele>411.58</ele>
        <time>2014-08-29T07:22:28Z</time>
      </trkpt>
      <trkpt lat="48.08505" lon="7.68476">
        <ele>409.66</ele>
        <time>2014-08-29T07:22:37Z</time>
      </trkpt>
      <trkpt lat="48.08496" lon="7.68458">
        <ele>416.39</ele>
        <time>2014-08-29T07:22:45Z</time>
      </trkpt>
      <trkpt lat="48.08496" lon="7.68457">
        <ele>413.02</ele>
        <time>2014-08-29T07:22:46Z</time>
      </trkpt>
      <trkpt lat="48.08495" lon="7.68454">
        <ele>409.18</ele>
        <time>2014-08-29T07:22:48Z</time>
      </trkpt>
      <trkpt lat="48.08494" lon="7.68453">
        <ele>411.58</ele>
        <time>2014-08-29T07:22:49Z</time>
      </trkpt>
      <trkpt lat="48.08495" lon="7.6845">
        <ele>412.54</ele>
        <time>2014-08-29T07:22:51Z</time>
      </trkpt>
      <trkpt lat="48.08496" lon="7.68445">
        <ele>409.18</ele>
        <time>2014-08-29T07:22:54Z</time>
      </trkpt>
      <trkpt lat="48.08495" lon="7.68439">
        <ele>413.98</ele>
        <time>2014-08-29T07:22:57Z</time>
      </trkpt>
      <trkpt lat="48.08495" lon="7.68434">
        <ele>409.66</ele>
        <time>2014-08-29T07:23:00Z</time>
      </trkpt>
      <trkpt lat="48.08496" lon="7.68429">
        <ele>413.02</ele>
        <time>2014-08-29T07:23:03Z</time>
      </trkpt>
      <trkpt lat="48.08497" lon="7.68405">
        <ele>411.58</ele>
        <time>2014-08-29T07:23:22Z</time>
      </trkpt>
      <trkpt lat="48.08498" lon="7.684">
        <ele>412.06</ele>
        <time>2014-08-29T07:23:27Z</time>
      </trkpt>
      <trkpt lat="48.08506" lon="7.68394">
        <ele>413.02</ele>
        <time>2014-08-29T07:23:34Z</time>
      </trkpt>
      <trkpt lat="48.08512" lon="7.68387">
        <ele>413.02</ele>
        <time>2014-08-29T07:23:38Z</time>
      </trkpt>
      <trkpt lat="48.08518" lon="7.68379">
        <ele>412.54</ele>
        <time>2014-08-29T07:23:43Z</time>
      </trkpt>
      <trkpt lat="48.08519" lon="7.68374">
        <ele>409.18</ele>
        <time>2014-08-29T07:23:46Z</time>
      </trkpt>
      <trkpt lat="48.08518" lon="7.6837">
        <ele>412.06</ele>
        <time>2014-08-29T07:23:48Z</time>
      </trkpt>
      <trkpt lat="48.08523" lon="7.6836">
        <ele>413.5</ele>
        <time>2014-08-29T07:23:54Z</time>
      </trkpt>
      <trkpt lat="48.08525" lon="7.68351">
        <ele>414.47</ele>
        <time>2014-08-29T07:23:57Z</time>
      </trkpt>
      <trkpt lat="48.08527" lon="7.68345">
        <ele>416.87</ele>
        <time>2014-08-29T07:24:00Z</time>
      </trkpt>
      <trkpt lat="48.08527" lon="7.68343">
        <ele>411.1</ele>
        <time>2014-08-29T07:24:01Z</time>
      </trkpt>
      <trkpt lat="48.08527" lon="7.68341">
        <ele>413.02</ele>
        <time>2014-08-29T07:24:02Z</time>
      </trkpt>
      <trkpt lat="48.08528" lon="7.68337">
        <ele>413.5</ele>
        <time>2014-08-29T07:24:04Z</time>
      </trkpt>
      <trkpt lat="48.08534" lon="7.68324">
        <ele>413.5</ele>
        <time>2014-08-29T07:24:15Z</time>
      </trkpt>
      <trkpt lat="48.08541" lon="7.68317">
        <ele>417.35</ele>
        <time>2014-08-29T07:24:23Z</time>
      </trkpt>
      <trkpt lat="48.08543" lon="7.68314">
        <ele>413.02</ele>
        <time>2014-08-29T07:24:26Z</time>
      </trkpt>
      <trkpt lat="48.08544" lon="7.68313">
        <ele>418.31</ele>
        <time>2014-08-29T07:24:27Z</time>
      </trkpt>
      <trkpt lat="48.08545" lon="7.68312">
        <ele>415.43</ele>
        <time>2014-08-29T07:24:28Z</time>
      </trkpt>
      <trkpt lat="48.08548" lon="7.68307">
        <ele>412.06</ele>
        <time>2014-08-29T07:24:32Z</time>
      </trkpt>
      <trkpt lat="48.08551" lon="7.68303">
        <ele>418.31</ele>
        <time>2014-08-29T07:24:35Z</time>
      </trkpt>
      <trkpt lat="48.08552" lon="7.68302">
        <ele>414.47</ele>
        <time>2014-08-29T07:24:36Z</time>
      </trkpt>
      <trkpt lat="48.08552" lon="7.68302">
        <ele>414.47</ele>
        <time>2014-08-29T07:24:37Z</time>
      </trkpt>
      <trkpt lat="48.08553" lon="7.68301">
        <ele>416.87</ele>
        <time>2014-08-29T07:24:39Z</time>
      </trkpt>
      <trkpt lat="48.08554" lon="7.683">
        <ele>415.43</ele>
        <time>2014-08-29T07:24:41Z</time>
      </trkpt>
      <trkpt lat="48.0856" lon="7.68294">
        <ele>418.79</ele>
        <time>2014-08-29T07:24:50Z</time>
      </trkpt>
      <trkpt lat="48.08561" lon="7.68294">
        <ele>417.83</ele>
        <time>2014-08-29T07:24:51Z</time>
      </trkpt>
      <trkpt lat="48.08566" lon="7.68294">
        <ele>413.98</ele>
        <time>2014-08-29T07:24:56Z</time>
      </trkpt>
      <trkpt lat="48.08567" lon="7.68294">
        <ele>415.91</ele>
        <time>2014-08-29T07:24:57Z</time>
      </trkpt>
      <trkpt lat="48.08568" lon="7.68293">
        <ele>420.23</ele>
        <time>2014-08-29T07:24:59Z</time>
      </trkpt>
      <trkpt lat="48.0857" lon="7.68293">
        <ele>413.5</ele>
        <time>2014-08-29T07:25:00Z</time>
      </trkpt>
      <trkpt lat="48.08571" lon="7.68293">
        <ele>413.98</ele>
        <time>2014-08-29T07:25:01Z</time>
      </trkpt>
      <trkpt lat="48.08573" lon="7.68292">
        <ele>417.35</ele>
        <time>2014-08-29T07:25:02Z</time>
      </trkpt>
      <trkpt lat="48.08574" lon="7.68292">
        <ele>416.87</ele>
        <time>2014-08-29T07:25:03Z</time>
      </trkpt>
      <trkpt lat="48.08575" lon="7.68291">
        <ele>413.5</ele>
        <time>2014-08-29T07:25:04Z</time>
      </trkpt>
      <trkpt lat="48.08576" lon="7.68291">
        <ele>416.87</ele>
        <time>2014-08-29T07:25:05Z</time>
      </trkpt>
      <trkpt lat="48.08579" lon="7.68289">
        <ele>412.06</ele>
        <time>2014-08-29T07:25:08Z</time>
      </trkpt>
      <trkpt lat="48.0858" lon="7.68288">
        <ele>417.83</ele>
        <time>2014-08-29T07:25:09Z</time>
      </trkpt>
      <trkpt lat="48.08582" lon="7.68285">
        <ele>416.39</ele>
        <time>2014-08-29T07:25:11Z</time>
      </trkpt>
      <trkpt lat="48.08587" lon="7.68278">
        <ele>420.23</ele>
        <time>2014-08-29T07:25:13Z</time>
      </trkpt>
      <trkpt lat="48.08589" lon="7.68274">
        <ele>418.79</ele>
        <time>2014-08-29T07:25:14Z</time>
      </trkpt>
      <trkpt lat="48.08596" lon="7.68265">
        <ele>422.64</ele>
        <time>2014-08-29T07:25:18Z</time>
      </trkpt>
      <trkpt lat="48.08597" lon="7.68264">
        <ele>418.31</ele>
        <time>2014-08-29T07:25:19Z</time>
      </trkpt>
      <trkpt lat="48.08598" lon="7.68258">
        <ele>421.19</ele>
        <time>2014-08-29T07:25:22Z</time>
      </trkpt>
      <trkpt lat="48.08599" lon="7.68255">
        <ele>415.43</ele>
        <time>2014-08-29T07:25:24Z</time>
      </trkpt>
      <trkpt lat="48.08599" lon="7.68254">
        <ele>418.31</ele>
        <time>2014-08-29T07:25:25Z</time>
      </trkpt>
      <trkpt lat="48.086" lon="7.68251">
        <ele>420.23</ele>
        <time>2014-08-29T07:25:27Z</time>
      </trkpt>
      <trkpt lat="48.08601" lon="7.68249">
        <ele>415.43</ele>
        <time>2014-08-29T07:25:28Z</time>
      </trkpt>
      <trkpt lat="48.08601" lon="7.68248">
        <ele>415.91</ele>
        <time>2014-08-29T07:25:29Z</time>
      </trkpt>
      <trkpt lat="48.08602" lon="7.68246">
        <ele>420.23</ele>
        <time>2014-08-29T07:25:30Z</time>
      </trkpt>
      <trkpt lat="48.08603" lon="7.68245">
        <ele>420.23</ele>
        <time>2014-08-29T07:25:31Z</time>
      </trkpt>
      <trkpt lat="48.08603" lon="7.68244">
        <ele>415.91</ele>
        <time>2014-08-29T07:25:32Z</time>
      </trkpt>
      <trkpt lat="48.08603" lon="7.68243">
        <ele>418.31</ele>
        <time>2014-08-29T07:25:33Z</time>
      </trkpt>
      <trkpt lat="48.08615" lon="7.68236">
        <ele>421.68</ele>
        <time>2014-08-29T07:25:45Z</time>
      </trkpt>
      <trkpt lat="48.08616" lon="7.68237">
        <ele>421.19</ele>
        <time>2014-08-29T07:25:46Z</time>
      </trkpt>
      <trkpt lat="48.0862" lon="7.68239">
        <ele>416.87</ele>
        <time>2014-08-29T07:25:51Z</time>
      </trkpt>
      <trkpt lat="48.0862" lon="7.68239">
        <ele>418.79</ele>
        <time>2014-08-29T07:25:52Z</time>
      </trkpt>
      <trkpt lat="48.08621" lon="7.6824">
        <ele>422.16</ele>
        <time>2014-08-29T07:25:53Z</time>
      </trkpt>
      <trkpt lat="48.08621" lon="7.68241">
        <ele>419.27</ele>
        <time>2014-08-29T07:25:54Z</time>
      </trkpt>
      <trkpt lat="48.08622" lon="7.68241">
        <ele>418.31</ele>
        <time>2014-08-29T07:25:56Z</time>
      </trkpt>
      <trkpt lat="48.08623" lon="7.68242">
        <ele>423.12</ele>
        <time>2014-08-29T07:25:57Z</time>
      </trkpt>
      <trkpt lat="48.08623" lon="7.68242">
        <ele>419.75</ele>
        <time>2014-08-29T07:25:58Z</time>
      </trkpt>
      <trkpt lat="48.08625" lon="7.68242">
        <ele>420.71</ele>
        <time>2014-08-29T07:26:02Z</time>
      </trkpt>
      <trkpt lat="48.0863" lon="7.68242">
        <ele>416.87</ele>
        <time>2014-08-29T07:26:04Z</time>
      </trkpt>
      <trkpt lat="48.08632" lon="7.68242">
        <ele>421.19</ele>
        <time>2014-08-29T07:26:05Z</time>
      </trkpt>
      <trkpt lat="48.08641" lon="7.68242">
        <ele>419.75</ele>
        <time>2014-08-29T07:26:09Z</time>
      </trkpt>
      <trkpt lat="48.08644" lon="7.68241">
        <ele>421.19</ele>
        <time>2014-08-29T07:26:11Z</time>
      </trkpt>
      <trkpt lat="48.08647" lon="7.68236">
        <ele>417.83</ele>
        <time>2014-08-29T07:26:14Z</time>
      </trkpt>
      <trkpt lat="48.08648" lon="7.68233">
        <ele>422.64</ele>
        <time>2014-08-29T07:26:15Z</time>
      </trkpt>
      <trkpt lat="48.08649" lon="7.68231">
        <ele>421.19</ele>
        <time>2014-08-29T07:26:16Z</time>
      </trkpt>
      <trkpt lat="48.08652" lon="7.68223">
        <ele>426</ele>
        <time>2014-08-29T07:26:18Z</time>
      </trkpt>
      <trkpt lat="48.08654" lon="7.68216">
        <ele>421.68</ele>
        <time>2014-08-29T07:26:20Z</time>
      </trkpt>
      <trkpt lat="48.08655" lon="7.68214">
        <ele>426.48</ele>
        <time>2014-08-29T07:26:21Z</time>
      </trkpt>
      <trkpt lat="48.08657" lon="7.68212">
        <ele>425.52</ele>
        <time>2014-08-29T07:26:22Z</time>
      </trkpt>
      <trkpt lat="48.0866" lon="7.6821">
        <ele>421.19</ele>
        <time>2014-08-29T07:26:24Z</time>
      </trkpt>
      <trkpt lat="48.08661" lon="7.68208">
        <ele>424.08</ele>
        <time>2014-08-29T07:26:25Z</time>
      </trkpt>
      <trkpt lat="48.08664" lon="7.68203">
        <ele>420.23</ele>
        <time>2014-08-29T07:26:27Z</time>
      </trkpt>
      <trkpt lat="48.08664" lon="7.68201">
        <ele>420.23</ele>
        <time>2014-08-29T07:26:28Z</time>
      </trkpt>
      <trkpt lat="48.08664" lon="7.68198">
        <ele>424.56</ele>
        <time>2014-08-29T07:26:29Z</time>
      </trkpt>
      <trkpt lat="48.08666" lon="7.68193">
        <ele>420.71</ele>
        <time>2014-08-29T07:26:31Z</time>
      </trkpt>
      <trkpt lat="48.08666" lon="7.68185">
        <ele>424.08</ele>
        <time>2014-08-29T07:26:34Z</time>
      </trkpt>
      <trkpt lat="48.08667" lon="7.68183">
        <ele>423.6</ele>
        <time>2014-08-29T07:26:35Z</time>
      </trkpt>
      <trkpt lat="48.08668" lon="7.68179">
        <ele>420.23</ele>
        <time>2014-08-29T07:26:37Z</time>
      </trkpt>
      <trkpt lat="48.08669" lon="7.68178">
        <ele>424.08</ele>
        <time>2014-08-29T07:26:38Z</time>
      </trkpt>
      <trkpt lat="48.08669" lon="7.68177">
        <ele>424.08</ele>
        <time>2014-08-29T07:26:39Z</time>
      </trkpt>
      <trkpt lat="48.08674" lon="7.68167">
        <ele>427.44</ele>
        <time>2014-08-29T07:26:46Z</time>
      </trkpt>
      <trkpt lat="48.08675" lon="7.68166">
        <ele>424.08</ele>
        <time>2014-08-29T07:26:47Z</time>
      </trkpt>
      <trkpt lat="48.08677" lon="7.68161">
        <ele>428.89</ele>
        <time>2014-08-29T07:26:50Z</time>
      </trkpt>
      <trkpt lat="48.08677" lon="7.68158">
        <ele>425.04</ele>
        <time>2014-08-29T07:26:51Z</time>
      </trkpt>
      <trkpt lat="48.08677" lon="7.68151">
        <ele>421.19</ele>
        <time>2014-08-29T07:26:55Z</time>
      </trkpt>
      <trkpt lat="48.08677" lon="7.6815">
        <ele>423.12</ele>
        <time>2014-08-29T07:26:56Z</time>
      </trkpt>
      <trkpt lat="48.08677" lon="7.68146">
        <ele>426.96</ele>
        <time>2014-08-29T07:27:00Z</time>
      </trkpt>
      <trkpt lat="48.08677" lon="7.68145">
        <ele>426</ele>
        <time>2014-08-29T07:27:01Z</time>
      </trkpt>
      <trkpt lat="48.08679" lon="7.68135">
        <ele>423.12</ele>
        <time>2014-08-29T07:27:07Z</time>
      </trkpt>
      <trkpt lat="48.08679" lon="7.68134">
        <ele>429.85</ele>
        <time>2014-08-29T07:27:08Z</time>
      </trkpt>
      <trkpt lat="48.0868" lon="7.68132">
        <ele>425.04</ele>
        <time>2014-08-29T07:27:09Z</time>
      </trkpt>
      <trkpt lat="48.08682" lon="7.6813">
        <ele>428.89</ele>
        <time>2014-08-29T07:27:11Z</time>
      </trkpt>
      <trkpt lat="48.08682" lon="7.68129">
        <ele>425.52</ele>
        <time>2014-08-29T07:27:12Z</time>
      </trkpt>
      <trkpt lat="48.08683" lon="7.68127">
        <ele>430.33</ele>
        <time>2014-08-29T07:27:13Z</time>
      </trkpt>
      <trkpt lat="48.08683" lon="7.68126">
        <ele>426</ele>
        <time>2014-08-29T07:27:14Z</time>
      </trkpt>
      <trkpt lat="48.08683" lon="7.68123">
        <ele>430.33</ele>
        <time>2014-08-29T07:27:16Z</time>
      </trkpt>
      <trkpt lat="48.08684" lon="7.68122">
        <ele>426.96</ele>
        <time>2014-08-29T07:27:17Z</time>
      </trkpt>
      <trkpt lat="48.08682" lon="7.68113">
        <ele>426.96</ele>
        <time>2014-08-29T07:27:22Z</time>
      </trkpt>
      <trkpt lat="48.08681" lon="7.6811">
        <ele>428.4</ele>
        <time>2014-08-29T07:27:24Z</time>
      </trkpt>
      <trkpt lat="48.08682" lon="7.68097">
        <ele>429.37</ele>
        <time>2014-08-29T07:27:32Z</time>
      </trkpt>
      <trkpt lat="48.08682" lon="7.68093">
        <ele>432.73</ele>
        <time>2014-08-29T07:27:36Z</time>
      </trkpt>
      <trkpt lat="48.08682" lon="7.68092">
        <ele>427.44</ele>
        <time>2014-08-29T07:27:37Z</time>
      </trkpt>
      <trkpt lat="48.08682" lon="7.6809">
        <ele>430.81</ele>
        <time>2014-08-29T07:27:39Z</time>
      </trkpt>
      <trkpt lat="48.08681" lon="7.68089">
        <ele>429.37</ele>
        <time>2014-08-29T07:27:40Z</time>
      </trkpt>
      <trkpt lat="48.08682" lon="7.68087">
        <ele>433.69</ele>
        <time>2014-08-29T07:27:41Z</time>
      </trkpt>
      <trkpt lat="48.08681" lon="7.68081">
        <ele>428.89</ele>
        <time>2014-08-29T07:27:44Z</time>
      </trkpt>
      <trkpt lat="48.0868" lon="7.6808">
        <ele>433.21</ele>
        <time>2014-08-29T07:27:45Z</time>
      </trkpt>
      <trkpt lat="48.08679" lon="7.68078">
        <ele>428.4</ele>
        <time>2014-08-29T07:27:46Z</time>
      </trkpt>
      <trkpt lat="48.08679" lon="7.68075">
        <ele>434.17</ele>
        <time>2014-08-29T07:27:48Z</time>
      </trkpt>
      <trkpt lat="48.08678" lon="7.68074">
        <ele>429.37</ele>
        <time>2014-08-29T07:27:49Z</time>
      </trkpt>
      <trkpt lat="48.08676" lon="7.68067">
        <ele>432.73</ele>
        <time>2014-08-29T07:27:55Z</time>
      </trkpt>
      <trkpt lat="48.08671" lon="7.68057">
        <ele>428.89</ele>
        <time>2014-08-29T07:28:02Z</time>
      </trkpt>
      <trkpt lat="48.08671" lon="7.68056">
        <ele>433.69</ele>
        <time>2014-08-29T07:28:03Z</time>
      </trkpt>
      <trkpt lat="48.0867" lon="7.68055">
        <ele>434.17</ele>
        <time>2014-08-29T07:28:04Z</time>
      </trkpt>
      <trkpt lat="48.08668" lon="7.68052">
        <ele>431.77</ele>
        <time>2014-08-29T07:28:06Z</time>
      </trkpt>
      <trkpt lat="48.08667" lon="7.68046">
        <ele>429.37</ele>
        <time>2014-08-29T07:28:09Z</time>
      </trkpt>
      <trkpt lat="48.08663" lon="7.68041">
        <ele>437.06</ele>
        <time>2014-08-29T07:28:13Z</time>
      </trkpt>
      <trkpt lat="48.08663" lon="7.6804">
        <ele>431.77</ele>
        <time>2014-08-29T07:28:14Z</time>
      </trkpt>
      <trkpt lat="48.0866" lon="7.68037">
        <ele>438.02</ele>
        <time>2014-08-29T07:28:17Z</time>
      </trkpt>
      <trkpt lat="48.08659" lon="7.68035">
        <ele>428.4</ele>
        <time>2014-08-29T07:28:18Z</time>
      </trkpt>
      <trkpt lat="48.08658" lon="7.68035">
        <ele>428.89</ele>
        <time>2014-08-29T07:28:19Z</time>
      </trkpt>
      <trkpt lat="48.08657" lon="7.68034">
        <ele>439.46</ele>
        <time>2014-08-29T07:28:20Z</time>
      </trkpt>
      <trkpt lat="48.08656" lon="7.68033">
        <ele>431.29</ele>
        <time>2014-08-29T07:28:21Z</time>
      </trkpt>
      <trkpt lat="48.08655" lon="7.68032">
        <ele>428.4</ele>
        <time>2014-08-29T07:28:22Z</time>
      </trkpt>
      <trkpt lat="48.08655" lon="7.68031">
        <ele>437.54</ele>
        <time>2014-08-29T07:28:23Z</time>
      </trkpt>
      <trkpt lat="48.08654" lon="7.6803">
        <ele>434.65</ele>
        <time>2014-08-29T07:28:24Z</time>
      </trkpt>
      <trkpt lat="48.08653" lon="7.68029">
        <ele>429.37</ele>
        <time>2014-08-29T07:28:25Z</time>
      </trkpt>
      <trkpt lat="48.08651" lon="7.68029">
        <ele>433.21</ele>
        <time>2014-08-29T07:28:26Z</time>
      </trkpt>
      <trkpt lat="48.08649" lon="7.68026">
        <ele>438.98</ele>
        <time>2014-08-29T07:28:29Z</time>
      </trkpt>
      <trkpt lat="48.08648" lon="7.68025">
        <ele>434.65</ele>
        <time>2014-08-29T07:28:30Z</time>
      </trkpt>
      <trkpt lat="48.08648" lon="7.68024">
        <ele>438.5</ele>
        <time>2014-08-29T07:28:32Z</time>
      </trkpt>
      <trkpt lat="48.08648" lon="7.68023">
        <ele>436.58</ele>
        <time>2014-08-29T07:28:33Z</time>
      </trkpt>
      <trkpt lat="48.08648" lon="7.68021">
        <ele>431.29</ele>
        <time>2014-08-29T07:28:34Z</time>
      </trkpt>
      <trkpt lat="48.08648" lon="7.6802">
        <ele>433.69</ele>
        <time>2014-08-29T07:28:35Z</time>
      </trkpt>
      <trkpt lat="48.08644" lon="7.68013">
        <ele>434.17</ele>
        <time>2014-08-29T07:28:40Z</time>
      </trkpt>
      <trkpt lat="48.08644" lon="7.68013">
        <ele>438.98</ele>
        <time>2014-08-29T07:28:41Z</time>
      </trkpt>
      <trkpt lat="48.08644" lon="7.68013">
        <ele>438.5</ele>
        <time>2014-08-29T07:28:42Z</time>
      </trkpt>
      <trkpt lat="48.08644" lon="7.68013">
        <ele>435.13</ele>
        <time>2014-08-29T07:28:43Z</time>
      </trkpt>
      <trkpt lat="48.08644" lon="7.68013">
        <ele>439.94</ele>
        <time>2014-08-29T07:28:44Z</time>
      </trkpt>
      <trkpt lat="48.08644" lon="7.68013">
        <ele>433.21</ele>
        <time>2014-08-29T07:28:46Z</time>
      </trkpt>
      <trkpt lat="48.08644" lon="7.68013">
        <ele>438.02</ele>
        <time>2014-08-29T07:28:47Z</time>
      </trkpt>
      <trkpt lat="48.08643" lon="7.68012">
        <ele>431.77</ele>
        <time>2014-08-29T07:28:49Z</time>
      </trkpt>
      <trkpt lat="48.08643" lon="7.68012">
        <ele>432.73</ele>
        <time>2014-08-29T07:28:50Z</time>
      </trkpt>
      <trkpt lat="48.08643" lon="7.68012">
        <ele>438.02</ele>
        <time>2014-08-29T07:28:51Z</time>
      </trkpt>
      <trkpt lat="48.08643" lon="7.68012">
        <ele>436.58</ele>
        <time>2014-08-29T07:28:52Z</time>
      </trkpt>
      <trkpt lat="48.08638" lon="7.68007">
        <ele>441.86</ele>
        <time>2014-08-29T07:28:57Z</time>
      </trkpt>
      <trkpt lat="48.08636" lon="7.68005">
        <ele>437.06</ele>
        <time>2014-08-29T07:28:58Z</time>
      </trkpt>
      <trkpt lat="48.08629" lon="7.68">
        <ele>439.46</ele>
        <time>2014-08-29T07:29:01Z</time>
      </trkpt>
      <trkpt lat="48.08626" lon="7.67998">
        <ele>433.69</ele>
        <time>2014-08-29T07:29:02Z</time>
      </trkpt>
      <trkpt lat="48.08623" lon="7.67997">
        <ele>440.42</ele>
        <time>2014-08-29T07:29:04Z</time>
      </trkpt>
      <trkpt lat="48.08622" lon="7.67996">
        <ele>430.81</ele>
        <time>2014-08-29T07:29:05Z</time>
      </trkpt>
      <trkpt lat="48.0862" lon="7.67995">
        <ele>437.06</ele>
        <time>2014-08-29T07:29:06Z</time>
      </trkpt>
      <trkpt lat="48.08618" lon="7.67993">
        <ele>438.5</ele>
        <time>2014-08-29T07:29:08Z</time>
      </trkpt>
      <trkpt lat="48.08618" lon="7.67992">
        <ele>433.69</ele>
        <time>2014-08-29T07:29:09Z</time>
      </trkpt>
      <trkpt lat="48.08618" lon="7.67992">
        <ele>438.98</ele>
        <time>2014-08-29T07:29:10Z</time>
      </trkpt>
      <trkpt lat="48.08618" lon="7.67992">
        <ele>437.54</ele>
        <time>2014-08-29T07:29:14Z</time>
      </trkpt>
      <trkpt lat="48.08618" lon="7.67992">
        <ele>440.9</ele>
        <time>2014-08-29T07:29:17Z</time>
      </trkpt>
      <trkpt lat="48.08618" lon="7.67992">
        <ele>435.13</ele>
        <time>2014-08-29T07:29:18Z</time>
      </trkpt>
      <trkpt lat="48.08618" lon="7.67992">
        <ele>440.42</ele>
        <time>2014-08-29T07:29:20Z</time>
      </trkpt>
      <trkpt lat="48.08613" lon="7.67989">
        <ele>433.21</ele>
        <time>2014-08-29T07:29:22Z</time>
      </trkpt>
      <trkpt lat="48.08611" lon="7.67988">
        <ele>437.06</ele>
        <time>2014-08-29T07:29:23Z</time>
      </trkpt>
      <trkpt lat="48.08609" lon="7.67988">
        <ele>438.02</ele>
        <time>2014-08-29T07:29:25Z</time>
      </trkpt>
      <trkpt lat="48.08607" lon="7.67988">
        <ele>439.94</ele>
        <time>2014-08-29T07:29:28Z</time>
      </trkpt>
      <trkpt lat="48.08601" lon="7.67984">
        <ele>438.98</ele>
        <time>2014-08-29T07:29:32Z</time>
      </trkpt>
      <trkpt lat="48.08597" lon="7.67984">
        <ele>441.86</ele>
        <time>2014-08-29T07:29:34Z</time>
      </trkpt>
      <trkpt lat="48.08587" lon="7.67977">
        <ele>440.42</ele>
        <time>2014-08-29T07:29:37Z</time>
      </trkpt>
      <trkpt lat="48.08557" lon="7.67973">
        <ele>438.02</ele>
        <time>2014-08-29T07:29:49Z</time>
      </trkpt>
      <trkpt lat="48.08551" lon="7.67973">
        <ele>438.02</ele>
        <time>2014-08-29T07:29:52Z</time>
      </trkpt>
      <trkpt lat="48.08532" lon="7.67983">
        <ele>436.58</ele>
        <time>2014-08-29T07:30:06Z</time>
      </trkpt>
      <trkpt lat="48.08527" lon="7.6799">
        <ele>432.73</ele>
        <time>2014-08-29T07:30:15Z</time>
      </trkpt>
      <trkpt lat="48.08527" lon="7.67991">
        <ele>436.1</ele>
        <time>2014-08-29T07:30:16Z</time>
      </trkpt>
      <trkpt lat="48.08526" lon="7.6799">
        <ele>432.73</ele>
        <time>2014-08-29T07:30:17Z</time>
      </trkpt>
      <trkpt lat="48.08524" lon="7.67988">
        <ele>436.1</ele>
        <time>2014-08-29T07:30:19Z</time>
      </trkpt>
      <trkpt lat="48.0852" lon="7.67989">
        <ele>432.73</ele>
        <time>2014-08-29T07:30:23Z</time>
      </trkpt>
      <trkpt lat="48.08519" lon="7.6799">
        <ele>433.69</ele>
        <time>2014-08-29T07:30:24Z</time>
      </trkpt>
      <trkpt lat="48.08515" lon="7.67993">
        <ele>435.13</ele>
        <time>2014-08-29T07:30:26Z</time>
      </trkpt>
      <trkpt lat="48.08501" lon="7.67996">
        <ele>436.58</ele>
        <time>2014-08-29T07:30:33Z</time>
      </trkpt>
      <trkpt lat="48.08496" lon="7.67997">
        <ele>431.29</ele>
        <time>2014-08-29T07:30:36Z</time>
      </trkpt>
      <trkpt lat="48.08496" lon="7.67997">
        <ele>435.13</ele>
        <time>2014-08-29T07:30:37Z</time>
      </trkpt>
      <trkpt lat="48.0849" lon="7.67994">
        <ele>434.17</ele>
        <time>2014-08-29T07:30:49Z</time>
      </trkpt>
      <trkpt lat="48.08489" lon="7.67994">
        <ele>431.29</ele>
        <time>2014-08-29T07:30:50Z</time>
      </trkpt>
      <trkpt lat="48.08489" lon="7.67994">
        <ele>432.73</ele>
        <time>2014-08-29T07:30:51Z</time>
      </trkpt>
      <trkpt lat="48.08486" lon="7.67994">
        <ele>434.17</ele>
        <time>2014-08-29T07:30:57Z</time>
      </trkpt>
      <trkpt lat="48.08485" lon="7.67995">
        <ele>432.73</ele>
        <time>2014-08-29T07:30:59Z</time>
      </trkpt>
      <trkpt lat="48.08483" lon="7.67994">
        <ele>429.37</ele>
        <time>2014-08-29T07:31:00Z</time>
      </trkpt>
      <trkpt lat="48.08482" lon="7.67994">
        <ele>429.37</ele>
        <time>2014-08-29T07:31:01Z</time>
      </trkpt>
      <trkpt lat="48.08481" lon="7.67993">
        <ele>432.73</ele>
        <time>2014-08-29T07:31:02Z</time>
      </trkpt>
      <trkpt lat="48.08477" lon="7.67991">
        <ele>427.92</ele>
        <time>2014-08-29T07:31:09Z</time>
      </trkpt>
      <trkpt lat="48.08476" lon="7.67991">
        <ele>428.89</ele>
        <time>2014-08-29T07:31:10Z</time>
      </trkpt>
      <trkpt lat="48.08476" lon="7.6799">
        <ele>432.73</ele>
        <time>2014-08-29T07:31:11Z</time>
      </trkpt>
      <trkpt lat="48.08473" lon="7.67988">
        <ele>429.37</ele>
        <time>2014-08-29T07:31:16Z</time>
      </trkpt>
      <trkpt lat="48.08472" lon="7.67987">
        <ele>429.37</ele>
        <time>2014-08-29T07:31:17Z</time>
      </trkpt>
      <trkpt lat="48.08472" lon="7.67987">
        <ele>433.21</ele>
        <time>2014-08-29T07:31:19Z</time>
      </trkpt>
      <trkpt lat="48.08471" lon="7.67982">
        <ele>428.89</ele>
        <time>2014-08-29T07:31:23Z</time>
      </trkpt>
      <trkpt lat="48.08471" lon="7.67981">
        <ele>428.89</ele>
        <time>2014-08-29T07:31:24Z</time>
      </trkpt>
      <trkpt lat="48.08471" lon="7.67979">
        <ele>432.25</ele>
        <time>2014-08-29T07:31:26Z</time>
      </trkpt>
      <trkpt lat="48.0847" lon="7.67978">
        <ele>428.4</ele>
        <time>2014-08-29T07:31:27Z</time>
      </trkpt>
      <trkpt lat="48.0847" lon="7.67978">
        <ele>431.29</ele>
        <time>2014-08-29T07:31:28Z</time>
      </trkpt>
      <trkpt lat="48.08469" lon="7.67978">
        <ele>428.89</ele>
        <time>2014-08-29T07:31:30Z</time>
      </trkpt>
      <trkpt lat="48.08465" lon="7.67972">
        <ele>429.85</ele>
        <time>2014-08-29T07:31:36Z</time>
      </trkpt>
      <trkpt lat="48.08463" lon="7.67968">
        <ele>426.96</ele>
        <time>2014-08-29T07:31:39Z</time>
      </trkpt>
      <trkpt lat="48.08461" lon="7.67966">
        <ele>431.77</ele>
        <time>2014-08-29T07:31:43Z</time>
      </trkpt>
      <trkpt lat="48.08461" lon="7.67965">
        <ele>429.85</ele>
        <time>2014-08-29T07:31:44Z</time>
      </trkpt>
      <trkpt lat="48.0846" lon="7.67963">
        <ele>428.4</ele>
        <time>2014-08-29T07:31:46Z</time>
      </trkpt>
      <trkpt lat="48.08458" lon="7.67959">
        <ele>426</ele>
        <time>2014-08-29T07:31:48Z</time>
      </trkpt>
      <trkpt lat="48.08456" lon="7.67957">
        <ele>429.85</ele>
        <time>2014-08-29T07:31:50Z</time>
      </trkpt>
      <trkpt lat="48.08454" lon="7.67956">
        <ele>430.81</ele>
        <time>2014-08-29T07:31:52Z</time>
      </trkpt>
      <trkpt lat="48.08451" lon="7.67953">
        <ele>426.96</ele>
        <time>2014-08-29T07:31:55Z</time>
      </trkpt>
      <trkpt lat="48.08449" lon="7.67952">
        <ele>427.44</ele>
        <time>2014-08-29T07:31:56Z</time>
      </trkpt>
      <trkpt lat="48.08441" lon="7.67933">
        <ele>424.56</ele>
        <time>2014-08-29T07:32:12Z</time>
      </trkpt>
      <trkpt lat="48.08439" lon="7.67931">
        <ele>428.4</ele>
        <time>2014-08-29T07:32:15Z</time>
      </trkpt>
      <trkpt lat="48.08438" lon="7.6793">
        <ele>428.4</ele>
        <time>2014-08-29T07:32:16Z</time>
      </trkpt>
      <trkpt lat="48.08438" lon="7.6793">
        <ele>423.12</ele>
        <time>2014-08-29T07:32:19Z</time>
      </trkpt>
      <trkpt lat="48.08438" lon="7.67929">
        <ele>424.56</ele>
        <time>2014-08-29T07:32:20Z</time>
      </trkpt>
      <trkpt lat="48.08437" lon="7.67928">
        <ele>428.4</ele>
        <time>2014-08-29T07:32:22Z</time>
      </trkpt>
      <trkpt lat="48.08437" lon="7.67927">
        <ele>427.92</ele>
        <time>2014-08-29T07:32:23Z</time>
      </trkpt>
      <trkpt lat="48.0843" lon="7.6792">
        <ele>424.56</ele>
        <time>2014-08-29T07:32:27Z</time>
      </trkpt>
      <trkpt lat="48.08428" lon="7.67916">
        <ele>427.44</ele>
        <time>2014-08-29T07:32:29Z</time>
      </trkpt>
      <trkpt lat="48.08427" lon="7.67915">
        <ele>427.92</ele>
        <time>2014-08-29T07:32:30Z</time>
      </trkpt>
      <trkpt lat="48.0842" lon="7.67906">
        <ele>423.6</ele>
        <time>2014-08-29T07:32:35Z</time>
      </trkpt>
      <trkpt lat="48.08419" lon="7.67905">
        <ele>424.56</ele>
        <time>2014-08-29T07:32:36Z</time>
      </trkpt>
      <trkpt lat="48.084" lon="7.67888">
        <ele>427.92</ele>
        <time>2014-08-29T07:32:49Z</time>
      </trkpt>
      <trkpt lat="48.08397" lon="7.67885">
        <ele>424.08</ele>
        <time>2014-08-29T07:32:51Z</time>
      </trkpt>
      <trkpt lat="48.08395" lon="7.67879">
        <ele>422.64</ele>
        <time>2014-08-29T07:32:53Z</time>
      </trkpt>
      <trkpt lat="48.08394" lon="7.67878">
        <ele>426</ele>
        <time>2014-08-29T07:32:54Z</time>
      </trkpt>
      <trkpt lat="48.08394" lon="7.67876">
        <ele>425.04</ele>
        <time>2014-08-29T07:32:55Z</time>
      </trkpt>
      <trkpt lat="48.08393" lon="7.67871">
        <ele>421.68</ele>
        <time>2014-08-29T07:32:59Z</time>
      </trkpt>
      <trkpt lat="48.08393" lon="7.67869">
        <ele>425.52</ele>
        <time>2014-08-29T07:33:00Z</time>
      </trkpt>
      <trkpt lat="48.08393" lon="7.67867">
        <ele>425.04</ele>
        <time>2014-08-29T07:33:01Z</time>
      </trkpt>
      <trkpt lat="48.08392" lon="7.67862">
        <ele>426.96</ele>
        <time>2014-08-29T07:33:03Z</time>
      </trkpt>
      <trkpt lat="48.08392" lon="7.67856">
        <ele>423.6</ele>
        <time>2014-08-29T07:33:06Z</time>
      </trkpt>
      <trkpt lat="48.08392" lon="7.67855">
        <ele>423.6</ele>
        <time>2014-08-29T07:33:07Z</time>
      </trkpt>
      <trkpt lat="48.08391" lon="7.67852">
        <ele>426.48</ele>
        <time>2014-08-29T07:33:10Z</time>
      </trkpt>
      <trkpt lat="48.08386" lon="7.67847">
        <ele>422.64</ele>
        <time>2014-08-29T07:33:15Z</time>
      </trkpt>
      <trkpt lat="48.08386" lon="7.67847">
        <ele>423.12</ele>
        <time>2014-08-29T07:33:16Z</time>
      </trkpt>
      <trkpt lat="48.08386" lon="7.67847">
        <ele>420.23</ele>
        <time>2014-08-29T07:33:17Z</time>
      </trkpt>
      <trkpt lat="48.08386" lon="7.67847">
        <ele>423.6</ele>
        <time>2014-08-29T07:33:19Z</time>
      </trkpt>
      <trkpt lat="48.08382" lon="7.67842">
        <ele>420.71</ele>
        <time>2014-08-29T07:33:24Z</time>
      </trkpt>
      <trkpt lat="48.08375" lon="7.67837">
        <ele>424.56</ele>
        <time>2014-08-29T07:33:27Z</time>
      </trkpt>
      <trkpt lat="48.08373" lon="7.67836">
        <ele>424.56</ele>
        <time>2014-08-29T07:33:28Z</time>
      </trkpt>
      <trkpt lat="48.08368" lon="7.67831">
        <ele>420.23</ele>
        <time>2014-08-29T07:33:31Z</time>
      </trkpt>
      <trkpt lat="48.08366" lon="7.67828">
        <ele>421.19</ele>
        <time>2014-08-29T07:33:32Z</time>
      </trkpt>
      <trkpt lat="48.08366" lon="7.67826">
        <ele>424.56</ele>
        <time>2014-08-29T07:33:33Z</time>
      </trkpt>
      <trkpt lat="48.08363" lon="7.6782">
        <ele>421.68</ele>
        <time>2014-08-29T07:33:37Z</time>
      </trkpt>
      <trkpt lat="48.08361" lon="7.67814">
        <ele>424.08</ele>
        <time>2014-08-29T07:33:40Z</time>
      </trkpt>
      <trkpt lat="48.08357" lon="7.67806">
        <ele>420.71</ele>
        <time>2014-08-29T07:33:45Z</time>
      </trkpt>
      <trkpt lat="48.08356" lon="7.67804">
        <ele>421.19</ele>
        <time>2014-08-29T07:33:46Z</time>
      </trkpt>
      <trkpt lat="48.0835" lon="7.67793">
        <ele>419.75</ele>
        <time>2014-08-29T07:34:00Z</time>
      </trkpt>
      <trkpt lat="48.0835" lon="7.67789">
        <ele>423.12</ele>
        <time>2014-08-29T07:34:05Z</time>
      </trkpt>
      <trkpt lat="48.08352" lon="7.67786">
        <ele>419.27</ele>
        <time>2014-08-29T07:34:07Z</time>
      </trkpt>
      <trkpt lat="48.08353" lon="7.67785">
        <ele>419.27</ele>
        <time>2014-08-29T07:34:08Z</time>
      </trkpt>
      <trkpt lat="48.08354" lon="7.6778">
        <ele>422.64</ele>
        <time>2014-08-29T07:34:11Z</time>
      </trkpt>
      <trkpt lat="48.08356" lon="7.67777">
        <ele>419.27</ele>
        <time>2014-08-29T07:34:14Z</time>
      </trkpt>
      <trkpt lat="48.08357" lon="7.67777">
        <ele>422.16</ele>
        <time>2014-08-29T07:34:17Z</time>
      </trkpt>
      <trkpt lat="48.08359" lon="7.67775">
        <ele>419.27</ele>
        <time>2014-08-29T07:34:21Z</time>
      </trkpt>
      <trkpt lat="48.08361" lon="7.67774">
        <ele>421.68</ele>
        <time>2014-08-29T07:34:24Z</time>
      </trkpt>
      <trkpt lat="48.08373" lon="7.67763">
        <ele>416.87</ele>
        <time>2014-08-29T07:34:38Z</time>
      </trkpt>
      <trkpt lat="48.08375" lon="7.67762">
        <ele>417.35</ele>
        <time>2014-08-29T07:34:39Z</time>
      </trkpt>
      <trkpt lat="48.08378" lon="7.6776">
        <ele>420.71</ele>
        <time>2014-08-29T07:34:41Z</time>
      </trkpt>
      <trkpt lat="48.08384" lon="7.67754">
        <ele>416.39</ele>
        <time>2014-08-29T07:34:47Z</time>
      </trkpt>
      <trkpt lat="48.08386" lon="7.67753">
        <ele>421.68</ele>
        <time>2014-08-29T07:34:49Z</time>
      </trkpt>
      <trkpt lat="48.08388" lon="7.67753">
        <ele>420.71</ele>
        <time>2014-08-29T07:34:50Z</time>
      </trkpt>
      <trkpt lat="48.08392" lon="7.6775">
        <ele>417.35</ele>
        <time>2014-08-29T07:34:54Z</time>
      </trkpt>
      <trkpt lat="48.08392" lon="7.67749">
        <ele>418.31</ele>
        <time>2014-08-29T07:34:55Z</time>
      </trkpt>
      <trkpt lat="48.08396" lon="7.67745">
        <ele>420.71</ele>
        <time>2014-08-29T07:34:58Z</time>
      </trkpt>
      <trkpt lat="48.08402" lon="7.67739">
        <ele>417.35</ele>
        <time>2014-08-29T07:35:03Z</time>
      </trkpt>
      <trkpt lat="48.08407" lon="7.67731">
        <ele>419.75</ele>
        <time>2014-08-29T07:35:09Z</time>
      </trkpt>
      <trkpt lat="48.08409" lon="7.67726">
        <ele>418.31</ele>
        <time>2014-08-29T07:35:12Z</time>
      </trkpt>
      <trkpt lat="48.0841" lon="7.67721">
        <ele>414.95</ele>
        <time>2014-08-29T07:35:15Z</time>
      </trkpt>
      <trkpt lat="48.08411" lon="7.67716">
        <ele>419.27</ele>
        <time>2014-08-29T07:35:17Z</time>
      </trkpt>
      <trkpt lat="48.08412" lon="7.67713">
        <ele>419.75</ele>
        <time>2014-08-29T07:35:19Z</time>
      </trkpt>
      <trkpt lat="48.08415" lon="7.67708">
        <ele>416.39</ele>
        <time>2014-08-29T07:35:22Z</time>
      </trkpt>
      <trkpt lat="48.08417" lon="7.67707">
        <ele>416.39</ele>
        <time>2014-08-29T07:35:23Z</time>
      </trkpt>
      <trkpt lat="48.08422" lon="7.67705">
        <ele>419.27</ele>
        <time>2014-08-29T07:35:27Z</time>
      </trkpt>
      <trkpt lat="48.08425" lon="7.67704">
        <ele>415.43</ele>
        <time>2014-08-29T07:35:30Z</time>
      </trkpt>
      <trkpt lat="48.08435" lon="7.67685">
        <ele>413.98</ele>
        <time>2014-08-29T07:35:42Z</time>
      </trkpt>
      <trkpt lat="48.08435" lon="7.67683">
        <ele>413.5</ele>
        <time>2014-08-29T07:35:43Z</time>
      </trkpt>
      <trkpt lat="48.08438" lon="7.6768">
        <ele>417.83</ele>
        <time>2014-08-29T07:35:45Z</time>
      </trkpt>
      <trkpt lat="48.08442" lon="7.6767">
        <ele>415.43</ele>
        <time>2014-08-29T07:35:51Z</time>
      </trkpt>
      <trkpt lat="48.08445" lon="7.67665">
        <ele>417.35</ele>
        <time>2014-08-29T07:35:54Z</time>
      </trkpt>
      <trkpt lat="48.08453" lon="7.67651">
        <ele>413.98</ele>
        <time>2014-08-29T07:36:01Z</time>
      </trkpt>
      <trkpt lat="48.08461" lon="7.67627">
        <ele>416.87</ele>
        <time>2014-08-29T07:36:12Z</time>
      </trkpt>
      <trkpt lat="48.08463" lon="7.67619">
        <ele>413.98</ele>
        <time>2014-08-29T07:36:16Z</time>
      </trkpt>
      <trkpt lat="48.08464" lon="7.67617">
        <ele>414.47</ele>
        <time>2014-08-29T07:36:17Z</time>
      </trkpt>
      <trkpt lat="48.08464" lon="7.67612">
        <ele>415.91</ele>
        <time>2014-08-29T07:36:20Z</time>
      </trkpt>
      <trkpt lat="48.08467" lon="7.67603">
        <ele>414.47</ele>
        <time>2014-08-29T07:36:24Z</time>
      </trkpt>
      <trkpt lat="48.08468" lon="7.6758">
        <ele>413.5</ele>
        <time>2014-08-29T07:36:41Z</time>
      </trkpt>
      <trkpt lat="48.08468" lon="7.67574">
        <ele>415.91</ele>
        <time>2014-08-29T07:36:44Z</time>
      </trkpt>
      <trkpt lat="48.08469" lon="7.67573">
        <ele>412.54</ele>
        <time>2014-08-29T07:36:45Z</time>
      </trkpt>
      <trkpt lat="48.08469" lon="7.67571">
        <ele>413.98</ele>
        <time>2014-08-29T07:36:46Z</time>
      </trkpt>
      <trkpt lat="48.0847" lon="7.67564">
        <ele>417.35</ele>
        <time>2014-08-29T07:36:50Z</time>
      </trkpt>
      <trkpt lat="48.08472" lon="7.67562">
        <ele>413.02</ele>
        <time>2014-08-29T07:36:53Z</time>
      </trkpt>
      <trkpt lat="48.08471" lon="7.6756">
        <ele>413.02</ele>
        <time>2014-08-29T07:36:54Z</time>
      </trkpt>
      <trkpt lat="48.0847" lon="7.67555">
        <ele>416.39</ele>
        <time>2014-08-29T07:36:56Z</time>
      </trkpt>
      <trkpt lat="48.08456" lon="7.67532">
        <ele>417.35</ele>
        <time>2014-08-29T07:37:11Z</time>
      </trkpt>
      <trkpt lat="48.08454" lon="7.67529">
        <ele>413.98</ele>
        <time>2014-08-29T07:37:14Z</time>
      </trkpt>
      <trkpt lat="48.08448" lon="7.67525">
        <ele>414.95</ele>
        <time>2014-08-29T07:37:23Z</time>
      </trkpt>
      <trkpt lat="48.08434" lon="7.6751">
        <ele>413.02</ele>
        <time>2014-08-29T07:37:29Z</time>
      </trkpt>
      <trkpt lat="48.08431" lon="7.67508">
        <ele>417.35</ele>
        <time>2014-08-29T07:37:31Z</time>
      </trkpt>
      <trkpt lat="48.08426" lon="7.67506">
        <ele>413.02</ele>
        <time>2014-08-29T07:37:35Z</time>
      </trkpt>
      <trkpt lat="48.08425" lon="7.67506">
        <ele>413.02</ele>
        <time>2014-08-29T07:37:36Z</time>
      </trkpt>
      <trkpt lat="48.08425" lon="7.67506">
        <ele>416.87</ele>
        <time>2014-08-29T07:37:37Z</time>
      </trkpt>
      <trkpt lat="48.08424" lon="7.67504">
        <ele>416.39</ele>
        <time>2014-08-29T07:37:38Z</time>
      </trkpt>
      <trkpt lat="48.08422" lon="7.675">
        <ele>413.02</ele>
        <time>2014-08-29T07:37:43Z</time>
      </trkpt>
      <trkpt lat="48.0842" lon="7.67496">
        <ele>416.39</ele>
        <time>2014-08-29T07:37:45Z</time>
      </trkpt>
      <trkpt lat="48.08418" lon="7.67494">
        <ele>416.39</ele>
        <time>2014-08-29T07:37:46Z</time>
      </trkpt>
      <trkpt lat="48.08408" lon="7.67488">
        <ele>416.87</ele>
        <time>2014-08-29T07:37:54Z</time>
      </trkpt>
      <trkpt lat="48.08405" lon="7.67483">
        <ele>413.5</ele>
        <time>2014-08-29T07:37:58Z</time>
      </trkpt>
      <trkpt lat="48.08404" lon="7.67482">
        <ele>414.95</ele>
        <time>2014-08-29T07:37:59Z</time>
      </trkpt>
      <trkpt lat="48.0839" lon="7.67468">
        <ele>416.39</ele>
        <time>2014-08-29T07:38:15Z</time>
      </trkpt>
      <trkpt lat="48.08397" lon="7.67457">
        <ele>419.75</ele>
        <time>2014-08-29T07:38:33Z</time>
      </trkpt>
      <trkpt lat="48.08398" lon="7.67455">
        <ele>418.31</ele>
        <time>2014-08-29T07:38:34Z</time>
      </trkpt>
      <trkpt lat="48.08398" lon="7.67446">
        <ele>420.71</ele>
        <time>2014-08-29T07:38:38Z</time>
      </trkpt>
      <trkpt lat="48.08398" lon="7.67444">
        <ele>420.23</ele>
        <time>2014-08-29T07:38:39Z</time>
      </trkpt>
      <trkpt lat="48.08399" lon="7.67436">
        <ele>418.31</ele>
        <time>2014-08-29T07:38:41Z</time>
      </trkpt>
      <trkpt lat="48.08401" lon="7.67425">
        <ele>418.31</ele>
        <time>2014-08-29T07:38:47Z</time>
      </trkpt>
      <trkpt lat="48.08401" lon="7.67407">
        <ele>419.75</ele>
        <time>2014-08-29T07:38:54Z</time>
      </trkpt>
      <trkpt lat="48.08401" lon="7.67381">
        <ele>416.87</ele>
        <time>2014-08-29T07:39:07Z</time>
      </trkpt>
      <trkpt lat="48.08403" lon="7.67378">
        <ele>415.91</ele>
        <time>2014-08-29T07:39:09Z</time>
      </trkpt>
      <trkpt lat="48.08404" lon="7.67375">
        <ele>418.79</ele>
        <time>2014-08-29T07:39:11Z</time>
      </trkpt>
      <trkpt lat="48.08405" lon="7.67371">
        <ele>423.6</ele>
        <time>2014-08-29T07:39:13Z</time>
      </trkpt>
      <trkpt lat="48.08404" lon="7.67368">
        <ele>417.83</ele>
        <time>2014-08-29T07:39:14Z</time>
      </trkpt>
      <trkpt lat="48.08404" lon="7.67366">
        <ele>412.54</ele>
        <time>2014-08-29T07:39:15Z</time>
      </trkpt>
      <trkpt lat="48.08404" lon="7.67365">
        <ele>412.06</ele>
        <time>2014-08-29T07:39:16Z</time>
      </trkpt>
      <trkpt lat="48.08403" lon="7.67363">
        <ele>415.91</ele>
        <time>2014-08-29T07:39:17Z</time>
      </trkpt>
      <trkpt lat="48.08403" lon="7.6736">
        <ele>419.75</ele>
        <time>2014-08-29T07:39:18Z</time>
      </trkpt>
      <trkpt lat="48.08402" lon="7.67351">
        <ele>419.27</ele>
        <time>2014-08-29T07:39:21Z</time>
      </trkpt>
      <trkpt lat="48.08399" lon="7.67346">
        <ele>416.39</ele>
        <time>2014-08-29T07:39:24Z</time>
      </trkpt>
      <trkpt lat="48.08398" lon="7.67343">
        <ele>420.23</ele>
        <time>2014-08-29T07:39:28Z</time>
      </trkpt>
      <trkpt lat="48.08398" lon="7.6734">
        <ele>416.87</ele>
        <time>2014-08-29T07:39:31Z</time>
      </trkpt>
      <trkpt lat="48.084" lon="7.67331">
        <ele>418.31</ele>
        <time>2014-08-29T07:39:43Z</time>
      </trkpt>
      <trkpt lat="48.08408" lon="7.6734">
        <ele>419.27</ele>
        <time>2014-08-29T07:40:01Z</time>
      </trkpt>
      <trkpt lat="48.08411" lon="7.67342">
        <ele>418.31</ele>
        <time>2014-08-29T07:40:04Z</time>
      </trkpt>
      <trkpt lat="48.08418" lon="7.67346">
        <ele>419.75</ele>
        <time>2014-08-29T07:40:12Z</time>
      </trkpt>
      <trkpt lat="48.08442" lon="7.67351">
        <ele>423.6</ele>
        <time>2014-08-29T07:40:29Z</time>
      </trkpt>
      <trkpt lat="48.08445" lon="7.67355">
        <ele>420.71</ele>
        <time>2014-08-29T07:40:32Z</time>
      </trkpt>
      <trkpt lat="48.08455" lon="7.67355">
        <ele>422.16</ele>
        <time>2014-08-29T07:40:38Z</time>
      </trkpt>
      <trkpt lat="48.08473" lon="7.67349">
        <ele>421.68</ele>
        <time>2014-08-29T07:40:52Z</time>
      </trkpt>
      <trkpt lat="48.08485" lon="7.67364">
        <ele>421.68</ele>
        <time>2014-08-29T07:41:04Z</time>
      </trkpt>
      <trkpt lat="48.08499" lon="7.67373">
        <ele>422.64</ele>
        <time>2014-08-29T07:41:19Z</time>
      </trkpt>
      <trkpt lat="48.08502" lon="7.67372">
        <ele>423.12</ele>
        <time>2014-08-29T07:41:44Z</time>
      </trkpt>
      <trkpt lat="48.08506" lon="7.67368">
        <ele>423.6</ele>
        <time>2014-08-29T07:42:06Z</time>
      </trkpt>
      <trkpt lat="48.08509" lon="7.67361">
        <ele>423.12</ele>
        <time>2014-08-29T07:42:23Z</time>
      </trkpt>
      <trkpt lat="48.08512" lon="7.67362">
        <ele>423.12</ele>
        <time>2014-08-29T07:43:35Z</time>
      </trkpt>
      <trkpt lat="48.08512" lon="7.67362">
        <ele>423.12</ele>
        <time>2014-08-29T07:45:00Z</time>
      </trkpt>
      <trkpt lat="48.08512" lon="7.67362">
        <ele>423.6</ele>
        <time>2014-08-29T07:45:41Z</time>
      </trkpt>
      <trkpt lat="48.08515" lon="7.67359">
        <ele>423.12</ele>
        <time>2014-08-29T07:46:07Z</time>
      </trkpt>
      <trkpt lat="48.08516" lon="7.67324">
        <ele>423.6</ele>
        <time>2014-08-29T07:46:27Z</time>
      </trkpt>
      <trkpt lat="48.08496" lon="7.67294">
        <ele>423.6</ele>
        <time>2014-08-29T07:46:46Z</time>
      </trkpt>
      <trkpt lat="48.08493" lon="7.67261">
        <ele>423.6</ele>
        <time>2014-08-29T07:47:04Z</time>
      </trkpt>
      <trkpt lat="48.08489" lon="7.67235">
        <ele>422.16</ele>
        <time>2014-08-29T07:47:20Z</time>
      </trkpt>
      <trkpt lat="48.0849" lon="7.67229">
        <ele>426</ele>
        <time>2014-08-29T07:47:22Z</time>
      </trkpt>
      <trkpt lat="48.08491" lon="7.67226">
        <ele>426</ele>
        <time>2014-08-29T07:47:23Z</time>
      </trkpt>
      <trkpt lat="48.08491" lon="7.67224">
        <ele>422.16</ele>
        <time>2014-08-29T07:47:24Z</time>
      </trkpt>
      <trkpt lat="48.08489" lon="7.67216">
        <ele>426</ele>
        <time>2014-08-29T07:47:28Z</time>
      </trkpt>
      <trkpt lat="48.08488" lon="7.67215">
        <ele>426</ele>
        <time>2014-08-29T07:47:29Z</time>
      </trkpt>
      <trkpt lat="48.08486" lon="7.67212">
        <ele>421.19</ele>
        <time>2014-08-29T07:47:31Z</time>
      </trkpt>
      <trkpt lat="48.08486" lon="7.67209">
        <ele>425.04</ele>
        <time>2014-08-29T07:47:33Z</time>
      </trkpt>
      <trkpt lat="48.08487" lon="7.67207">
        <ele>424.56</ele>
        <time>2014-08-29T07:47:37Z</time>
      </trkpt>
      <trkpt lat="48.08486" lon="7.67205">
        <ele>426</ele>
        <time>2014-08-29T07:47:40Z</time>
      </trkpt>
      <trkpt lat="48.08486" lon="7.67204">
        <ele>421.68</ele>
        <time>2014-08-29T07:47:41Z</time>
      </trkpt>
      <trkpt lat="48.08486" lon="7.67202">
        <ele>423.6</ele>
        <time>2014-08-29T07:47:42Z</time>
      </trkpt>
      <trkpt lat="48.08486" lon="7.672">
        <ele>426.96</ele>
        <time>2014-08-29T07:47:44Z</time>
      </trkpt>
      <trkpt lat="48.08486" lon="7.67196">
        <ele>423.12</ele>
        <time>2014-08-29T07:47:46Z</time>
      </trkpt>
      <trkpt lat="48.08487" lon="7.67193">
        <ele>426.48</ele>
        <time>2014-08-29T07:47:48Z</time>
      </trkpt>
      <trkpt lat="48.0849" lon="7.67178">
        <ele>426.48</ele>
        <time>2014-08-29T07:48:01Z</time>
      </trkpt>
      <trkpt lat="48.0849" lon="7.67175">
        <ele>426</ele>
        <time>2014-08-29T07:48:03Z</time>
      </trkpt>
      <trkpt lat="48.08491" lon="7.67166">
        <ele>426</ele>
        <time>2014-08-29T07:48:07Z</time>
      </trkpt>
      <trkpt lat="48.08494" lon="7.67156">
        <ele>428.4</ele>
        <time>2014-08-29T07:48:10Z</time>
      </trkpt>
      <trkpt lat="48.08494" lon="7.67153">
        <ele>425.04</ele>
        <time>2014-08-29T07:48:11Z</time>
      </trkpt>
      <trkpt lat="48.08496" lon="7.6715">
        <ele>426</ele>
        <time>2014-08-29T07:48:12Z</time>
      </trkpt>
      <trkpt lat="48.08497" lon="7.67142">
        <ele>428.89</ele>
        <time>2014-08-29T07:48:15Z</time>
      </trkpt>
      <trkpt lat="48.08497" lon="7.67139">
        <ele>426.48</ele>
        <time>2014-08-29T07:48:16Z</time>
      </trkpt>
      <trkpt lat="48.08497" lon="7.67132">
        <ele>426</ele>
        <time>2014-08-29T07:48:18Z</time>
      </trkpt>
      <trkpt lat="48.08492" lon="7.67117">
        <ele>426</ele>
        <time>2014-08-29T07:48:24Z</time>
      </trkpt>
      <trkpt lat="48.08483" lon="7.67096">
        <ele>426.96</ele>
        <time>2014-08-29T07:48:42Z</time>
      </trkpt>
      <trkpt lat="48.08482" lon="7.67086">
        <ele>426.96</ele>
        <time>2014-08-29T07:48:48Z</time>
      </trkpt>
      <trkpt lat="48.08479" lon="7.67078">
        <ele>427.92</ele>
        <time>2014-08-29T07:48:54Z</time>
      </trkpt>
      <trkpt lat="48.08479" lon="7.67076">
        <ele>425.52</ele>
        <time>2014-08-29T07:48:56Z</time>
      </trkpt>
      <trkpt lat="48.08476" lon="7.67065">
        <ele>426</ele>
        <time>2014-08-29T07:49:02Z</time>
      </trkpt>
      <trkpt lat="48.08475" lon="7.67062">
        <ele>427.44</ele>
        <time>2014-08-29T07:49:04Z</time>
      </trkpt>
      <trkpt lat="48.08473" lon="7.67049">
        <ele>426.96</ele>
        <time>2014-08-29T07:49:22Z</time>
      </trkpt>
      <trkpt lat="48.0847" lon="7.67048">
        <ele>428.89</ele>
        <time>2014-08-29T07:49:24Z</time>
      </trkpt>
      <trkpt lat="48.0847" lon="7.67045">
        <ele>426.48</ele>
        <time>2014-08-29T07:49:27Z</time>
      </trkpt>
      <trkpt lat="48.0847" lon="7.67044">
        <ele>427.44</ele>
        <time>2014-08-29T07:49:28Z</time>
      </trkpt>
      <trkpt lat="48.0847" lon="7.67041">
        <ele>428.89</ele>
        <time>2014-08-29T07:49:30Z</time>
      </trkpt>
      <trkpt lat="48.08472" lon="7.6704">
        <ele>427.44</ele>
        <time>2014-08-29T07:49:32Z</time>
      </trkpt>
      <trkpt lat="48.08474" lon="7.67037">
        <ele>428.4</ele>
        <time>2014-08-29T07:49:35Z</time>
      </trkpt>
      <trkpt lat="48.08485" lon="7.67022">
        <ele>429.85</ele>
        <time>2014-08-29T07:49:48Z</time>
      </trkpt>
      <trkpt lat="48.08491" lon="7.67017">
        <ele>429.85</ele>
        <time>2014-08-29T07:49:53Z</time>
      </trkpt>
      <trkpt lat="48.08496" lon="7.67013">
        <ele>428.89</ele>
        <time>2014-08-29T07:49:57Z</time>
      </trkpt>
      <trkpt lat="48.08498" lon="7.67009">
        <ele>430.33</ele>
        <time>2014-08-29T07:49:59Z</time>
      </trkpt>
      <trkpt lat="48.085" lon="7.67004">
        <ele>428.89</ele>
        <time>2014-08-29T07:50:02Z</time>
      </trkpt>
      <trkpt lat="48.08503" lon="7.67001">
        <ele>430.81</ele>
        <time>2014-08-29T07:50:04Z</time>
      </trkpt>
      <trkpt lat="48.08503" lon="7.67001">
        <ele>430.33</ele>
        <time>2014-08-29T07:50:05Z</time>
      </trkpt>
      <trkpt lat="48.08506" lon="7.66995">
        <ele>428.89</ele>
        <time>2014-08-29T07:50:08Z</time>
      </trkpt>
      <trkpt lat="48.0851" lon="7.66986">
        <ele>428.89</ele>
        <time>2014-08-29T07:50:13Z</time>
      </trkpt>
      <trkpt lat="48.0851" lon="7.66984">
        <ele>430.81</ele>
        <time>2014-08-29T07:50:15Z</time>
      </trkpt>
      <trkpt lat="48.08513" lon="7.6698">
        <ele>429.37</ele>
        <time>2014-08-29T07:50:19Z</time>
      </trkpt>
      <trkpt lat="48.08517" lon="7.66972">
        <ele>431.29</ele>
        <time>2014-08-29T07:50:22Z</time>
      </trkpt>
      <trkpt lat="48.08525" lon="7.6694">
        <ele>431.29</ele>
        <time>2014-08-29T07:50:35Z</time>
      </trkpt>
      <trkpt lat="48.08528" lon="7.66907">
        <ele>427.92</ele>
        <time>2014-08-29T07:50:51Z</time>
      </trkpt>
      <trkpt lat="48.08527" lon="7.66879">
        <ele>428.89</ele>
        <time>2014-08-29T07:51:08Z</time>
      </trkpt>
      <trkpt lat="48.08525" lon="7.66867">
        <ele>428.4</ele>
        <time>2014-08-29T07:51:12Z</time>
      </trkpt>
      <trkpt lat="48.08521" lon="7.66856">
        <ele>428.4</ele>
        <time>2014-08-29T07:51:16Z</time>
      </trkpt>
      <trkpt lat="48.0851" lon="7.66831">
        <ele>424.08</ele>
        <time>2014-08-29T07:51:27Z</time>
      </trkpt>
      <trkpt lat="48.08517" lon="7.66822">
        <ele>427.44</ele>
        <time>2014-08-29T07:51:34Z</time>
      </trkpt>
      <trkpt lat="48.08518" lon="7.6682">
        <ele>428.4</ele>
        <time>2014-08-29T07:51:36Z</time>
      </trkpt>
      <trkpt lat="48.0852" lon="7.66816">
        <ele>425.04</ele>
        <time>2014-08-29T07:51:40Z</time>
      </trkpt>
      <trkpt lat="48.08521" lon="7.66814">
        <ele>424.08</ele>
        <time>2014-08-29T07:51:42Z</time>
      </trkpt>
      <trkpt lat="48.08526" lon="7.6681">
        <ele>422.64</ele>
        <time>2014-08-29T07:51:46Z</time>
      </trkpt>
      <trkpt lat="48.08529" lon="7.66806">
        <ele>426.48</ele>
        <time>2014-08-29T07:51:50Z</time>
      </trkpt>
      <trkpt lat="48.08531" lon="7.66805">
        <ele>427.92</ele>
        <time>2014-08-29T07:51:52Z</time>
      </trkpt>
      <trkpt lat="48.08534" lon="7.66802">
        <ele>424.08</ele>
        <time>2014-08-29T07:51:55Z</time>
      </trkpt>
      <trkpt lat="48.08536" lon="7.66798">
        <ele>427.92</ele>
        <time>2014-08-29T07:51:59Z</time>
      </trkpt>
      <trkpt lat="48.08537" lon="7.66794">
        <ele>423.12</ele>
        <time>2014-08-29T07:52:01Z</time>
      </trkpt>
      <trkpt lat="48.08539" lon="7.66792">
        <ele>426.48</ele>
        <time>2014-08-29T07:52:03Z</time>
      </trkpt>
      <trkpt lat="48.08542" lon="7.66785">
        <ele>422.64</ele>
        <time>2014-08-29T07:52:07Z</time>
      </trkpt>
      <trkpt lat="48.08542" lon="7.66783">
        <ele>426.48</ele>
        <time>2014-08-29T07:52:08Z</time>
      </trkpt>
      <trkpt lat="48.08548" lon="7.66771">
        <ele>427.44</ele>
        <time>2014-08-29T07:52:15Z</time>
      </trkpt>
      <trkpt lat="48.08551" lon="7.66766">
        <ele>424.56</ele>
        <time>2014-08-29T07:52:18Z</time>
      </trkpt>
      <trkpt lat="48.08553" lon="7.66758">
        <ele>428.4</ele>
        <time>2014-08-29T07:52:23Z</time>
      </trkpt>
      <trkpt lat="48.08555" lon="7.66754">
        <ele>424.56</ele>
        <time>2014-08-29T07:52:26Z</time>
      </trkpt>
      <trkpt lat="48.08556" lon="7.6675">
        <ele>423.6</ele>
        <time>2014-08-29T07:52:28Z</time>
      </trkpt>
      <trkpt lat="48.08556" lon="7.66749">
        <ele>421.68</ele>
        <time>2014-08-29T07:52:29Z</time>
      </trkpt>
      <trkpt lat="48.08559" lon="7.66737">
        <ele>427.44</ele>
        <time>2014-08-29T07:52:35Z</time>
      </trkpt>
      <trkpt lat="48.0856" lon="7.66731">
        <ele>426</ele>
        <time>2014-08-29T07:52:38Z</time>
      </trkpt>
      <trkpt lat="48.08564" lon="7.66722">
        <ele>423.12</ele>
        <time>2014-08-29T07:52:42Z</time>
      </trkpt>
      <trkpt lat="48.08566" lon="7.66717">
        <ele>420.23</ele>
        <time>2014-08-29T07:52:45Z</time>
      </trkpt>
      <trkpt lat="48.08568" lon="7.66708">
        <ele>423.6</ele>
        <time>2014-08-29T07:52:52Z</time>
      </trkpt>
      <trkpt lat="48.08567" lon="7.66706">
        <ele>425.04</ele>
        <time>2014-08-29T07:52:54Z</time>
      </trkpt>
      <trkpt lat="48.08567" lon="7.66696">
        <ele>420.71</ele>
        <time>2014-08-29T07:53:00Z</time>
      </trkpt>
      <trkpt lat="48.08568" lon="7.66692">
        <ele>416.87</ele>
        <time>2014-08-29T07:53:03Z</time>
      </trkpt>
      <trkpt lat="48.0857" lon="7.66682">
        <ele>419.75</ele>
        <time>2014-08-29T07:53:09Z</time>
      </trkpt>
      <trkpt lat="48.08576" lon="7.66663">
        <ele>418.79</ele>
        <time>2014-08-29T07:53:19Z</time>
      </trkpt>
      <trkpt lat="48.08578" lon="7.66655">
        <ele>415.43</ele>
        <time>2014-08-29T07:53:22Z</time>
      </trkpt>
      <trkpt lat="48.0858" lon="7.66649">
        <ele>418.79</ele>
        <time>2014-08-29T07:53:24Z</time>
      </trkpt>
      <trkpt lat="48.08582" lon="7.66641">
        <ele>419.75</ele>
        <time>2014-08-29T07:53:26Z</time>
      </trkpt>
      <trkpt lat="48.08585" lon="7.66634">
        <ele>421.19</ele>
        <time>2014-08-29T07:53:28Z</time>
      </trkpt>
      <trkpt lat="48.08591" lon="7.66617">
        <ele>416.39</ele>
        <time>2014-08-29T07:53:35Z</time>
      </trkpt>
      <trkpt lat="48.08591" lon="7.66615">
        <ele>416.87</ele>
        <time>2014-08-29T07:53:36Z</time>
      </trkpt>
      <trkpt lat="48.08592" lon="7.66611">
        <ele>413.98</ele>
        <time>2014-08-29T07:53:38Z</time>
      </trkpt>
      <trkpt lat="48.08592" lon="7.66605">
        <ele>417.83</ele>
        <time>2014-08-29T07:53:40Z</time>
      </trkpt>
      <trkpt lat="48.08592" lon="7.66601">
        <ele>418.79</ele>
        <time>2014-08-29T07:53:42Z</time>
      </trkpt>
      <trkpt lat="48.0859" lon="7.66597">
        <ele>420.23</ele>
        <time>2014-08-29T07:53:45Z</time>
      </trkpt>
      <trkpt lat="48.08589" lon="7.66596">
        <ele>419.27</ele>
        <time>2014-08-29T07:53:46Z</time>
      </trkpt>
      <trkpt lat="48.08588" lon="7.66588">
        <ele>415.91</ele>
        <time>2014-08-29T07:53:51Z</time>
      </trkpt>
      <trkpt lat="48.08589" lon="7.66586">
        <ele>415.91</ele>
        <time>2014-08-29T07:53:52Z</time>
      </trkpt>
      <trkpt lat="48.08591" lon="7.66576">
        <ele>417.35</ele>
        <time>2014-08-29T07:53:56Z</time>
      </trkpt>
      <trkpt lat="48.08585" lon="7.66566">
        <ele>416.87</ele>
        <time>2014-08-29T07:54:00Z</time>
      </trkpt>
      <trkpt lat="48.08579" lon="7.6654">
        <ele>415.43</ele>
        <time>2014-08-29T07:54:14Z</time>
      </trkpt>
      <trkpt lat="48.08576" lon="7.6652">
        <ele>415.43</ele>
        <time>2014-08-29T07:54:29Z</time>
      </trkpt>
      <trkpt lat="48.08576" lon="7.6652">
        <ele>412.06</ele>
        <time>2014-08-29T07:55:02Z</time>
      </trkpt>
      <trkpt lat="48.08572" lon="7.66514">
        <ele>415.43</ele>
        <time>2014-08-29T07:55:12Z</time>
      </trkpt>
      <trkpt lat="48.0857" lon="7.66512">
        <ele>413.98</ele>
        <time>2014-08-29T07:55:29Z</time>
      </trkpt>
      <trkpt lat="48.08553" lon="7.66496">
        <ele>412.54</ele>
        <time>2014-08-29T07:55:42Z</time>
      </trkpt>
      <trkpt lat="48.08552" lon="7.66493">
        <ele>412.06</ele>
        <time>2014-08-29T07:55:44Z</time>
      </trkpt>
      <trkpt lat="48.08546" lon="7.66479">
        <ele>408.7</ele>
        <time>2014-08-29T07:55:57Z</time>
      </trkpt>
      <trkpt lat="48.08544" lon="7.66463">
        <ele>405.81</ele>
        <time>2014-08-29T07:56:07Z</time>
      </trkpt>
      <trkpt lat="48.08544" lon="7.66461">
        <ele>407.26</ele>
        <time>2014-08-29T07:56:08Z</time>
      </trkpt>
      <trkpt lat="48.08544" lon="7.66441">
        <ele>401.49</ele>
        <time>2014-08-29T07:56:17Z</time>
      </trkpt>
      <trkpt lat="48.08544" lon="7.66437">
        <ele>400.53</ele>
        <time>2014-08-29T07:56:19Z</time>
      </trkpt>
      <trkpt lat="48.08544" lon="7.66431">
        <ele>407.26</ele>
        <time>2014-08-29T07:56:22Z</time>
      </trkpt>
      <trkpt lat="48.08544" lon="7.6643">
        <ele>406.77</ele>
        <time>2014-08-29T07:56:23Z</time>
      </trkpt>
      <trkpt lat="48.08544" lon="7.66429">
        <ele>402.93</ele>
        <time>2014-08-29T07:56:24Z</time>
      </trkpt>
      <trkpt lat="48.08544" lon="7.66427">
        <ele>396.68</ele>
        <time>2014-08-29T07:56:26Z</time>
      </trkpt>
      <trkpt lat="48.08543" lon="7.66426">
        <ele>397.64</ele>
        <time>2014-08-29T07:56:27Z</time>
      </trkpt>
      <trkpt lat="48.08542" lon="7.66422">
        <ele>401.01</ele>
        <time>2014-08-29T07:56:30Z</time>
      </trkpt>
      <trkpt lat="48.08541" lon="7.66419">
        <ele>403.89</ele>
        <time>2014-08-29T07:56:32Z</time>
      </trkpt>
      <trkpt lat="48.08533" lon="7.66406">
        <ele>401.49</ele>
        <time>2014-08-29T07:56:41Z</time>
      </trkpt>
      <trkpt lat="48.08531" lon="7.66402">
        <ele>396.2</ele>
        <time>2014-08-29T07:56:45Z</time>
      </trkpt>
      <trkpt lat="48.0853" lon="7.66401">
        <ele>396.2</ele>
        <time>2014-08-29T07:56:46Z</time>
      </trkpt>
      <trkpt lat="48.08527" lon="7.66397">
        <ele>393.32</ele>
        <time>2014-08-29T07:56:49Z</time>
      </trkpt>
      <trkpt lat="48.08526" lon="7.66395">
        <ele>396.2</ele>
        <time>2014-08-29T07:56:51Z</time>
      </trkpt>
      <trkpt lat="48.08524" lon="7.66389">
        <ele>398.6</ele>
        <time>2014-08-29T07:56:55Z</time>
      </trkpt>
      <trkpt lat="48.08522" lon="7.66385">
        <ele>390.43</ele>
        <time>2014-08-29T07:56:59Z</time>
      </trkpt>
      <trkpt lat="48.08522" lon="7.66381">
        <ele>395.24</ele>
        <time>2014-08-29T07:57:02Z</time>
      </trkpt>
      <trkpt lat="48.08521" lon="7.6638">
        <ele>388.99</ele>
        <time>2014-08-29T07:57:05Z</time>
      </trkpt>
      <trkpt lat="48.0852" lon="7.66374">
        <ele>393.8</ele>
        <time>2014-08-29T07:57:08Z</time>
      </trkpt>
      <trkpt lat="48.08519" lon="7.66371">
        <ele>389.47</ele>
        <time>2014-08-29T07:57:10Z</time>
      </trkpt>
      <trkpt lat="48.08519" lon="7.6637">
        <ele>385.15</ele>
        <time>2014-08-29T07:57:12Z</time>
      </trkpt>
      <trkpt lat="48.08518" lon="7.66368">
        <ele>385.15</ele>
        <time>2014-08-29T07:57:13Z</time>
      </trkpt>
      <trkpt lat="48.08517" lon="7.66362">
        <ele>388.03</ele>
        <time>2014-08-29T07:57:16Z</time>
      </trkpt>
      <trkpt lat="48.08516" lon="7.66358">
        <ele>394.28</ele>
        <time>2014-08-29T07:57:19Z</time>
      </trkpt>
      <trkpt lat="48.08515" lon="7.66357">
        <ele>390.43</ele>
        <time>2014-08-29T07:57:20Z</time>
      </trkpt>
      <trkpt lat="48.08514" lon="7.66352">
        <ele>387.07</ele>
        <time>2014-08-29T07:57:23Z</time>
      </trkpt>
      <trkpt lat="48.08513" lon="7.66346">
        <ele>388.03</ele>
        <time>2014-08-29T07:57:27Z</time>
      </trkpt>
      <trkpt lat="48.08512" lon="7.66345">
        <ele>383.7</ele>
        <time>2014-08-29T07:57:32Z</time>
      </trkpt>
      <trkpt lat="48.08512" lon="7.66343">
        <ele>385.63</ele>
        <time>2014-08-29T07:57:33Z</time>
      </trkpt>
      <trkpt lat="48.08513" lon="7.66323">
        <ele>380.82</ele>
        <time>2014-08-29T07:57:48Z</time>
      </trkpt>
      <trkpt lat="48.08513" lon="7.66312">
        <ele>377.94</ele>
        <time>2014-08-29T07:57:54Z</time>
      </trkpt>
      <trkpt lat="48.08514" lon="7.66309">
        <ele>381.3</ele>
        <time>2014-08-29T07:57:55Z</time>
      </trkpt>
      <trkpt lat="48.08515" lon="7.66306">
        <ele>383.22</ele>
        <time>2014-08-29T07:57:57Z</time>
      </trkpt>
      <trkpt lat="48.08516" lon="7.66305">
        <ele>380.34</ele>
        <time>2014-08-29T07:57:58Z</time>
      </trkpt>
      <trkpt lat="48.08518" lon="7.66302">
        <ele>383.7</ele>
        <time>2014-08-29T07:58:01Z</time>
      </trkpt>
      <trkpt lat="48.08518" lon="7.66301">
        <ele>383.22</ele>
        <time>2014-08-29T07:58:02Z</time>
      </trkpt>
      <trkpt lat="48.08519" lon="7.663">
        <ele>377.94</ele>
        <time>2014-08-29T07:58:03Z</time>
      </trkpt>
      <trkpt lat="48.0852" lon="7.66296">
        <ele>377.45</ele>
        <time>2014-08-29T07:58:05Z</time>
      </trkpt>
      <trkpt lat="48.0852" lon="7.66295">
        <ele>380.34</ele>
        <time>2014-08-29T07:58:06Z</time>
      </trkpt>
      <trkpt lat="48.08522" lon="7.66294">
        <ele>380.34</ele>
        <time>2014-08-29T07:58:07Z</time>
      </trkpt>
      <trkpt lat="48.08525" lon="7.66289">
        <ele>376.97</ele>
        <time>2014-08-29T07:58:12Z</time>
      </trkpt>
      <trkpt lat="48.08526" lon="7.66286">
        <ele>375.05</ele>
        <time>2014-08-29T07:58:14Z</time>
      </trkpt>
      <trkpt lat="48.08528" lon="7.66283">
        <ele>376.97</ele>
        <time>2014-08-29T07:58:17Z</time>
      </trkpt>
      <trkpt lat="48.08529" lon="7.66281">
        <ele>373.61</ele>
        <time>2014-08-29T07:58:22Z</time>
      </trkpt>
      <trkpt lat="48.0853" lon="7.6628">
        <ele>376.97</ele>
        <time>2014-08-29T07:58:24Z</time>
      </trkpt>
      <trkpt lat="48.0853" lon="7.66279">
        <ele>376.49</ele>
        <time>2014-08-29T07:58:25Z</time>
      </trkpt>
      <trkpt lat="48.0853" lon="7.66279">
        <ele>372.17</ele>
        <time>2014-08-29T07:58:30Z</time>
      </trkpt>
      <trkpt lat="48.0853" lon="7.66279">
        <ele>372.17</ele>
        <time>2014-08-29T07:58:31Z</time>
      </trkpt>
      <trkpt lat="48.08531" lon="7.66277">
        <ele>376.01</ele>
        <time>2014-08-29T07:58:35Z</time>
      </trkpt>
      <trkpt lat="48.08532" lon="7.66275">
        <ele>374.57</ele>
        <time>2014-08-29T07:58:36Z</time>
      </trkpt>
      <trkpt lat="48.08535" lon="7.6627">
        <ele>370.24</ele>
        <time>2014-08-29T07:58:38Z</time>
      </trkpt>
      <trkpt lat="48.08541" lon="7.66259">
        <ele>374.57</ele>
        <time>2014-08-29T07:58:42Z</time>
      </trkpt>
      <trkpt lat="48.08542" lon="7.66258">
        <ele>373.13</ele>
        <time>2014-08-29T07:58:43Z</time>
      </trkpt>
      <trkpt lat="48.08542" lon="7.66255">
        <ele>368.32</ele>
        <time>2014-08-29T07:58:45Z</time>
      </trkpt>
      <trkpt lat="48.08544" lon="7.66253">
        <ele>373.13</ele>
        <time>2014-08-29T07:58:47Z</time>
      </trkpt>
      <trkpt lat="48.08545" lon="7.66252">
        <ele>369.76</ele>
        <time>2014-08-29T07:58:48Z</time>
      </trkpt>
      <trkpt lat="48.08546" lon="7.66249">
        <ele>368.32</ele>
        <time>2014-08-29T07:58:50Z</time>
      </trkpt>
      <trkpt lat="48.08548" lon="7.66246">
        <ele>372.17</ele>
        <time>2014-08-29T07:58:52Z</time>
      </trkpt>
      <trkpt lat="48.08548" lon="7.66244">
        <ele>371.21</ele>
        <time>2014-08-29T07:58:53Z</time>
      </trkpt>
      <trkpt lat="48.0855" lon="7.66237">
        <ele>365.44</ele>
        <time>2014-08-29T07:58:58Z</time>
      </trkpt>
      <trkpt lat="48.0855" lon="7.66236">
        <ele>367.84</ele>
        <time>2014-08-29T07:58:59Z</time>
      </trkpt>
      <trkpt lat="48.08551" lon="7.66234">
        <ele>369.76</ele>
        <time>2014-08-29T07:59:01Z</time>
      </trkpt>
      <trkpt lat="48.08553" lon="7.66231">
        <ele>366.4</ele>
        <time>2014-08-29T07:59:04Z</time>
      </trkpt>
      <trkpt lat="48.08555" lon="7.66226">
        <ele>364</ele>
        <time>2014-08-29T07:59:07Z</time>
      </trkpt>
      <trkpt lat="48.08562" lon="7.66207">
        <ele>363.52</ele>
        <time>2014-08-29T07:59:19Z</time>
      </trkpt>
      <trkpt lat="48.08564" lon="7.66197">
        <ele>360.63</ele>
        <time>2014-08-29T07:59:23Z</time>
      </trkpt>
      <trkpt lat="48.08564" lon="7.66196">
        <ele>363.52</ele>
        <time>2014-08-29T07:59:24Z</time>
      </trkpt>
      <trkpt lat="48.08567" lon="7.66179">
        <ele>359.67</ele>
        <time>2014-08-29T07:59:32Z</time>
      </trkpt>
      <trkpt lat="48.08567" lon="7.66176">
        <ele>358.23</ele>
        <time>2014-08-29T07:59:34Z</time>
      </trkpt>
      <trkpt lat="48.08568" lon="7.66174">
        <ele>362.07</ele>
        <time>2014-08-29T07:59:36Z</time>
      </trkpt>
      <trkpt lat="48.08568" lon="7.66171">
        <ele>363.04</ele>
        <time>2014-08-29T07:59:38Z</time>
      </trkpt>
      <trkpt lat="48.08566" lon="7.66168">
        <ele>358.71</ele>
        <time>2014-08-29T07:59:41Z</time>
      </trkpt>
      <trkpt lat="48.08565" lon="7.66167">
        <ele>359.67</ele>
        <time>2014-08-29T07:59:42Z</time>
      </trkpt>
      <trkpt lat="48.08563" lon="7.66165">
        <ele>363.04</ele>
        <time>2014-08-29T07:59:44Z</time>
      </trkpt>
      <trkpt lat="48.08562" lon="7.66163">
        <ele>363.04</ele>
        <time>2014-08-29T07:59:45Z</time>
      </trkpt>
      <trkpt lat="48.0856" lon="7.66156">
        <ele>358.23</ele>
        <time>2014-08-29T07:59:49Z</time>
      </trkpt>
      <trkpt lat="48.08559" lon="7.66154">
        <ele>357.75</ele>
        <time>2014-08-29T07:59:50Z</time>
      </trkpt>
      <trkpt lat="48.08558" lon="7.6615">
        <ele>361.11</ele>
        <time>2014-08-29T07:59:52Z</time>
      </trkpt>
      <trkpt lat="48.08557" lon="7.66148">
        <ele>360.15</ele>
        <time>2014-08-29T07:59:53Z</time>
      </trkpt>
      <trkpt lat="48.08554" lon="7.66118">
        <ele>354.38</ele>
        <time>2014-08-29T08:00:09Z</time>
      </trkpt>
      <trkpt lat="48.08554" lon="7.66115">
        <ele>358.71</ele>
        <time>2014-08-29T08:00:10Z</time>
      </trkpt>
      <trkpt lat="48.08552" lon="7.66112">
        <ele>359.67</ele>
        <time>2014-08-29T08:00:12Z</time>
      </trkpt>
      <trkpt lat="48.08547" lon="7.66099">
        <ele>356.31</ele>
        <time>2014-08-29T08:00:23Z</time>
      </trkpt>
      <trkpt lat="48.08546" lon="7.66098">
        <ele>355.83</ele>
        <time>2014-08-29T08:00:24Z</time>
      </trkpt>
      <trkpt lat="48.08542" lon="7.66088">
        <ele>356.79</ele>
        <time>2014-08-29T08:00:30Z</time>
      </trkpt>
      <trkpt lat="48.08533" lon="7.66065">
        <ele>357.27</ele>
        <time>2014-08-29T08:00:43Z</time>
      </trkpt>
      <trkpt lat="48.08532" lon="7.66063">
        <ele>355.34</ele>
        <time>2014-08-29T08:00:45Z</time>
      </trkpt>
      <trkpt lat="48.08526" lon="7.66052">
        <ele>355.34</ele>
        <time>2014-08-29T08:00:56Z</time>
      </trkpt>
      <trkpt lat="48.08526" lon="7.66048">
        <ele>356.79</ele>
        <time>2014-08-29T08:00:58Z</time>
      </trkpt>
      <trkpt lat="48.08525" lon="7.66037">
        <ele>356.31</ele>
        <time>2014-08-29T08:01:03Z</time>
      </trkpt>
      <trkpt lat="48.08524" lon="7.66018">
        <ele>356.31</ele>
        <time>2014-08-29T08:01:14Z</time>
      </trkpt>
      <trkpt lat="48.08523" lon="7.66016">
        <ele>352.94</ele>
        <time>2014-08-29T08:01:27Z</time>
      </trkpt>
      <trkpt lat="48.08523" lon="7.66016">
        <ele>357.27</ele>
        <time>2014-08-29T08:01:28Z</time>
      </trkpt>
      <trkpt lat="48.08521" lon="7.66018">
        <ele>354.38</ele>
        <time>2014-08-29T08:01:31Z</time>
      </trkpt>
      <trkpt lat="48.08518" lon="7.6602">
        <ele>357.75</ele>
        <time>2014-08-29T08:01:34Z</time>
      </trkpt>
      <trkpt lat="48.08517" lon="7.66019">
        <ele>356.79</ele>
        <time>2014-08-29T08:01:57Z</time>
      </trkpt>
      <trkpt lat="48.08516" lon="7.65997">
        <ele>355.34</ele>
        <time>2014-08-29T08:02:12Z</time>
      </trkpt>
      <trkpt lat="48.08517" lon="7.65992">
        <ele>354.38</ele>
        <time>2014-08-29T08:02:30Z</time>
      </trkpt>
      <trkpt lat="48.08518" lon="7.65999">
        <ele>354.86</ele>
        <time>2014-08-29T08:02:35Z</time>
      </trkpt>
      <trkpt lat="48.08514" lon="7.66013">
        <ele>357.27</ele>
        <time>2014-08-29T08:02:48Z</time>
      </trkpt>
      <trkpt lat="48.08514" lon="7.66019">
        <ele>356.31</ele>
        <time>2014-08-29T08:03:20Z</time>
      </trkpt>
      <trkpt lat="48.08513" lon="7.66018">
        <ele>357.27</ele>
        <time>2014-08-29T08:03:57Z</time>
      </trkpt>
      <trkpt lat="48.08514" lon="7.66017">
        <ele>356.79</ele>
        <time>2014-08-29T08:04:25Z</time>
      </trkpt>
      <trkpt lat="48.08509" lon="7.66021">
        <ele>357.75</ele>
        <time>2014-08-29T08:04:46Z</time>
      </trkpt>
      <trkpt lat="48.08502" lon="7.66036">
        <ele>358.71</ele>
        <time>2014-08-29T08:05:04Z</time>
      </trkpt>
      <trkpt lat="48.08493" lon="7.6604">
        <ele>360.15</ele>
        <time>2014-08-29T08:05:17Z</time>
      </trkpt>
      <trkpt lat="48.08483" lon="7.66033">
        <ele>361.59</ele>
        <time>2014-08-29T08:05:30Z</time>
      </trkpt>
      <trkpt lat="48.08471" lon="7.66024">
        <ele>363.52</ele>
        <time>2014-08-29T08:05:46Z</time>
      </trkpt>
      <trkpt lat="48.08463" lon="7.66016">
        <ele>365.92</ele>
        <time>2014-08-29T08:06:01Z</time>
      </trkpt>
      <trkpt lat="48.08454" lon="7.66003">
        <ele>368.8</ele>
        <time>2014-08-29T08:06:19Z</time>
      </trkpt>
      <trkpt lat="48.08447" lon="7.66001">
        <ele>370.73</ele>
        <time>2014-08-29T08:06:34Z</time>
      </trkpt>
      <trkpt lat="48.08434" lon="7.66">
        <ele>372.65</ele>
        <time>2014-08-29T08:06:47Z</time>
      </trkpt>
      <trkpt lat="48.08413" lon="7.65997">
        <ele>376.01</ele>
        <time>2014-08-29T08:07:08Z</time>
      </trkpt>
      <trkpt lat="48.08409" lon="7.65998">
        <ele>375.53</ele>
        <time>2014-08-29T08:07:13Z</time>
      </trkpt>
      <trkpt lat="48.084" lon="7.65997">
        <ele>376.49</ele>
        <time>2014-08-29T08:07:19Z</time>
      </trkpt>
      <trkpt lat="48.0839" lon="7.65998">
        <ele>379.38</ele>
        <time>2014-08-29T08:07:35Z</time>
      </trkpt>
      <trkpt lat="48.08383" lon="7.65993">
        <ele>381.3</ele>
        <time>2014-08-29T08:07:49Z</time>
      </trkpt>
      <trkpt lat="48.08382" lon="7.65988">
        <ele>383.7</ele>
        <time>2014-08-29T08:08:07Z</time>
      </trkpt>
      <trkpt lat="48.08382" lon="7.65989">
        <ele>383.7</ele>
        <time>2014-08-29T08:08:32Z</time>
      </trkpt>
      <trkpt lat="48.08381" lon="7.65987">
        <ele>384.18</ele>
        <time>2014-08-29T08:08:40Z</time>
      </trkpt>
      <trkpt lat="48.08389" lon="7.65973">
        <ele>383.7</ele>
        <time>2014-08-29T08:08:55Z</time>
      </trkpt>
      <trkpt lat="48.08409" lon="7.65967">
        <ele>384.66</ele>
        <time>2014-08-29T08:09:11Z</time>
      </trkpt>
      <trkpt lat="48.08422" lon="7.65968">
        <ele>383.7</ele>
        <time>2014-08-29T08:09:25Z</time>
      </trkpt>
      <trkpt lat="48.08432" lon="7.6596">
        <ele>384.66</ele>
        <time>2014-08-29T08:09:36Z</time>
      </trkpt>
      <trkpt lat="48.08436" lon="7.65932">
        <ele>384.66</ele>
        <time>2014-08-29T08:09:48Z</time>
      </trkpt>
      <trkpt lat="48.08435" lon="7.65906">
        <ele>383.7</ele>
        <time>2014-08-29T08:10:02Z</time>
      </trkpt>
      <trkpt lat="48.08433" lon="7.65901">
        <ele>383.7</ele>
        <time>2014-08-29T08:10:05Z</time>
      </trkpt>
      <trkpt lat="48.08433" lon="7.65898">
        <ele>383.7</ele>
        <time>2014-08-29T08:10:07Z</time>
      </trkpt>
      <trkpt lat="48.08435" lon="7.65878">
        <ele>383.22</ele>
        <time>2014-08-29T08:10:18Z</time>
      </trkpt>
      <trkpt lat="48.08435" lon="7.65869">
        <ele>383.22</ele>
        <time>2014-08-29T08:10:23Z</time>
      </trkpt>
      <trkpt lat="48.08428" lon="7.65869">
        <ele>384.18</ele>
        <time>2014-08-29T08:10:35Z</time>
      </trkpt>
      <trkpt lat="48.08427" lon="7.6587">
        <ele>384.18</ele>
        <time>2014-08-29T08:10:36Z</time>
      </trkpt>
      <trkpt lat="48.08425" lon="7.65882">
        <ele>386.59</ele>
        <time>2014-08-29T08:10:44Z</time>
      </trkpt>
      <trkpt lat="48.08425" lon="7.65905">
        <ele>387.55</ele>
        <time>2014-08-29T08:10:58Z</time>
      </trkpt>
      <trkpt lat="48.08427" lon="7.65914">
        <ele>388.51</ele>
        <time>2014-08-29T08:11:04Z</time>
      </trkpt>
      <trkpt lat="48.08423" lon="7.6593">
        <ele>389.95</ele>
        <time>2014-08-29T08:11:14Z</time>
      </trkpt>
      <trkpt lat="48.08408" lon="7.65939">
        <ele>390.91</ele>
        <time>2014-08-29T08:11:28Z</time>
      </trkpt>
      <trkpt lat="48.08391" lon="7.65935">
        <ele>393.32</ele>
        <time>2014-08-29T08:11:45Z</time>
      </trkpt>
      <trkpt lat="48.08377" lon="7.65933">
        <ele>395.24</ele>
        <time>2014-08-29T08:12:00Z</time>
      </trkpt>
      <trkpt lat="48.08354" lon="7.65939">
        <ele>396.68</ele>
        <time>2014-08-29T08:12:12Z</time>
      </trkpt>
      <trkpt lat="48.08346" lon="7.65944">
        <ele>396.68</ele>
        <time>2014-08-29T08:12:20Z</time>
      </trkpt>
      <trkpt lat="48.08342" lon="7.65949">
        <ele>397.64</ele>
        <time>2014-08-29T08:12:25Z</time>
      </trkpt>
      <trkpt lat="48.08329" lon="7.65955">
        <ele>398.12</ele>
        <time>2014-08-29T08:12:38Z</time>
      </trkpt>
      <trkpt lat="48.08316" lon="7.65945">
        <ele>400.05</ele>
        <time>2014-08-29T08:12:51Z</time>
      </trkpt>
      <trkpt lat="48.08309" lon="7.65934">
        <ele>399.57</ele>
        <time>2014-08-29T08:13:01Z</time>
      </trkpt>
      <trkpt lat="48.08303" lon="7.6593">
        <ele>399.57</ele>
        <time>2014-08-29T08:13:11Z</time>
      </trkpt>
      <trkpt lat="48.08303" lon="7.65929">
        <ele>399.57</ele>
        <time>2014-08-29T08:13:33Z</time>
      </trkpt>
      <trkpt lat="48.08308" lon="7.65926">
        <ele>401.49</ele>
        <time>2014-08-29T08:13:51Z</time>
      </trkpt>
      <trkpt lat="48.08308" lon="7.65926">
        <ele>400.05</ele>
        <time>2014-08-29T08:13:53Z</time>
      </trkpt>
      <trkpt lat="48.08308" lon="7.65926">
        <ele>398.6</ele>
        <time>2014-08-29T08:14:04Z</time>
      </trkpt>
      <trkpt lat="48.0831" lon="7.65909">
        <ele>398.12</ele>
        <time>2014-08-29T08:14:20Z</time>
      </trkpt>
      <trkpt lat="48.08311" lon="7.659">
        <ele>399.08</ele>
        <time>2014-08-29T08:14:24Z</time>
      </trkpt>
      <trkpt lat="48.08309" lon="7.65892">
        <ele>398.6</ele>
        <time>2014-08-29T08:14:32Z</time>
      </trkpt>
      <trkpt lat="48.08309" lon="7.65892">
        <ele>398.12</ele>
        <time>2014-08-29T08:14:46Z</time>
      </trkpt>
      <trkpt lat="48.08309" lon="7.65892">
        <ele>398.6</ele>
        <time>2014-08-29T08:15:11Z</time>
      </trkpt>
      <trkpt lat="48.0831" lon="7.6589">
        <ele>397.16</ele>
        <time>2014-08-29T08:15:13Z</time>
      </trkpt>
      <trkpt lat="48.08311" lon="7.65889">
        <ele>398.6</ele>
        <time>2014-08-29T08:15:15Z</time>
      </trkpt>
      <trkpt lat="48.08314" lon="7.65887">
        <ele>396.68</ele>
        <time>2014-08-29T08:15:18Z</time>
      </trkpt>
      <trkpt lat="48.08316" lon="7.65882">
        <ele>396.68</ele>
        <time>2014-08-29T08:15:23Z</time>
      </trkpt>
      <trkpt lat="48.08316" lon="7.65873">
        <ele>395.72</ele>
        <time>2014-08-29T08:15:28Z</time>
      </trkpt>
      <trkpt lat="48.08318" lon="7.65861">
        <ele>395.72</ele>
        <time>2014-08-29T08:15:40Z</time>
      </trkpt>
      <trkpt lat="48.08314" lon="7.65856">
        <ele>400.05</ele>
        <time>2014-08-29T08:15:47Z</time>
      </trkpt>
      <trkpt lat="48.08313" lon="7.65856">
        <ele>393.8</ele>
        <time>2014-08-29T08:15:48Z</time>
      </trkpt>
      <trkpt lat="48.08313" lon="7.65856">
        <ele>395.72</ele>
        <time>2014-08-29T08:15:49Z</time>
      </trkpt>
      <trkpt lat="48.08311" lon="7.65853">
        <ele>399.08</ele>
        <time>2014-08-29T08:15:54Z</time>
      </trkpt>
      <trkpt lat="48.0831" lon="7.65853">
        <ele>393.32</ele>
        <time>2014-08-29T08:15:55Z</time>
      </trkpt>
      <trkpt lat="48.0831" lon="7.65852">
        <ele>398.12</ele>
        <time>2014-08-29T08:15:56Z</time>
      </trkpt>
      <trkpt lat="48.08309" lon="7.65852">
        <ele>392.84</ele>
        <time>2014-08-29T08:16:06Z</time>
      </trkpt>
      <trkpt lat="48.08309" lon="7.65852">
        <ele>398.12</ele>
        <time>2014-08-29T08:16:07Z</time>
      </trkpt>
      <trkpt lat="48.08309" lon="7.65852">
        <ele>394.76</ele>
        <time>2014-08-29T08:16:09Z</time>
      </trkpt>
      <trkpt lat="48.08309" lon="7.65852">
        <ele>396.2</ele>
        <time>2014-08-29T08:16:10Z</time>
      </trkpt>
      <trkpt lat="48.08311" lon="7.65851">
        <ele>392.84</ele>
        <time>2014-08-29T08:16:13Z</time>
      </trkpt>
      <trkpt lat="48.08313" lon="7.65851">
        <ele>396.2</ele>
        <time>2014-08-29T08:16:14Z</time>
      </trkpt>
      <trkpt lat="48.08315" lon="7.65848">
        <ele>392.84</ele>
        <time>2014-08-29T08:16:17Z</time>
      </trkpt>
      <trkpt lat="48.08315" lon="7.65847">
        <ele>393.32</ele>
        <time>2014-08-29T08:16:18Z</time>
      </trkpt>
      <trkpt lat="48.08313" lon="7.65841">
        <ele>395.24</ele>
        <time>2014-08-29T08:16:21Z</time>
      </trkpt>
      <trkpt lat="48.08308" lon="7.65826">
        <ele>394.76</ele>
        <time>2014-08-29T08:16:32Z</time>
      </trkpt>
      <trkpt lat="48.08302" lon="7.65815">
        <ele>394.76</ele>
        <time>2014-08-29T08:16:40Z</time>
      </trkpt>
      <trkpt lat="48.08299" lon="7.65816">
        <ele>395.24</ele>
        <time>2014-08-29T08:16:54Z</time>
      </trkpt>
      <trkpt lat="48.083" lon="7.65813">
        <ele>394.76</ele>
        <time>2014-08-29T08:17:04Z</time>
      </trkpt>
      <trkpt lat="48.08296" lon="7.65813">
        <ele>392.36</ele>
        <time>2014-08-29T08:17:11Z</time>
      </trkpt>
      <trkpt lat="48.08285" lon="7.65813">
        <ele>394.76</ele>
        <time>2014-08-29T08:17:28Z</time>
      </trkpt>
      <trkpt lat="48.08285" lon="7.65813">
        <ele>394.76</ele>
        <time>2014-08-29T08:17:33Z</time>
      </trkpt>
      <trkpt lat="48.08275" lon="7.65816">
        <ele>394.76</ele>
        <time>2014-08-29T08:17:48Z</time>
      </trkpt>
      <trkpt lat="48.08275" lon="7.65816">
        <ele>394.28</ele>
        <time>2014-08-29T08:18:01Z</time>
      </trkpt>
      <trkpt lat="48.08275" lon="7.65816">
        <ele>393.8</ele>
        <time>2014-08-29T08:18:29Z</time>
      </trkpt>
      <trkpt lat="48.08278" lon="7.65816">
        <ele>397.64</ele>
        <time>2014-08-29T08:18:42Z</time>
      </trkpt>
      <trkpt lat="48.08279" lon="7.65816">
        <ele>393.8</ele>
        <time>2014-08-29T08:18:43Z</time>
      </trkpt>
      <trkpt lat="48.0828" lon="7.65816">
        <ele>396.68</ele>
        <time>2014-08-29T08:18:45Z</time>
      </trkpt>
      <trkpt lat="48.08285" lon="7.65817">
        <ele>395.72</ele>
        <time>2014-08-29T08:18:49Z</time>
      </trkpt>
      <trkpt lat="48.08292" lon="7.65818">
        <ele>391.39</ele>
        <time>2014-08-29T08:18:57Z</time>
      </trkpt>
      <trkpt lat="48.08296" lon="7.65817">
        <ele>394.28</ele>
        <time>2014-08-29T08:19:00Z</time>
      </trkpt>
      <trkpt lat="48.08299" lon="7.65814">
        <ele>392.84</ele>
        <time>2014-08-29T08:19:03Z</time>
      </trkpt>
      <trkpt lat="48.08302" lon="7.65808">
        <ele>396.2</ele>
        <time>2014-08-29T08:19:07Z</time>
      </trkpt>
      <trkpt lat="48.08302" lon="7.65802">
        <ele>392.36</ele>
        <time>2014-08-29T08:19:10Z</time>
      </trkpt>
      <trkpt lat="48.08304" lon="7.65795">
        <ele>396.2</ele>
        <time>2014-08-29T08:19:13Z</time>
      </trkpt>
      <trkpt lat="48.08305" lon="7.65788">
        <ele>391.39</ele>
        <time>2014-08-29T08:19:16Z</time>
      </trkpt>
      <trkpt lat="48.08305" lon="7.65786">
        <ele>391.87</ele>
        <time>2014-08-29T08:19:17Z</time>
      </trkpt>
      <trkpt lat="48.08305" lon="7.65784">
        <ele>393.8</ele>
        <time>2014-08-29T08:19:19Z</time>
      </trkpt>
      <trkpt lat="48.08303" lon="7.65779">
        <ele>394.76</ele>
        <time>2014-08-29T08:19:30Z</time>
      </trkpt>
      <trkpt lat="48.08304" lon="7.65776">
        <ele>395.24</ele>
        <time>2014-08-29T08:19:32Z</time>
      </trkpt>
      <trkpt lat="48.08304" lon="7.65771">
        <ele>392.84</ele>
        <time>2014-08-29T08:19:34Z</time>
      </trkpt>
      <trkpt lat="48.08305" lon="7.65762">
        <ele>395.24</ele>
        <time>2014-08-29T08:19:39Z</time>
      </trkpt>
      <trkpt lat="48.08305" lon="7.65758">
        <ele>394.28</ele>
        <time>2014-08-29T08:19:41Z</time>
      </trkpt>
      <trkpt lat="48.08305" lon="7.65749">
        <ele>390.43</ele>
        <time>2014-08-29T08:19:46Z</time>
      </trkpt>
      <trkpt lat="48.08305" lon="7.65745">
        <ele>393.32</ele>
        <time>2014-08-29T08:19:48Z</time>
      </trkpt>
      <trkpt lat="48.08306" lon="7.65742">
        <ele>393.8</ele>
        <time>2014-08-29T08:19:49Z</time>
      </trkpt>
      <trkpt lat="48.08307" lon="7.65731">
        <ele>389.95</ele>
        <time>2014-08-29T08:19:55Z</time>
      </trkpt>
      <trkpt lat="48.08308" lon="7.6573">
        <ele>393.8</ele>
        <time>2014-08-29T08:19:56Z</time>
      </trkpt>
      <trkpt lat="48.08308" lon="7.65728">
        <ele>393.8</ele>
        <time>2014-08-29T08:19:57Z</time>
      </trkpt>
      <trkpt lat="48.08308" lon="7.65717">
        <ele>392.36</ele>
        <time>2014-08-29T08:20:03Z</time>
      </trkpt>
      <trkpt lat="48.08309" lon="7.65698">
        <ele>393.8</ele>
        <time>2014-08-29T08:20:15Z</time>
      </trkpt>
      <trkpt lat="48.08309" lon="7.65696">
        <ele>393.8</ele>
        <time>2014-08-29T08:20:16Z</time>
      </trkpt>
      <trkpt lat="48.0831" lon="7.65692">
        <ele>390.43</ele>
        <time>2014-08-29T08:20:19Z</time>
      </trkpt>
      <trkpt lat="48.0831" lon="7.65688">
        <ele>389.47</ele>
        <time>2014-08-29T08:20:21Z</time>
      </trkpt>
      <trkpt lat="48.0831" lon="7.65681">
        <ele>393.8</ele>
        <time>2014-08-29T08:20:24Z</time>
      </trkpt>
      <trkpt lat="48.08309" lon="7.6568">
        <ele>390.43</ele>
        <time>2014-08-29T08:20:25Z</time>
      </trkpt>
      <trkpt lat="48.08304" lon="7.65675">
        <ele>391.87</ele>
        <time>2014-08-29T08:20:41Z</time>
      </trkpt>
      <trkpt lat="48.08305" lon="7.65669">
        <ele>391.87</ele>
        <time>2014-08-29T08:20:52Z</time>
      </trkpt>
      <trkpt lat="48.08309" lon="7.65667">
        <ele>388.03</ele>
        <time>2014-08-29T08:20:57Z</time>
      </trkpt>
      <trkpt lat="48.0831" lon="7.65666">
        <ele>390.91</ele>
        <time>2014-08-29T08:20:58Z</time>
      </trkpt>
      <trkpt lat="48.08316" lon="7.65652">
        <ele>390.91</ele>
        <time>2014-08-29T08:21:07Z</time>
      </trkpt>
      <trkpt lat="48.08318" lon="7.65647">
        <ele>388.99</ele>
        <time>2014-08-29T08:21:10Z</time>
      </trkpt>
      <trkpt lat="48.0832" lon="7.65644">
        <ele>393.32</ele>
        <time>2014-08-29T08:21:12Z</time>
      </trkpt>
      <trkpt lat="48.0832" lon="7.65643">
        <ele>393.32</ele>
        <time>2014-08-29T08:21:13Z</time>
      </trkpt>
      <trkpt lat="48.08322" lon="7.65635">
        <ele>391.87</ele>
        <time>2014-08-29T08:21:17Z</time>
      </trkpt>
      <trkpt lat="48.08316" lon="7.65619">
        <ele>390.91</ele>
        <time>2014-08-29T08:21:30Z</time>
      </trkpt>
      <trkpt lat="48.08316" lon="7.65617">
        <ele>391.87</ele>
        <time>2014-08-29T08:21:37Z</time>
      </trkpt>
      <trkpt lat="48.0832" lon="7.65606">
        <ele>391.39</ele>
        <time>2014-08-29T08:21:45Z</time>
      </trkpt>
      <trkpt lat="48.08316" lon="7.65585">
        <ele>392.36</ele>
        <time>2014-08-29T08:21:56Z</time>
      </trkpt>
      <trkpt lat="48.08313" lon="7.65577">
        <ele>392.36</ele>
        <time>2014-08-29T08:22:01Z</time>
      </trkpt>
      <trkpt lat="48.08307" lon="7.65559">
        <ele>394.28</ele>
        <time>2014-08-29T08:22:11Z</time>
      </trkpt>
      <trkpt lat="48.08303" lon="7.6555">
        <ele>395.24</ele>
        <time>2014-08-29T08:22:19Z</time>
      </trkpt>
      <trkpt lat="48.08296" lon="7.65537">
        <ele>396.2</ele>
        <time>2014-08-29T08:22:30Z</time>
      </trkpt>
      <trkpt lat="48.08296" lon="7.65537">
        <ele>396.2</ele>
        <time>2014-08-29T08:22:31Z</time>
      </trkpt>
      <trkpt lat="48.08289" lon="7.6552">
        <ele>397.64</ele>
        <time>2014-08-29T08:22:42Z</time>
      </trkpt>
      <trkpt lat="48.08282" lon="7.65506">
        <ele>398.12</ele>
        <time>2014-08-29T08:22:53Z</time>
      </trkpt>
      <trkpt lat="48.08276" lon="7.65504">
        <ele>399.57</ele>
        <time>2014-08-29T08:23:02Z</time>
      </trkpt>
      <trkpt lat="48.08276" lon="7.65501">
        <ele>399.08</ele>
        <time>2014-08-29T08:23:19Z</time>
      </trkpt>
      <trkpt lat="48.08275" lon="7.65499">
        <ele>399.08</ele>
        <time>2014-08-29T08:23:47Z</time>
      </trkpt>
      <trkpt lat="48.08275" lon="7.655">
        <ele>398.6</ele>
        <time>2014-08-29T08:24:03Z</time>
      </trkpt>
      <trkpt lat="48.08275" lon="7.65501">
        <ele>398.6</ele>
        <time>2014-08-29T08:24:39Z</time>
      </trkpt>
      <trkpt lat="48.08274" lon="7.65502">
        <ele>398.6</ele>
        <time>2014-08-29T08:26:31Z</time>
      </trkpt>
      <trkpt lat="48.08274" lon="7.655">
        <ele>399.08</ele>
        <time>2014-08-29T08:26:34Z</time>
      </trkpt>
      <trkpt lat="48.0828" lon="7.65505">
        <ele>399.08</ele>
        <time>2014-08-29T08:26:43Z</time>
      </trkpt>
      <trkpt lat="48.08284" lon="7.65501">
        <ele>398.6</ele>
        <time>2014-08-29T08:26:48Z</time>
      </trkpt>
      <trkpt lat="48.08283" lon="7.65482">
        <ele>399.57</ele>
        <time>2014-08-29T08:26:59Z</time>
      </trkpt>
      <trkpt lat="48.08284" lon="7.65459">
        <ele>399.57</ele>
        <time>2014-08-29T08:27:14Z</time>
      </trkpt>
      <trkpt lat="48.08287" lon="7.65439">
        <ele>400.53</ele>
        <time>2014-08-29T08:27:27Z</time>
      </trkpt>
      <trkpt lat="48.08289" lon="7.65425">
        <ele>400.53</ele>
        <time>2014-08-29T08:27:36Z</time>
      </trkpt>
      <trkpt lat="48.08291" lon="7.654">
        <ele>401.01</ele>
        <time>2014-08-29T08:27:51Z</time>
      </trkpt>
      <trkpt lat="48.0829" lon="7.65384">
        <ele>401.49</ele>
        <time>2014-08-29T08:28:01Z</time>
      </trkpt>
      <trkpt lat="48.0829" lon="7.65375">
        <ele>401.49</ele>
        <time>2014-08-29T08:28:05Z</time>
      </trkpt>
      <trkpt lat="48.08289" lon="7.65349">
        <ele>402.45</ele>
        <time>2014-08-29T08:28:19Z</time>
      </trkpt>
      <trkpt lat="48.08287" lon="7.65324">
        <ele>402.93</ele>
        <time>2014-08-29T08:28:32Z</time>
      </trkpt>
      <trkpt lat="48.08286" lon="7.65315">
        <ele>403.41</ele>
        <time>2014-08-29T08:28:36Z</time>
      </trkpt>
      <trkpt lat="48.08285" lon="7.653">
        <ele>403.41</ele>
        <time>2014-08-29T08:28:44Z</time>
      </trkpt>
      <trkpt lat="48.08285" lon="7.65296">
        <ele>403.41</ele>
        <time>2014-08-29T08:28:46Z</time>
      </trkpt>
      <trkpt lat="48.08284" lon="7.65281">
        <ele>403.41</ele>
        <time>2014-08-29T08:28:54Z</time>
      </trkpt>
      <trkpt lat="48.08283" lon="7.65276">
        <ele>403.41</ele>
        <time>2014-08-29T08:28:57Z</time>
      </trkpt>
      <trkpt lat="48.08279" lon="7.65255">
        <ele>404.85</ele>
        <time>2014-08-29T08:29:10Z</time>
      </trkpt>
      <trkpt lat="48.08279" lon="7.65247">
        <ele>405.81</ele>
        <time>2014-08-29T08:29:16Z</time>
      </trkpt>
      <trkpt lat="48.0828" lon="7.65228">
        <ele>407.74</ele>
        <time>2014-08-29T08:29:27Z</time>
      </trkpt>
      <trkpt lat="48.0828" lon="7.65225">
        <ele>408.22</ele>
        <time>2014-08-29T08:29:29Z</time>
      </trkpt>
      <trkpt lat="48.08279" lon="7.6522">
        <ele>408.7</ele>
        <time>2014-08-29T08:29:32Z</time>
      </trkpt>
      <trkpt lat="48.08277" lon="7.65212">
        <ele>408.7</ele>
        <time>2014-08-29T08:29:35Z</time>
      </trkpt>
      <trkpt lat="48.0827" lon="7.65194">
        <ele>409.66</ele>
        <time>2014-08-29T08:29:47Z</time>
      </trkpt>
      <trkpt lat="48.08265" lon="7.65179">
        <ele>411.1</ele>
        <time>2014-08-29T08:29:56Z</time>
      </trkpt>
      <trkpt lat="48.08265" lon="7.65168">
        <ele>411.1</ele>
        <time>2014-08-29T08:30:03Z</time>
      </trkpt>
      <trkpt lat="48.08267" lon="7.65149">
        <ele>411.58</ele>
        <time>2014-08-29T08:30:16Z</time>
      </trkpt>
      <trkpt lat="48.08269" lon="7.65143">
        <ele>411.58</ele>
        <time>2014-08-29T08:30:22Z</time>
      </trkpt>
      <trkpt lat="48.08274" lon="7.65146">
        <ele>413.02</ele>
        <time>2014-08-29T08:30:33Z</time>
      </trkpt>
      <trkpt lat="48.08274" lon="7.65147">
        <ele>413.02</ele>
        <time>2014-08-29T08:30:34Z</time>
      </trkpt>
      <trkpt lat="48.08274" lon="7.65151">
        <ele>413.98</ele>
        <time>2014-08-29T08:30:45Z</time>
      </trkpt>
      <trkpt lat="48.08273" lon="7.65151">
        <ele>413.98</ele>
        <time>2014-08-29T08:31:33Z</time>
      </trkpt>
      <trkpt lat="48.08274" lon="7.65151">
        <ele>413.98</ele>
        <time>2014-08-29T08:32:04Z</time>
      </trkpt>
      <trkpt lat="48.08273" lon="7.65152">
        <ele>413.98</ele>
        <time>2014-08-29T08:32:09Z</time>
      </trkpt>
      <trkpt lat="48.08271" lon="7.65154">
        <ele>413.98</ele>
        <time>2014-08-29T08:32:11Z</time>
      </trkpt>
      <trkpt lat="48.0827" lon="7.6516">
        <ele>413.98</ele>
        <time>2014-08-29T08:32:15Z</time>
      </trkpt>
      <trkpt lat="48.08271" lon="7.65165">
        <ele>414.47</ele>
        <time>2014-08-29T08:32:33Z</time>
      </trkpt>
      <trkpt lat="48.08272" lon="7.65165">
        <ele>414.47</ele>
        <time>2014-08-29T08:33:06Z</time>
      </trkpt>
      <trkpt lat="48.08272" lon="7.65165">
        <ele>417.35</ele>
        <time>2014-08-29T08:33:20Z</time>
      </trkpt>
      <trkpt lat="48.08272" lon="7.65165">
        <ele>413.98</ele>
        <time>2014-08-29T08:33:21Z</time>
      </trkpt>
      <trkpt lat="48.08272" lon="7.65165">
        <ele>413.5</ele>
        <time>2014-08-29T08:34:05Z</time>
      </trkpt>
      <trkpt lat="48.08272" lon="7.65165">
        <ele>413.02</ele>
        <time>2014-08-29T08:34:46Z</time>
      </trkpt>
      <trkpt lat="48.08272" lon="7.65163">
        <ele>413.98</ele>
        <time>2014-08-29T08:35:08Z</time>
      </trkpt>
      <trkpt lat="48.08271" lon="7.65163">
        <ele>413.5</ele>
        <time>2014-08-29T08:35:20Z</time>
      </trkpt>
      <trkpt lat="48.08271" lon="7.65163">
        <ele>413.98</ele>
        <time>2014-08-29T08:35:56Z</time>
      </trkpt>
      <trkpt lat="48.08268" lon="7.65159">
        <ele>412.06</ele>
        <time>2014-08-29T08:36:17Z</time>
      </trkpt>
      <trkpt lat="48.0827" lon="7.6516">
        <ele>413.5</ele>
        <time>2014-08-29T08:36:30Z</time>
      </trkpt>
      <trkpt lat="48.0827" lon="7.65159">
        <ele>413.5</ele>
        <time>2014-08-29T08:36:51Z</time>
      </trkpt>
      <trkpt lat="48.0827" lon="7.65158">
        <ele>413.5</ele>
        <time>2014-08-29T08:37:21Z</time>
      </trkpt>
      <trkpt lat="48.08271" lon="7.65156">
        <ele>413.5</ele>
        <time>2014-08-29T08:37:41Z</time>
      </trkpt>
      <trkpt lat="48.08271" lon="7.65155">
        <ele>412.54</ele>
        <time>2014-08-29T08:38:00Z</time>
      </trkpt>
      <trkpt lat="48.08272" lon="7.65157">
        <ele>409.66</ele>
        <time>2014-08-29T08:45:50Z</time>
      </trkpt>
      <trkpt lat="48.08272" lon="7.65156">
        <ele>406.77</ele>
        <time>2014-08-29T09:07:26Z</time>
      </trkpt>
      <trkpt lat="48.08272" lon="7.65156">
        <ele>406.77</ele>
        <time>2014-08-29T09:15:49Z</time>
      </trkpt>
      <trkpt lat="48.08274" lon="7.65151">
        <ele>406.77</ele>
        <time>2014-08-29T09:19:31Z</time>
      </trkpt>
      <trkpt lat="48.08276" lon="7.65151">
        <ele>406.29</ele>
        <time>2014-08-29T09:19:34Z</time>
      </trkpt>
      <trkpt lat="48.08277" lon="7.65147">
        <ele>405.81</ele>
        <time>2014-08-29T09:19:37Z</time>
      </trkpt>
      <trkpt lat="48.08273" lon="7.65141">
        <ele>404.37</ele>
        <time>2014-08-29T09:19:42Z</time>
      </trkpt>
      <trkpt lat="48.08268" lon="7.65144">
        <ele>403.89</ele>
        <time>2014-08-29T09:19:59Z</time>
      </trkpt>
      <trkpt lat="48.08268" lon="7.65142">
        <ele>403.89</ele>
        <time>2014-08-29T09:20:11Z</time>
      </trkpt>
      <trkpt lat="48.08269" lon="7.65138">
        <ele>403.89</ele>
        <time>2014-08-29T09:20:14Z</time>
      </trkpt>
      <trkpt lat="48.08274" lon="7.65131">
        <ele>403.41</ele>
        <time>2014-08-29T09:20:25Z</time>
      </trkpt>
      <trkpt lat="48.08281" lon="7.65123">
        <ele>400.05</ele>
        <time>2014-08-29T09:20:39Z</time>
      </trkpt>
      <trkpt lat="48.08281" lon="7.65121">
        <ele>399.08</ele>
        <time>2014-08-29T09:20:42Z</time>
      </trkpt>
      <trkpt lat="48.08284" lon="7.65113">
        <ele>397.64</ele>
        <time>2014-08-29T09:20:46Z</time>
      </trkpt>
      <trkpt lat="48.08292" lon="7.65106">
        <ele>395.72</ele>
        <time>2014-08-29T09:20:54Z</time>
      </trkpt>
      <trkpt lat="48.08295" lon="7.65104">
        <ele>394.76</ele>
        <time>2014-08-29T09:20:58Z</time>
      </trkpt>
      <trkpt lat="48.08304" lon="7.65093">
        <ele>392.36</ele>
        <time>2014-08-29T09:21:09Z</time>
      </trkpt>
      <trkpt lat="48.08305" lon="7.65081">
        <ele>388.99</ele>
        <time>2014-08-29T09:21:24Z</time>
      </trkpt>
      <trkpt lat="48.08305" lon="7.65064">
        <ele>387.55</ele>
        <time>2014-08-29T09:21:34Z</time>
      </trkpt>
      <trkpt lat="48.08309" lon="7.6505">
        <ele>384.18</ele>
        <time>2014-08-29T09:21:44Z</time>
      </trkpt>
      <trkpt lat="48.08312" lon="7.65037">
        <ele>380.82</ele>
        <time>2014-08-29T09:21:54Z</time>
      </trkpt>
      <trkpt lat="48.08312" lon="7.65036">
        <ele>378.9</ele>
        <time>2014-08-29T09:22:01Z</time>
      </trkpt>
      <trkpt lat="48.08315" lon="7.65021">
        <ele>376.01</ele>
        <time>2014-08-29T09:22:10Z</time>
      </trkpt>
      <trkpt lat="48.08316" lon="7.65013">
        <ele>375.53</ele>
        <time>2014-08-29T09:22:13Z</time>
      </trkpt>
      <trkpt lat="48.08317" lon="7.65008">
        <ele>374.09</ele>
        <time>2014-08-29T09:22:15Z</time>
      </trkpt>
      <trkpt lat="48.08315" lon="7.65002">
        <ele>372.65</ele>
        <time>2014-08-29T09:22:19Z</time>
      </trkpt>
      <trkpt lat="48.08311" lon="7.64988">
        <ele>369.28</ele>
        <time>2014-08-29T09:22:30Z</time>
      </trkpt>
      <trkpt lat="48.0831" lon="7.64971">
        <ele>366.88</ele>
        <time>2014-08-29T09:22:45Z</time>
      </trkpt>
      <trkpt lat="48.08312" lon="7.64952">
        <ele>364.96</ele>
        <time>2014-08-29T09:22:59Z</time>
      </trkpt>
      <trkpt lat="48.0831" lon="7.6494">
        <ele>364</ele>
        <time>2014-08-29T09:23:16Z</time>
      </trkpt>
      <trkpt lat="48.0831" lon="7.6494">
        <ele>364.48</ele>
        <time>2014-08-29T09:23:19Z</time>
      </trkpt>
      <trkpt lat="48.08303" lon="7.64944">
        <ele>364</ele>
        <time>2014-08-29T09:23:29Z</time>
      </trkpt>
      <trkpt lat="48.08284" lon="7.64948">
        <ele>363.52</ele>
        <time>2014-08-29T09:23:46Z</time>
      </trkpt>
      <trkpt lat="48.0828" lon="7.64952">
        <ele>363.04</ele>
        <time>2014-08-29T09:23:49Z</time>
      </trkpt>
      <trkpt lat="48.08278" lon="7.64953">
        <ele>363.52</ele>
        <time>2014-08-29T09:23:51Z</time>
      </trkpt>
      <trkpt lat="48.08268" lon="7.64959">
        <ele>361.59</ele>
        <time>2014-08-29T09:24:00Z</time>
      </trkpt>
      <trkpt lat="48.08247" lon="7.64975">
        <ele>361.11</ele>
        <time>2014-08-29T09:24:18Z</time>
      </trkpt>
      <trkpt lat="48.08231" lon="7.64986">
        <ele>360.15</ele>
        <time>2014-08-29T09:24:32Z</time>
      </trkpt>
      <trkpt lat="48.08213" lon="7.64991">
        <ele>358.23</ele>
        <time>2014-08-29T09:24:45Z</time>
      </trkpt>
      <trkpt lat="48.08198" lon="7.64993">
        <ele>357.27</ele>
        <time>2014-08-29T09:24:58Z</time>
      </trkpt>
      <trkpt lat="48.08195" lon="7.64991">
        <ele>357.27</ele>
        <time>2014-08-29T09:25:01Z</time>
      </trkpt>
      <trkpt lat="48.08176" lon="7.64984">
        <ele>354.86</ele>
        <time>2014-08-29T09:25:18Z</time>
      </trkpt>
      <trkpt lat="48.08168" lon="7.64976">
        <ele>353.42</ele>
        <time>2014-08-29T09:25:26Z</time>
      </trkpt>
      <trkpt lat="48.08155" lon="7.64955">
        <ele>352.46</ele>
        <time>2014-08-29T09:25:40Z</time>
      </trkpt>
      <trkpt lat="48.08145" lon="7.6494">
        <ele>350.54</ele>
        <time>2014-08-29T09:25:50Z</time>
      </trkpt>
      <trkpt lat="48.08132" lon="7.64926">
        <ele>349.1</ele>
        <time>2014-08-29T09:26:03Z</time>
      </trkpt>
      <trkpt lat="48.08126" lon="7.64919">
        <ele>349.58</ele>
        <time>2014-08-29T09:26:20Z</time>
      </trkpt>
      <trkpt lat="48.08109" lon="7.64912">
        <ele>350.06</ele>
        <time>2014-08-29T09:26:36Z</time>
      </trkpt>
      <trkpt lat="48.08088" lon="7.6491">
        <ele>350.06</ele>
        <time>2014-08-29T09:26:52Z</time>
      </trkpt>
      <trkpt lat="48.08072" lon="7.64912">
        <ele>350.06</ele>
        <time>2014-08-29T09:27:06Z</time>
      </trkpt>
      <trkpt lat="48.0806" lon="7.64918">
        <ele>350.54</ele>
        <time>2014-08-29T09:27:18Z</time>
      </trkpt>
      <trkpt lat="48.08043" lon="7.64935">
        <ele>350.54</ele>
        <time>2014-08-29T09:27:32Z</time>
      </trkpt>
      <trkpt lat="48.08034" lon="7.64954">
        <ele>351.02</ele>
        <time>2014-08-29T09:27:46Z</time>
      </trkpt>
      <trkpt lat="48.0802" lon="7.64974">
        <ele>351.02</ele>
        <time>2014-08-29T09:27:59Z</time>
      </trkpt>
      <trkpt lat="48.0801" lon="7.64992">
        <ele>351.5</ele>
        <time>2014-08-29T09:28:10Z</time>
      </trkpt>
      <trkpt lat="48.08007" lon="7.64997">
        <ele>351.5</ele>
        <time>2014-08-29T09:28:14Z</time>
      </trkpt>
      <trkpt lat="48.08002" lon="7.65015">
        <ele>351.98</ele>
        <time>2014-08-29T09:28:25Z</time>
      </trkpt>
      <trkpt lat="48.08003" lon="7.65022">
        <ele>351.5</ele>
        <time>2014-08-29T09:28:29Z</time>
      </trkpt>
      <trkpt lat="48.08006" lon="7.65042">
        <ele>351.02</ele>
        <time>2014-08-29T09:28:42Z</time>
      </trkpt>
      <trkpt lat="48.08009" lon="7.65067">
        <ele>349.58</ele>
        <time>2014-08-29T09:28:55Z</time>
      </trkpt>
      <trkpt lat="48.08013" lon="7.6509">
        <ele>348.13</ele>
        <time>2014-08-29T09:29:09Z</time>
      </trkpt>
      <trkpt lat="48.08013" lon="7.65092">
        <ele>348.13</ele>
        <time>2014-08-29T09:29:11Z</time>
      </trkpt>
      <trkpt lat="48.0801" lon="7.65087">
        <ele>348.13</ele>
        <time>2014-08-29T09:29:14Z</time>
      </trkpt>
      <trkpt lat="48.08003" lon="7.65062">
        <ele>348.62</ele>
        <time>2014-08-29T09:29:29Z</time>
      </trkpt>
      <trkpt lat="48.07994" lon="7.65052">
        <ele>347.65</ele>
        <time>2014-08-29T09:29:41Z</time>
      </trkpt>
      <trkpt lat="48.0798" lon="7.65055">
        <ele>343.81</ele>
        <time>2014-08-29T09:29:57Z</time>
      </trkpt>
      <trkpt lat="48.07975" lon="7.65056">
        <ele>343.33</ele>
        <time>2014-08-29T09:30:00Z</time>
      </trkpt>
      <trkpt lat="48.07954" lon="7.65059">
        <ele>340.44</ele>
        <time>2014-08-29T09:30:14Z</time>
      </trkpt>
      <trkpt lat="48.0794" lon="7.65053">
        <ele>337.08</ele>
        <time>2014-08-29T09:30:28Z</time>
      </trkpt>
      <trkpt lat="48.07925" lon="7.65052">
        <ele>334.68</ele>
        <time>2014-08-29T09:30:41Z</time>
      </trkpt>
      <trkpt lat="48.07913" lon="7.65043">
        <ele>332.75</ele>
        <time>2014-08-29T09:30:54Z</time>
      </trkpt>
      <trkpt lat="48.07905" lon="7.65036">
        <ele>330.35</ele>
        <time>2014-08-29T09:31:07Z</time>
      </trkpt>
      <trkpt lat="48.07905" lon="7.65031">
        <ele>329.39</ele>
        <time>2014-08-29T09:31:25Z</time>
      </trkpt>
      <trkpt lat="48.07899" lon="7.65021">
        <ele>327.47</ele>
        <time>2014-08-29T09:31:44Z</time>
      </trkpt>
      <trkpt lat="48.07882" lon="7.65018">
        <ele>324.1</ele>
        <time>2014-08-29T09:31:59Z</time>
      </trkpt>
      <trkpt lat="48.07877" lon="7.65016">
        <ele>324.58</ele>
        <time>2014-08-29T09:32:17Z</time>
      </trkpt>
      <trkpt lat="48.07876" lon="7.65016">
        <ele>324.1</ele>
        <time>2014-08-29T09:32:18Z</time>
      </trkpt>
      <trkpt lat="48.07868" lon="7.6502">
        <ele>322.66</ele>
        <time>2014-08-29T09:32:32Z</time>
      </trkpt>
      <trkpt lat="48.07865" lon="7.65041">
        <ele>321.22</ele>
        <time>2014-08-29T09:32:44Z</time>
      </trkpt>
      <trkpt lat="48.07862" lon="7.65051">
        <ele>320.74</ele>
        <time>2014-08-29T09:32:53Z</time>
      </trkpt>
      <trkpt lat="48.07857" lon="7.65066">
        <ele>319.3</ele>
        <time>2014-08-29T09:33:03Z</time>
      </trkpt>
      <trkpt lat="48.07854" lon="7.65078">
        <ele>317.85</ele>
        <time>2014-08-29T09:33:13Z</time>
      </trkpt>
      <trkpt lat="48.07854" lon="7.65083">
        <ele>316.89</ele>
        <time>2014-08-29T09:33:18Z</time>
      </trkpt>
      <trkpt lat="48.07851" lon="7.651">
        <ele>314.97</ele>
        <time>2014-08-29T09:33:31Z</time>
      </trkpt>
      <trkpt lat="48.07851" lon="7.651">
        <ele>315.45</ele>
        <time>2014-08-29T09:33:33Z</time>
      </trkpt>
      <trkpt lat="48.07826" lon="7.65104">
        <ele>312.57</ele>
        <time>2014-08-29T09:33:46Z</time>
      </trkpt>
      <trkpt lat="48.0782" lon="7.65106">
        <ele>311.6</ele>
        <time>2014-08-29T09:34:03Z</time>
      </trkpt>
      <trkpt lat="48.07819" lon="7.65105">
        <ele>311.6</ele>
        <time>2014-08-29T09:34:07Z</time>
      </trkpt>
      <trkpt lat="48.07813" lon="7.65105">
        <ele>311.12</ele>
        <time>2014-08-29T09:34:22Z</time>
      </trkpt>
      <trkpt lat="48.078" lon="7.651">
        <ele>310.16</ele>
        <time>2014-08-29T09:34:41Z</time>
      </trkpt>
      <trkpt lat="48.0779" lon="7.651">
        <ele>309.68</ele>
        <time>2014-08-29T09:34:57Z</time>
      </trkpt>
      <trkpt lat="48.07794" lon="7.65098">
        <ele>309.2</ele>
        <time>2014-08-29T09:35:20Z</time>
      </trkpt>
      <trkpt lat="48.07793" lon="7.65095">
        <ele>309.2</ele>
        <time>2014-08-29T09:35:23Z</time>
      </trkpt>
      <trkpt lat="48.07783" lon="7.65085">
        <ele>306.8</ele>
        <time>2014-08-29T09:35:40Z</time>
      </trkpt>
      <trkpt lat="48.07777" lon="7.65075">
        <ele>304.39</ele>
        <time>2014-08-29T09:35:52Z</time>
      </trkpt>
      <trkpt lat="48.07778" lon="7.65058">
        <ele>301.99</ele>
        <time>2014-08-29T09:36:06Z</time>
      </trkpt>
      <trkpt lat="48.07773" lon="7.65045">
        <ele>300.07</ele>
        <time>2014-08-29T09:36:16Z</time>
      </trkpt>
      <trkpt lat="48.07767" lon="7.65039">
        <ele>299.59</ele>
        <time>2014-08-29T09:36:26Z</time>
      </trkpt>
      <trkpt lat="48.07765" lon="7.6504">
        <ele>299.11</ele>
        <time>2014-08-29T09:36:38Z</time>
      </trkpt>
      <trkpt lat="48.07765" lon="7.65044">
        <ele>299.11</ele>
        <time>2014-08-29T09:36:40Z</time>
      </trkpt>
      <trkpt lat="48.07765" lon="7.65052">
        <ele>297.67</ele>
        <time>2014-08-29T09:36:46Z</time>
      </trkpt>
      <trkpt lat="48.07762" lon="7.65072">
        <ele>295.74</ele>
        <time>2014-08-29T09:36:57Z</time>
      </trkpt>
      <trkpt lat="48.07761" lon="7.65077">
        <ele>294.78</ele>
        <time>2014-08-29T09:37:01Z</time>
      </trkpt>
      <trkpt lat="48.0776" lon="7.65085">
        <ele>293.82</ele>
        <time>2014-08-29T09:37:07Z</time>
      </trkpt>
      <trkpt lat="48.0776" lon="7.65099">
        <ele>292.86</ele>
        <time>2014-08-29T09:37:15Z</time>
      </trkpt>
      <trkpt lat="48.07757" lon="7.65112">
        <ele>291.42</ele>
        <time>2014-08-29T09:37:28Z</time>
      </trkpt>
      <trkpt lat="48.07749" lon="7.65109">
        <ele>291.42</ele>
        <time>2014-08-29T09:37:53Z</time>
      </trkpt>
      <trkpt lat="48.07747" lon="7.65108">
        <ele>291.9</ele>
        <time>2014-08-29T09:38:19Z</time>
      </trkpt>
      <trkpt lat="48.07736" lon="7.65096">
        <ele>290.94</ele>
        <time>2014-08-29T09:38:32Z</time>
      </trkpt>
      <trkpt lat="48.07736" lon="7.65092">
        <ele>290.46</ele>
        <time>2014-08-29T09:38:34Z</time>
      </trkpt>
      <trkpt lat="48.07729" lon="7.65067">
        <ele>288.53</ele>
        <time>2014-08-29T09:38:48Z</time>
      </trkpt>
      <trkpt lat="48.07728" lon="7.6506">
        <ele>288.53</ele>
        <time>2014-08-29T09:38:52Z</time>
      </trkpt>
      <trkpt lat="48.07729" lon="7.65043">
        <ele>287.57</ele>
        <time>2014-08-29T09:39:03Z</time>
      </trkpt>
      <trkpt lat="48.07726" lon="7.65022">
        <ele>286.13</ele>
        <time>2014-08-29T09:39:14Z</time>
      </trkpt>
      <trkpt lat="48.0773" lon="7.65007">
        <ele>285.17</ele>
        <time>2014-08-29T09:39:24Z</time>
      </trkpt>
      <trkpt lat="48.07738" lon="7.64988">
        <ele>284.21</ele>
        <time>2014-08-29T09:39:36Z</time>
      </trkpt>
      <trkpt lat="48.07739" lon="7.64978">
        <ele>283.73</ele>
        <time>2014-08-29T09:39:42Z</time>
      </trkpt>
      <trkpt lat="48.07747" lon="7.6495">
        <ele>282.28</ele>
        <time>2014-08-29T09:40:00Z</time>
      </trkpt>
      <trkpt lat="48.07749" lon="7.64931">
        <ele>281.32</ele>
        <time>2014-08-29T09:40:16Z</time>
      </trkpt>
      <trkpt lat="48.0775" lon="7.64911">
        <ele>279.88</ele>
        <time>2014-08-29T09:40:29Z</time>
      </trkpt>
      <trkpt lat="48.07755" lon="7.64894">
        <ele>278.92</ele>
        <time>2014-08-29T09:40:43Z</time>
      </trkpt>
      <trkpt lat="48.07756" lon="7.64893">
        <ele>279.4</ele>
        <time>2014-08-29T09:40:44Z</time>
      </trkpt>
      <trkpt lat="48.07766" lon="7.64874">
        <ele>278.44</ele>
        <time>2014-08-29T09:40:57Z</time>
      </trkpt>
      <trkpt lat="48.07765" lon="7.6487">
        <ele>278.44</ele>
        <time>2014-08-29T09:40:59Z</time>
      </trkpt>
      <trkpt lat="48.07763" lon="7.64864">
        <ele>278.44</ele>
        <time>2014-08-29T09:41:12Z</time>
      </trkpt>
      <trkpt lat="48.07765" lon="7.64855">
        <ele>277.96</ele>
        <time>2014-08-29T09:41:19Z</time>
      </trkpt>
      <trkpt lat="48.07773" lon="7.64837">
        <ele>277</ele>
        <time>2014-08-29T09:41:33Z</time>
      </trkpt>
      <trkpt lat="48.07778" lon="7.64827">
        <ele>276.52</ele>
        <time>2014-08-29T09:41:47Z</time>
      </trkpt>
      <trkpt lat="48.0778" lon="7.64824">
        <ele>275.56</ele>
        <time>2014-08-29T09:41:50Z</time>
      </trkpt>
      <trkpt lat="48.07781" lon="7.64812">
        <ele>274.59</ele>
        <time>2014-08-29T09:41:58Z</time>
      </trkpt>
      <trkpt lat="48.07782" lon="7.64788">
        <ele>272.67</ele>
        <time>2014-08-29T09:42:12Z</time>
      </trkpt>
      <trkpt lat="48.07783" lon="7.64785">
        <ele>271.71</ele>
        <time>2014-08-29T09:42:15Z</time>
      </trkpt>
      <trkpt lat="48.0779" lon="7.64763">
        <ele>270.27</ele>
        <time>2014-08-29T09:42:32Z</time>
      </trkpt>
      <trkpt lat="48.07783" lon="7.64755">
        <ele>269.79</ele>
        <time>2014-08-29T09:42:34Z</time>
      </trkpt>
      <trkpt lat="48.07781" lon="7.64749">
        <ele>269.79</ele>
        <time>2014-08-29T09:42:36Z</time>
      </trkpt>
      <trkpt lat="48.07777" lon="7.64724">
        <ele>268.35</ele>
        <time>2014-08-29T09:42:49Z</time>
      </trkpt>
      <trkpt lat="48.07776" lon="7.64719">
        <ele>268.35</ele>
        <time>2014-08-29T09:42:52Z</time>
      </trkpt>
      <trkpt lat="48.07775" lon="7.64705">
        <ele>267.86</ele>
        <time>2014-08-29T09:43:04Z</time>
      </trkpt>
      <trkpt lat="48.07778" lon="7.64693">
        <ele>267.86</ele>
        <time>2014-08-29T09:43:12Z</time>
      </trkpt>
      <trkpt lat="48.0779" lon="7.64667">
        <ele>267.38</ele>
        <time>2014-08-29T09:43:28Z</time>
      </trkpt>
      <trkpt lat="48.07799" lon="7.64654">
        <ele>267.38</ele>
        <time>2014-08-29T09:43:39Z</time>
      </trkpt>
      <trkpt lat="48.07802" lon="7.64652">
        <ele>267.38</ele>
        <time>2014-08-29T09:43:41Z</time>
      </trkpt>
      <trkpt lat="48.07806" lon="7.64642">
        <ele>267.38</ele>
        <time>2014-08-29T09:43:49Z</time>
      </trkpt>
      <trkpt lat="48.0781" lon="7.64638">
        <ele>267.38</ele>
        <time>2014-08-29T09:43:53Z</time>
      </trkpt>
      <trkpt lat="48.07807" lon="7.64631">
        <ele>267.38</ele>
        <time>2014-08-29T09:43:57Z</time>
      </trkpt>
      <trkpt lat="48.07804" lon="7.64626">
        <ele>266.42</ele>
        <time>2014-08-29T09:44:05Z</time>
      </trkpt>
      <trkpt lat="48.07795" lon="7.64607">
        <ele>267.38</ele>
        <time>2014-08-29T09:44:18Z</time>
      </trkpt>
      <trkpt lat="48.07793" lon="7.64608">
        <ele>267.86</ele>
        <time>2014-08-29T09:44:36Z</time>
      </trkpt>
      <trkpt lat="48.07798" lon="7.64606">
        <ele>267.38</ele>
        <time>2014-08-29T09:44:45Z</time>
      </trkpt>
      <trkpt lat="48.07804" lon="7.64618">
        <ele>267.38</ele>
        <time>2014-08-29T09:44:56Z</time>
      </trkpt>
      <trkpt lat="48.07801" lon="7.64624">
        <ele>267.86</ele>
        <time>2014-08-29T09:44:58Z</time>
      </trkpt>
      <trkpt lat="48.07803" lon="7.64634">
        <ele>267.38</ele>
        <time>2014-08-29T09:45:03Z</time>
      </trkpt>
      <trkpt lat="48.07806" lon="7.64642">
        <ele>267.38</ele>
        <time>2014-08-29T09:45:19Z</time>
      </trkpt>
      <trkpt lat="48.07825" lon="7.64629">
        <ele>267.38</ele>
        <time>2014-08-29T09:45:31Z</time>
      </trkpt>
      <trkpt lat="48.07836" lon="7.64602">
        <ele>267.38</ele>
        <time>2014-08-29T09:45:48Z</time>
      </trkpt>
      <trkpt lat="48.07856" lon="7.64586">
        <ele>267.86</ele>
        <time>2014-08-29T09:46:04Z</time>
      </trkpt>
      <trkpt lat="48.07856" lon="7.64585">
        <ele>267.86</ele>
        <time>2014-08-29T09:46:07Z</time>
      </trkpt>
      <trkpt lat="48.07866" lon="7.64564">
        <ele>267.38</ele>
        <time>2014-08-29T09:46:20Z</time>
      </trkpt>
      <trkpt lat="48.07863" lon="7.64565">
        <ele>266.9</ele>
        <time>2014-08-29T09:46:32Z</time>
      </trkpt>
      <trkpt lat="48.07864" lon="7.64559">
        <ele>266.9</ele>
        <time>2014-08-29T09:46:49Z</time>
      </trkpt>
      <trkpt lat="48.07865" lon="7.64558">
        <ele>266.9</ele>
        <time>2014-08-29T09:46:56Z</time>
      </trkpt>
      <trkpt lat="48.07866" lon="7.64547">
        <ele>266.42</ele>
        <time>2014-08-29T09:47:02Z</time>
      </trkpt>
      <trkpt lat="48.07868" lon="7.64542">
        <ele>267.38</ele>
        <time>2014-08-29T09:47:04Z</time>
      </trkpt>
      <trkpt lat="48.07872" lon="7.64517">
        <ele>265.94</ele>
        <time>2014-08-29T09:47:16Z</time>
      </trkpt>
      <trkpt lat="48.07879" lon="7.64512">
        <ele>267.38</ele>
        <time>2014-08-29T09:47:30Z</time>
      </trkpt>
      <trkpt lat="48.07892" lon="7.6455">
        <ele>266.42</ele>
        <time>2014-08-29T09:48:01Z</time>
      </trkpt>
      <trkpt lat="48.07882" lon="7.64502">
        <ele>266.42</ele>
        <time>2014-08-29T09:49:57Z</time>
      </trkpt>
      <trkpt lat="48.07882" lon="7.645">
        <ele>264.98</ele>
        <time>2014-08-29T09:50:11Z</time>
      </trkpt>
      <trkpt lat="48.07882" lon="7.64497">
        <ele>264.02</ele>
        <time>2014-08-29T09:50:13Z</time>
      </trkpt>
      <trkpt lat="48.07875" lon="7.64467">
        <ele>262.58</ele>
        <time>2014-08-29T09:50:28Z</time>
      </trkpt>
      <trkpt lat="48.07874" lon="7.64465">
        <ele>262.58</ele>
        <time>2014-08-29T09:50:29Z</time>
      </trkpt>
      <trkpt lat="48.07874" lon="7.64433">
        <ele>261.14</ele>
        <time>2014-08-29T09:50:46Z</time>
      </trkpt>
      <trkpt lat="48.07892" lon="7.64417">
        <ele>261.14</ele>
        <time>2014-08-29T09:50:58Z</time>
      </trkpt>
      <trkpt lat="48.07908" lon="7.64399">
        <ele>260.17</ele>
        <time>2014-08-29T09:51:11Z</time>
      </trkpt>
      <trkpt lat="48.07914" lon="7.64379">
        <ele>259.21</ele>
        <time>2014-08-29T09:51:23Z</time>
      </trkpt>
      <trkpt lat="48.07932" lon="7.64361">
        <ele>259.21</ele>
        <time>2014-08-29T09:51:35Z</time>
      </trkpt>
      <trkpt lat="48.07933" lon="7.64337">
        <ele>258.25</ele>
        <time>2014-08-29T09:51:48Z</time>
      </trkpt>
      <trkpt lat="48.07926" lon="7.64323">
        <ele>258.73</ele>
        <time>2014-08-29T09:51:56Z</time>
      </trkpt>
      <trkpt lat="48.07921" lon="7.64311">
        <ele>258.25</ele>
        <time>2014-08-29T09:52:03Z</time>
      </trkpt>
      <trkpt lat="48.07921" lon="7.64281">
        <ele>257.29</ele>
        <time>2014-08-29T09:52:18Z</time>
      </trkpt>
      <trkpt lat="48.07926" lon="7.64258">
        <ele>256.81</ele>
        <time>2014-08-29T09:52:30Z</time>
      </trkpt>
      <trkpt lat="48.07929" lon="7.6425">
        <ele>256.33</ele>
        <time>2014-08-29T09:52:35Z</time>
      </trkpt>
      <trkpt lat="48.07937" lon="7.64229">
        <ele>255.85</ele>
        <time>2014-08-29T09:52:47Z</time>
      </trkpt>
      <trkpt lat="48.07943" lon="7.64208">
        <ele>255.85</ele>
        <time>2014-08-29T09:52:59Z</time>
      </trkpt>
      <trkpt lat="48.07944" lon="7.64185">
        <ele>254.41</ele>
        <time>2014-08-29T09:53:12Z</time>
      </trkpt>
      <trkpt lat="48.07948" lon="7.64167">
        <ele>254.41</ele>
        <time>2014-08-29T09:53:22Z</time>
      </trkpt>
      <trkpt lat="48.07957" lon="7.64143">
        <ele>254.41</ele>
        <time>2014-08-29T09:53:36Z</time>
      </trkpt>
      <trkpt lat="48.0796" lon="7.64137">
        <ele>252.48</ele>
        <time>2014-08-29T09:53:39Z</time>
      </trkpt>
      <trkpt lat="48.07962" lon="7.64113">
        <ele>244.79</ele>
        <time>2014-08-29T09:53:52Z</time>
      </trkpt>
      <trkpt lat="48.07962" lon="7.64112">
        <ele>254.41</ele>
        <time>2014-08-29T09:53:53Z</time>
      </trkpt>
      <trkpt lat="48.07963" lon="7.6411">
        <ele>258.73</ele>
        <time>2014-08-29T09:53:54Z</time>
      </trkpt>
      <trkpt lat="48.07963" lon="7.64108">
        <ele>257.29</ele>
        <time>2014-08-29T09:53:55Z</time>
      </trkpt>
      <trkpt lat="48.07964" lon="7.64105">
        <ele>255.37</ele>
        <time>2014-08-29T09:53:57Z</time>
      </trkpt>
      <trkpt lat="48.07964" lon="7.64103">
        <ele>252</ele>
        <time>2014-08-29T09:53:58Z</time>
      </trkpt>
      <trkpt lat="48.07965" lon="7.64102">
        <ele>248.16</ele>
        <time>2014-08-29T09:53:59Z</time>
      </trkpt>
      <trkpt lat="48.07965" lon="7.641">
        <ele>253.93</ele>
        <time>2014-08-29T09:54:00Z</time>
      </trkpt>
      <trkpt lat="48.07965" lon="7.64099">
        <ele>253.93</ele>
        <time>2014-08-29T09:54:01Z</time>
      </trkpt>
      <trkpt lat="48.07968" lon="7.64076">
        <ele>252.48</ele>
        <time>2014-08-29T09:54:13Z</time>
      </trkpt>
      <trkpt lat="48.07968" lon="7.64064">
        <ele>252.48</ele>
        <time>2014-08-29T09:54:25Z</time>
      </trkpt>
      <trkpt lat="48.07967" lon="7.64064">
        <ele>252</ele>
        <time>2014-08-29T09:54:26Z</time>
      </trkpt>
      <trkpt lat="48.07954" lon="7.64049">
        <ele>252</ele>
        <time>2014-08-29T09:54:39Z</time>
      </trkpt>
      <trkpt lat="48.07938" lon="7.64034">
        <ele>252</ele>
        <time>2014-08-29T09:54:54Z</time>
      </trkpt>
      <trkpt lat="48.07928" lon="7.64029">
        <ele>252</ele>
        <time>2014-08-29T09:55:02Z</time>
      </trkpt>
      <trkpt lat="48.07922" lon="7.64012">
        <ele>252</ele>
        <time>2014-08-29T09:55:12Z</time>
      </trkpt>
      <trkpt lat="48.07926" lon="7.63987">
        <ele>251.52</ele>
        <time>2014-08-29T09:55:25Z</time>
      </trkpt>
      <trkpt lat="48.07929" lon="7.63973">
        <ele>251.04</ele>
        <time>2014-08-29T09:55:33Z</time>
      </trkpt>
      <trkpt lat="48.07932" lon="7.63957">
        <ele>250.56</ele>
        <time>2014-08-29T09:55:41Z</time>
      </trkpt>
      <trkpt lat="48.07933" lon="7.63948">
        <ele>250.56</ele>
        <time>2014-08-29T09:55:46Z</time>
      </trkpt>
      <trkpt lat="48.07934" lon="7.63929">
        <ele>251.04</ele>
        <time>2014-08-29T09:55:57Z</time>
      </trkpt>
      <trkpt lat="48.07933" lon="7.63919">
        <ele>252</ele>
        <time>2014-08-29T09:56:05Z</time>
      </trkpt>
      <trkpt lat="48.07939" lon="7.63907">
        <ele>253.93</ele>
        <time>2014-08-29T09:56:17Z</time>
      </trkpt>
      <trkpt lat="48.07949" lon="7.63891">
        <ele>255.37</ele>
        <time>2014-08-29T09:56:32Z</time>
      </trkpt>
      <trkpt lat="48.07956" lon="7.63878">
        <ele>257.29</ele>
        <time>2014-08-29T09:56:46Z</time>
      </trkpt>
      <trkpt lat="48.07965" lon="7.63857">
        <ele>259.69</ele>
        <time>2014-08-29T09:57:02Z</time>
      </trkpt>
      <trkpt lat="48.07972" lon="7.63842">
        <ele>261.14</ele>
        <time>2014-08-29T09:57:13Z</time>
      </trkpt>
      <trkpt lat="48.07972" lon="7.63839">
        <ele>262.1</ele>
        <time>2014-08-29T09:57:16Z</time>
      </trkpt>
      <trkpt lat="48.07976" lon="7.63823">
        <ele>264.5</ele>
        <time>2014-08-29T09:57:32Z</time>
      </trkpt>
      <trkpt lat="48.07973" lon="7.63821">
        <ele>267.86</ele>
        <time>2014-08-29T09:57:49Z</time>
      </trkpt>
      <trkpt lat="48.07974" lon="7.63804">
        <ele>269.79</ele>
        <time>2014-08-29T09:58:04Z</time>
      </trkpt>
      <trkpt lat="48.07979" lon="7.63791">
        <ele>272.19</ele>
        <time>2014-08-29T09:58:17Z</time>
      </trkpt>
      <trkpt lat="48.07982" lon="7.63787">
        <ele>272.67</ele>
        <time>2014-08-29T09:58:21Z</time>
      </trkpt>
      <trkpt lat="48.07988" lon="7.63765">
        <ele>274.11</ele>
        <time>2014-08-29T09:58:35Z</time>
      </trkpt>
      <trkpt lat="48.07996" lon="7.63752">
        <ele>276.04</ele>
        <time>2014-08-29T09:58:51Z</time>
      </trkpt>
      <trkpt lat="48.08002" lon="7.63742">
        <ele>277.96</ele>
        <time>2014-08-29T09:59:08Z</time>
      </trkpt>
      <trkpt lat="48.07998" lon="7.63731">
        <ele>278.44</ele>
        <time>2014-08-29T09:59:22Z</time>
      </trkpt>
      <trkpt lat="48.07996" lon="7.63732">
        <ele>278.44</ele>
        <time>2014-08-29T09:59:33Z</time>
      </trkpt>
      <trkpt lat="48.08" lon="7.63717">
        <ele>279.88</ele>
        <time>2014-08-29T09:59:45Z</time>
      </trkpt>
      <trkpt lat="48.08002" lon="7.63707">
        <ele>279.4</ele>
        <time>2014-08-29T09:59:59Z</time>
      </trkpt>
      <trkpt lat="48.08001" lon="7.63705">
        <ele>279.88</ele>
        <time>2014-08-29T10:00:06Z</time>
      </trkpt>
      <trkpt lat="48.07992" lon="7.63687">
        <ele>280.36</ele>
        <time>2014-08-29T10:00:20Z</time>
      </trkpt>
      <trkpt lat="48.07978" lon="7.63689">
        <ele>280.84</ele>
        <time>2014-08-29T10:00:36Z</time>
      </trkpt>
      <trkpt lat="48.0796" lon="7.63698">
        <ele>282.77</ele>
        <time>2014-08-29T10:00:54Z</time>
      </trkpt>
      <trkpt lat="48.07942" lon="7.63707">
        <ele>283.73</ele>
        <time>2014-08-29T10:01:11Z</time>
      </trkpt>
      <trkpt lat="48.07924" lon="7.63716">
        <ele>285.17</ele>
        <time>2014-08-29T10:01:28Z</time>
      </trkpt>
      <trkpt lat="48.07911" lon="7.63725">
        <ele>285.17</ele>
        <time>2014-08-29T10:01:42Z</time>
      </trkpt>
      <trkpt lat="48.0791" lon="7.63726">
        <ele>285.17</ele>
        <time>2014-08-29T10:01:43Z</time>
      </trkpt>
      <trkpt lat="48.0791" lon="7.63736">
        <ele>286.13</ele>
        <time>2014-08-29T10:01:50Z</time>
      </trkpt>
      <trkpt lat="48.07912" lon="7.63745">
        <ele>286.61</ele>
        <time>2014-08-29T10:01:58Z</time>
      </trkpt>
      <trkpt lat="48.079" lon="7.63738">
        <ele>287.09</ele>
        <time>2014-08-29T10:02:11Z</time>
      </trkpt>
      <trkpt lat="48.07887" lon="7.63747">
        <ele>287.57</ele>
        <time>2014-08-29T10:02:25Z</time>
      </trkpt>
      <trkpt lat="48.07875" lon="7.63765">
        <ele>287.09</ele>
        <time>2014-08-29T10:02:41Z</time>
      </trkpt>
      <trkpt lat="48.07872" lon="7.63773">
        <ele>287.09</ele>
        <time>2014-08-29T10:02:47Z</time>
      </trkpt>
      <trkpt lat="48.07866" lon="7.63793">
        <ele>286.13</ele>
        <time>2014-08-29T10:03:00Z</time>
      </trkpt>
      <trkpt lat="48.07861" lon="7.63806">
        <ele>286.13</ele>
        <time>2014-08-29T10:03:09Z</time>
      </trkpt>
      <trkpt lat="48.07853" lon="7.63826">
        <ele>286.61</ele>
        <time>2014-08-29T10:03:24Z</time>
      </trkpt>
      <trkpt lat="48.07842" lon="7.63841">
        <ele>286.61</ele>
        <time>2014-08-29T10:03:38Z</time>
      </trkpt>
      <trkpt lat="48.07836" lon="7.63848">
        <ele>287.09</ele>
        <time>2014-08-29T10:03:45Z</time>
      </trkpt>
      <trkpt lat="48.07828" lon="7.63852">
        <ele>288.05</ele>
        <time>2014-08-29T10:04:00Z</time>
      </trkpt>
      <trkpt lat="48.07828" lon="7.63852">
        <ele>288.05</ele>
        <time>2014-08-29T10:04:19Z</time>
      </trkpt>
      <trkpt lat="48.07827" lon="7.63859">
        <ele>287.57</ele>
        <time>2014-08-29T10:04:42Z</time>
      </trkpt>
      <trkpt lat="48.07826" lon="7.63856">
        <ele>288.05</ele>
        <time>2014-08-29T10:05:04Z</time>
      </trkpt>
      <trkpt lat="48.07822" lon="7.63855">
        <ele>288.05</ele>
        <time>2014-08-29T10:05:07Z</time>
      </trkpt>
      <trkpt lat="48.07809" lon="7.63866">
        <ele>287.57</ele>
        <time>2014-08-29T10:05:21Z</time>
      </trkpt>
      <trkpt lat="48.07808" lon="7.63868">
        <ele>287.57</ele>
        <time>2014-08-29T10:05:23Z</time>
      </trkpt>
      <trkpt lat="48.07801" lon="7.63874">
        <ele>287.57</ele>
        <time>2014-08-29T10:05:31Z</time>
      </trkpt>
      <trkpt lat="48.07793" lon="7.63895">
        <ele>286.61</ele>
        <time>2014-08-29T10:05:45Z</time>
      </trkpt>
      <trkpt lat="48.07786" lon="7.63914">
        <ele>286.13</ele>
        <time>2014-08-29T10:05:58Z</time>
      </trkpt>
      <trkpt lat="48.07784" lon="7.63923">
        <ele>286.13</ele>
        <time>2014-08-29T10:06:05Z</time>
      </trkpt>
      <trkpt lat="48.07783" lon="7.63936">
        <ele>284.69</ele>
        <time>2014-08-29T10:06:15Z</time>
      </trkpt>
      <trkpt lat="48.07779" lon="7.63955">
        <ele>282.28</ele>
        <time>2014-08-29T10:06:29Z</time>
      </trkpt>
      <trkpt lat="48.07775" lon="7.63969">
        <ele>282.77</ele>
        <time>2014-08-29T10:06:40Z</time>
      </trkpt>
      <trkpt lat="48.07767" lon="7.63981">
        <ele>284.69</ele>
        <time>2014-08-29T10:06:51Z</time>
      </trkpt>
      <trkpt lat="48.07752" lon="7.63991">
        <ele>286.61</ele>
        <time>2014-08-29T10:07:08Z</time>
      </trkpt>
      <trkpt lat="48.07754" lon="7.64001">
        <ele>287.57</ele>
        <time>2014-08-29T10:07:21Z</time>
      </trkpt>
      <trkpt lat="48.07744" lon="7.64017">
        <ele>289.49</ele>
        <time>2014-08-29T10:07:37Z</time>
      </trkpt>
      <trkpt lat="48.07735" lon="7.64028">
        <ele>291.42</ele>
        <time>2014-08-29T10:07:55Z</time>
      </trkpt>
      <trkpt lat="48.0773" lon="7.64031">
        <ele>291.9</ele>
        <time>2014-08-29T10:08:00Z</time>
      </trkpt>
      <trkpt lat="48.07712" lon="7.64045">
        <ele>293.34</ele>
        <time>2014-08-29T10:08:16Z</time>
      </trkpt>
      <trkpt lat="48.07696" lon="7.64056">
        <ele>294.3</ele>
        <time>2014-08-29T10:08:28Z</time>
      </trkpt>
      <trkpt lat="48.07693" lon="7.6406">
        <ele>295.26</ele>
        <time>2014-08-29T10:08:34Z</time>
      </trkpt>
      <trkpt lat="48.07689" lon="7.6407">
        <ele>296.22</ele>
        <time>2014-08-29T10:08:43Z</time>
      </trkpt>
      <trkpt lat="48.07685" lon="7.64082">
        <ele>298.15</ele>
        <time>2014-08-29T10:08:55Z</time>
      </trkpt>
      <trkpt lat="48.07684" lon="7.64084">
        <ele>298.15</ele>
        <time>2014-08-29T10:08:56Z</time>
      </trkpt>
      <trkpt lat="48.07686" lon="7.64091">
        <ele>298.15</ele>
        <time>2014-08-29T10:09:02Z</time>
      </trkpt>
      <trkpt lat="48.07671" lon="7.64109">
        <ele>299.59</ele>
        <time>2014-08-29T10:09:17Z</time>
      </trkpt>
      <trkpt lat="48.07667" lon="7.64117">
        <ele>301.99</ele>
        <time>2014-08-29T10:09:26Z</time>
      </trkpt>
      <trkpt lat="48.07666" lon="7.64123">
        <ele>301.99</ele>
        <time>2014-08-29T10:09:29Z</time>
      </trkpt>
      <trkpt lat="48.07652" lon="7.64128">
        <ele>303.43</ele>
        <time>2014-08-29T10:09:38Z</time>
      </trkpt>
      <trkpt lat="48.07644" lon="7.64142">
        <ele>305.36</ele>
        <time>2014-08-29T10:09:53Z</time>
      </trkpt>
      <trkpt lat="48.07636" lon="7.64146">
        <ele>306.8</ele>
        <time>2014-08-29T10:10:04Z</time>
      </trkpt>
      <trkpt lat="48.07625" lon="7.64151">
        <ele>308.72</ele>
        <time>2014-08-29T10:10:15Z</time>
      </trkpt>
      <trkpt lat="48.07622" lon="7.64156">
        <ele>309.2</ele>
        <time>2014-08-29T10:10:21Z</time>
      </trkpt>
      <trkpt lat="48.07613" lon="7.64161">
        <ele>310.64</ele>
        <time>2014-08-29T10:10:34Z</time>
      </trkpt>
      <trkpt lat="48.07602" lon="7.64165">
        <ele>314.01</ele>
        <time>2014-08-29T10:10:49Z</time>
      </trkpt>
      <trkpt lat="48.07589" lon="7.64177">
        <ele>317.37</ele>
        <time>2014-08-29T10:11:09Z</time>
      </trkpt>
      <trkpt lat="48.07581" lon="7.64183">
        <ele>319.78</ele>
        <time>2014-08-29T10:11:27Z</time>
      </trkpt>
      <trkpt lat="48.07578" lon="7.64189">
        <ele>321.7</ele>
        <time>2014-08-29T10:11:40Z</time>
      </trkpt>
      <trkpt lat="48.07568" lon="7.64188">
        <ele>324.1</ele>
        <time>2014-08-29T10:11:53Z</time>
      </trkpt>
      <trkpt lat="48.07554" lon="7.64187">
        <ele>325.54</ele>
        <time>2014-08-29T10:12:07Z</time>
      </trkpt>
      <trkpt lat="48.07552" lon="7.64188">
        <ele>327.47</ele>
        <time>2014-08-29T10:12:10Z</time>
      </trkpt>
      <trkpt lat="48.07549" lon="7.64187">
        <ele>326.99</ele>
        <time>2014-08-29T10:12:23Z</time>
      </trkpt>
      <trkpt lat="48.07542" lon="7.64189">
        <ele>327.47</ele>
        <time>2014-08-29T10:12:34Z</time>
      </trkpt>
      <trkpt lat="48.07532" lon="7.6419">
        <ele>330.83</ele>
        <time>2014-08-29T10:12:48Z</time>
      </trkpt>
      <trkpt lat="48.07523" lon="7.64188">
        <ele>332.27</ele>
        <time>2014-08-29T10:13:00Z</time>
      </trkpt>
      <trkpt lat="48.07523" lon="7.64187">
        <ele>331.79</ele>
        <time>2014-08-29T10:13:19Z</time>
      </trkpt>
      <trkpt lat="48.07521" lon="7.64189">
        <ele>332.27</ele>
        <time>2014-08-29T10:13:42Z</time>
      </trkpt>
      <trkpt lat="48.07507" lon="7.6419">
        <ele>334.68</ele>
        <time>2014-08-29T10:13:57Z</time>
      </trkpt>
      <trkpt lat="48.07511" lon="7.64186">
        <ele>335.16</ele>
        <time>2014-08-29T10:14:11Z</time>
      </trkpt>
      <trkpt lat="48.07515" lon="7.64182">
        <ele>335.16</ele>
        <time>2014-08-29T10:14:24Z</time>
      </trkpt>
      <trkpt lat="48.07513" lon="7.64183">
        <ele>335.16</ele>
        <time>2014-08-29T10:14:41Z</time>
      </trkpt>
      <trkpt lat="48.07514" lon="7.64183">
        <ele>334.68</ele>
        <time>2014-08-29T10:15:14Z</time>
      </trkpt>
      <trkpt lat="48.07516" lon="7.64182">
        <ele>335.64</ele>
        <time>2014-08-29T10:15:30Z</time>
      </trkpt>
      <trkpt lat="48.07517" lon="7.64183">
        <ele>335.16</ele>
        <time>2014-08-29T10:15:52Z</time>
      </trkpt>
      <trkpt lat="48.07518" lon="7.64183">
        <ele>335.64</ele>
        <time>2014-08-29T10:16:02Z</time>
      </trkpt>
      <trkpt lat="48.07517" lon="7.64182">
        <ele>335.64</ele>
        <time>2014-08-29T10:16:22Z</time>
      </trkpt>
      <trkpt lat="48.07517" lon="7.64182">
        <ele>335.16</ele>
        <time>2014-08-29T10:16:41Z</time>
      </trkpt>
      <trkpt lat="48.07516" lon="7.64183">
        <ele>335.64</ele>
        <time>2014-08-29T10:17:23Z</time>
      </trkpt>
      <trkpt lat="48.07517" lon="7.64184">
        <ele>335.64</ele>
        <time>2014-08-29T10:18:26Z</time>
      </trkpt>
      <trkpt lat="48.07518" lon="7.64184">
        <ele>335.16</ele>
        <time>2014-08-29T10:19:36Z</time>
      </trkpt>
      <trkpt lat="48.07518" lon="7.64184">
        <ele>334.68</ele>
        <time>2014-08-29T10:19:59Z</time>
      </trkpt>
      <trkpt lat="48.07515" lon="7.64188">
        <ele>335.16</ele>
        <time>2014-08-29T10:20:20Z</time>
      </trkpt>
      <trkpt lat="48.07514" lon="7.64189">
        <ele>335.64</ele>
        <time>2014-08-29T10:20:41Z</time>
      </trkpt>
      <trkpt lat="48.07507" lon="7.64191">
        <ele>335.64</ele>
        <time>2014-08-29T10:21:00Z</time>
      </trkpt>
      <trkpt lat="48.0751" lon="7.64189">
        <ele>335.16</ele>
        <time>2014-08-29T10:21:30Z</time>
      </trkpt>
      <trkpt lat="48.07508" lon="7.64193">
        <ele>334.68</ele>
        <time>2014-08-29T10:21:52Z</time>
      </trkpt>
      <trkpt lat="48.07519" lon="7.6419">
        <ele>332.75</ele>
        <time>2014-08-29T10:22:07Z</time>
      </trkpt>
      <trkpt lat="48.07518" lon="7.64191">
        <ele>332.75</ele>
        <time>2014-08-29T10:22:21Z</time>
      </trkpt>
      <trkpt lat="48.07518" lon="7.6419">
        <ele>332.75</ele>
        <time>2014-08-29T10:22:26Z</time>
      </trkpt>
      <trkpt lat="48.07502" lon="7.64197">
        <ele>336.12</ele>
        <time>2014-08-29T10:22:42Z</time>
      </trkpt>
      <trkpt lat="48.07493" lon="7.64198">
        <ele>337.08</ele>
        <time>2014-08-29T10:22:54Z</time>
      </trkpt>
      <trkpt lat="48.07497" lon="7.64207">
        <ele>337.08</ele>
        <time>2014-08-29T10:23:11Z</time>
      </trkpt>
      <trkpt lat="48.07496" lon="7.64206">
        <ele>337.08</ele>
        <time>2014-08-29T10:23:14Z</time>
      </trkpt>
      <trkpt lat="48.07487" lon="7.64197">
        <ele>338.52</ele>
        <time>2014-08-29T10:23:26Z</time>
      </trkpt>
      <trkpt lat="48.07484" lon="7.64197">
        <ele>339</ele>
        <time>2014-08-29T10:23:29Z</time>
      </trkpt>
      <trkpt lat="48.07475" lon="7.64199">
        <ele>339.96</ele>
        <time>2014-08-29T10:23:37Z</time>
      </trkpt>
      <trkpt lat="48.07467" lon="7.64198">
        <ele>340.92</ele>
        <time>2014-08-29T10:23:45Z</time>
      </trkpt>
      <trkpt lat="48.0745" lon="7.64202">
        <ele>341.89</ele>
        <time>2014-08-29T10:24:01Z</time>
      </trkpt>
      <trkpt lat="48.07426" lon="7.64204">
        <ele>343.33</ele>
        <time>2014-08-29T10:24:20Z</time>
      </trkpt>
      <trkpt lat="48.07403" lon="7.64206">
        <ele>342.85</ele>
        <time>2014-08-29T10:24:39Z</time>
      </trkpt>
      <trkpt lat="48.07393" lon="7.64214">
        <ele>342.85</ele>
        <time>2014-08-29T10:24:50Z</time>
      </trkpt>
      <trkpt lat="48.07371" lon="7.64241">
        <ele>343.81</ele>
        <time>2014-08-29T10:25:09Z</time>
      </trkpt>
      <trkpt lat="48.07361" lon="7.64265">
        <ele>344.77</ele>
        <time>2014-08-29T10:25:25Z</time>
      </trkpt>
      <trkpt lat="48.07363" lon="7.64274">
        <ele>344.29</ele>
        <time>2014-08-29T10:25:41Z</time>
      </trkpt>
      <trkpt lat="48.0736" lon="7.64268">
        <ele>344.29</ele>
        <time>2014-08-29T10:25:45Z</time>
      </trkpt>
      <trkpt lat="48.07362" lon="7.64257">
        <ele>344.77</ele>
        <time>2014-08-29T10:25:58Z</time>
      </trkpt>
      <trkpt lat="48.0737" lon="7.64287">
        <ele>344.29</ele>
        <time>2014-08-29T10:26:17Z</time>
      </trkpt>
      <trkpt lat="48.07369" lon="7.64292">
        <ele>345.25</ele>
        <time>2014-08-29T10:26:21Z</time>
      </trkpt>
      <trkpt lat="48.07359" lon="7.64322">
        <ele>346.69</ele>
        <time>2014-08-29T10:26:39Z</time>
      </trkpt>
      <trkpt lat="48.07349" lon="7.64328">
        <ele>347.17</ele>
        <time>2014-08-29T10:26:50Z</time>
      </trkpt>
      <trkpt lat="48.07333" lon="7.64341">
        <ele>346.21</ele>
        <time>2014-08-29T10:27:07Z</time>
      </trkpt>
      <trkpt lat="48.07322" lon="7.64347">
        <ele>345.25</ele>
        <time>2014-08-29T10:27:16Z</time>
      </trkpt>
      <trkpt lat="48.07303" lon="7.64367">
        <ele>345.25</ele>
        <time>2014-08-29T10:27:32Z</time>
      </trkpt>
      <trkpt lat="48.07302" lon="7.64371">
        <ele>345.73</ele>
        <time>2014-08-29T10:27:35Z</time>
      </trkpt>
      <trkpt lat="48.0729" lon="7.64395">
        <ele>346.21</ele>
        <time>2014-08-29T10:27:49Z</time>
      </trkpt>
      <trkpt lat="48.07285" lon="7.64417">
        <ele>346.69</ele>
        <time>2014-08-29T10:28:02Z</time>
      </trkpt>
      <trkpt lat="48.07294" lon="7.64443">
        <ele>348.13</ele>
        <time>2014-08-29T10:28:19Z</time>
      </trkpt>
      <trkpt lat="48.07298" lon="7.64459">
        <ele>348.62</ele>
        <time>2014-08-29T10:28:29Z</time>
      </trkpt>
      <trkpt lat="48.07297" lon="7.64491">
        <ele>349.1</ele>
        <time>2014-08-29T10:28:46Z</time>
      </trkpt>
      <trkpt lat="48.07294" lon="7.64522">
        <ele>349.58</ele>
        <time>2014-08-29T10:29:02Z</time>
      </trkpt>
      <trkpt lat="48.07289" lon="7.64553">
        <ele>350.54</ele>
        <time>2014-08-29T10:29:19Z</time>
      </trkpt>
      <trkpt lat="48.07292" lon="7.64577">
        <ele>352.46</ele>
        <time>2014-08-29T10:29:34Z</time>
      </trkpt>
      <trkpt lat="48.07288" lon="7.64601">
        <ele>353.9</ele>
        <time>2014-08-29T10:29:49Z</time>
      </trkpt>
      <trkpt lat="48.0728" lon="7.64621">
        <ele>355.34</ele>
        <time>2014-08-29T10:30:03Z</time>
      </trkpt>
      <trkpt lat="48.07264" lon="7.64639">
        <ele>356.79</ele>
        <time>2014-08-29T10:30:19Z</time>
      </trkpt>
      <trkpt lat="48.07252" lon="7.64648">
        <ele>357.27</ele>
        <time>2014-08-29T10:30:30Z</time>
      </trkpt>
      <trkpt lat="48.0723" lon="7.64664">
        <ele>356.79</ele>
        <time>2014-08-29T10:30:48Z</time>
      </trkpt>
      <trkpt lat="48.07228" lon="7.64669">
        <ele>356.79</ele>
        <time>2014-08-29T10:30:53Z</time>
      </trkpt>
      <trkpt lat="48.07234" lon="7.64705">
        <ele>356.31</ele>
        <time>2014-08-29T10:31:12Z</time>
      </trkpt>
      <trkpt lat="48.07236" lon="7.64734">
        <ele>356.31</ele>
        <time>2014-08-29T10:31:28Z</time>
      </trkpt>
      <trkpt lat="48.07243" lon="7.64754">
        <ele>356.31</ele>
        <time>2014-08-29T10:31:41Z</time>
      </trkpt>
      <trkpt lat="48.07251" lon="7.64783">
        <ele>356.31</ele>
        <time>2014-08-29T10:31:57Z</time>
      </trkpt>
      <trkpt lat="48.07259" lon="7.64808">
        <ele>355.34</ele>
        <time>2014-08-29T10:32:12Z</time>
      </trkpt>
      <trkpt lat="48.07264" lon="7.64828">
        <ele>354.86</ele>
        <time>2014-08-29T10:32:24Z</time>
      </trkpt>
      <trkpt lat="48.07269" lon="7.64849">
        <ele>354.86</ele>
        <time>2014-08-29T10:32:37Z</time>
      </trkpt>
      <trkpt lat="48.07272" lon="7.64856">
        <ele>354.38</ele>
        <time>2014-08-29T10:32:55Z</time>
      </trkpt>
      <trkpt lat="48.07274" lon="7.64874">
        <ele>354.86</ele>
        <time>2014-08-29T10:33:11Z</time>
      </trkpt>
      <trkpt lat="48.07274" lon="7.64877">
        <ele>354.38</ele>
        <time>2014-08-29T10:33:27Z</time>
      </trkpt>
      <trkpt lat="48.07268" lon="7.649">
        <ele>355.83</ele>
        <time>2014-08-29T10:33:41Z</time>
      </trkpt>
      <trkpt lat="48.0726" lon="7.64921">
        <ele>358.23</ele>
        <time>2014-08-29T10:33:57Z</time>
      </trkpt>
      <trkpt lat="48.07255" lon="7.64933">
        <ele>359.67</ele>
        <time>2014-08-29T10:34:11Z</time>
      </trkpt>
      <trkpt lat="48.07257" lon="7.64933">
        <ele>360.15</ele>
        <time>2014-08-29T10:34:49Z</time>
      </trkpt>
      <trkpt lat="48.07254" lon="7.64935">
        <ele>360.15</ele>
        <time>2014-08-29T10:34:52Z</time>
      </trkpt>
      <trkpt lat="48.07248" lon="7.64959">
        <ele>362.07</ele>
        <time>2014-08-29T10:35:09Z</time>
      </trkpt>
      <trkpt lat="48.0724" lon="7.64983">
        <ele>363.52</ele>
        <time>2014-08-29T10:35:24Z</time>
      </trkpt>
      <trkpt lat="48.07228" lon="7.64999">
        <ele>363.52</ele>
        <time>2014-08-29T10:35:37Z</time>
      </trkpt>
      <trkpt lat="48.07213" lon="7.65011">
        <ele>364.48</ele>
        <time>2014-08-29T10:35:51Z</time>
      </trkpt>
      <trkpt lat="48.07204" lon="7.65019">
        <ele>364.96</ele>
        <time>2014-08-29T10:35:59Z</time>
      </trkpt>
      <trkpt lat="48.07202" lon="7.6502">
        <ele>364.96</ele>
        <time>2014-08-29T10:36:01Z</time>
      </trkpt>
      <trkpt lat="48.07187" lon="7.65036">
        <ele>365.92</ele>
        <time>2014-08-29T10:36:16Z</time>
      </trkpt>
      <trkpt lat="48.07178" lon="7.65051">
        <ele>367.36</ele>
        <time>2014-08-29T10:36:31Z</time>
      </trkpt>
      <trkpt lat="48.07182" lon="7.65055">
        <ele>365.92</ele>
        <time>2014-08-29T10:36:48Z</time>
      </trkpt>
      <trkpt lat="48.07185" lon="7.6507">
        <ele>363.04</ele>
        <time>2014-08-29T10:36:58Z</time>
      </trkpt>
      <trkpt lat="48.07192" lon="7.65093">
        <ele>361.11</ele>
        <time>2014-08-29T10:37:15Z</time>
      </trkpt>
      <trkpt lat="48.07194" lon="7.65097">
        <ele>361.11</ele>
        <time>2014-08-29T10:37:18Z</time>
      </trkpt>
      <trkpt lat="48.07207" lon="7.65129">
        <ele>359.19</ele>
        <time>2014-08-29T10:37:37Z</time>
      </trkpt>
      <trkpt lat="48.07215" lon="7.65157">
        <ele>357.75</ele>
        <time>2014-08-29T10:37:53Z</time>
      </trkpt>
      <trkpt lat="48.07221" lon="7.65167">
        <ele>357.27</ele>
        <time>2014-08-29T10:38:01Z</time>
      </trkpt>
      <trkpt lat="48.07225" lon="7.65195">
        <ele>356.79</ele>
        <time>2014-08-29T10:38:19Z</time>
      </trkpt>
      <trkpt lat="48.07238" lon="7.65224">
        <ele>356.31</ele>
        <time>2014-08-29T10:38:39Z</time>
      </trkpt>
      <trkpt lat="48.0725" lon="7.65244">
        <ele>356.31</ele>
        <time>2014-08-29T10:38:55Z</time>
      </trkpt>
      <trkpt lat="48.07269" lon="7.6526">
        <ele>355.34</ele>
        <time>2014-08-29T10:39:16Z</time>
      </trkpt>
      <trkpt lat="48.0728" lon="7.65272">
        <ele>354.86</ele>
        <time>2014-08-29T10:39:32Z</time>
      </trkpt>
      <trkpt lat="48.07281" lon="7.65273">
        <ele>353.9</ele>
        <time>2014-08-29T10:39:40Z</time>
      </trkpt>
      <trkpt lat="48.07306" lon="7.65314">
        <ele>351.02</ele>
        <time>2014-08-29T10:39:54Z</time>
      </trkpt>
      <trkpt lat="48.07312" lon="7.65342">
        <ele>347.17</ele>
        <time>2014-08-29T10:40:08Z</time>
      </trkpt>
      <trkpt lat="48.07315" lon="7.65349">
        <ele>344.29</ele>
        <time>2014-08-29T10:40:16Z</time>
      </trkpt>
      <trkpt lat="48.07317" lon="7.65352">
        <ele>339.48</ele>
        <time>2014-08-29T10:40:23Z</time>
      </trkpt>
      <trkpt lat="48.07319" lon="7.65356">
        <ele>337.56</ele>
        <time>2014-08-29T10:40:25Z</time>
      </trkpt>
      <trkpt lat="48.07324" lon="7.65363">
        <ele>339</ele>
        <time>2014-08-29T10:40:28Z</time>
      </trkpt>
      <trkpt lat="48.07334" lon="7.6537">
        <ele>342.37</ele>
        <time>2014-08-29T10:40:32Z</time>
      </trkpt>
      <trkpt lat="48.07334" lon="7.65377">
        <ele>339</ele>
        <time>2014-08-29T10:40:37Z</time>
      </trkpt>
      <trkpt lat="48.07332" lon="7.65384">
        <ele>342.85</ele>
        <time>2014-08-29T10:40:41Z</time>
      </trkpt>
      <trkpt lat="48.07329" lon="7.65389">
        <ele>340.44</ele>
        <time>2014-08-29T10:40:44Z</time>
      </trkpt>
      <trkpt lat="48.07328" lon="7.65395">
        <ele>340.44</ele>
        <time>2014-08-29T10:40:47Z</time>
      </trkpt>
      <trkpt lat="48.07326" lon="7.65403">
        <ele>343.81</ele>
        <time>2014-08-29T10:40:52Z</time>
      </trkpt>
      <trkpt lat="48.07326" lon="7.65408">
        <ele>339.48</ele>
        <time>2014-08-29T10:40:55Z</time>
      </trkpt>
      <trkpt lat="48.07326" lon="7.65409">
        <ele>345.25</ele>
        <time>2014-08-29T10:40:56Z</time>
      </trkpt>
      <trkpt lat="48.07326" lon="7.6541">
        <ele>340.92</ele>
        <time>2014-08-29T10:40:57Z</time>
      </trkpt>
      <trkpt lat="48.07325" lon="7.65414">
        <ele>343.81</ele>
        <time>2014-08-29T10:41:00Z</time>
      </trkpt>
      <trkpt lat="48.07323" lon="7.65422">
        <ele>345.25</ele>
        <time>2014-08-29T10:41:05Z</time>
      </trkpt>
      <trkpt lat="48.07323" lon="7.65424">
        <ele>340.92</ele>
        <time>2014-08-29T10:41:06Z</time>
      </trkpt>
      <trkpt lat="48.07323" lon="7.65425">
        <ele>344.29</ele>
        <time>2014-08-29T10:41:07Z</time>
      </trkpt>
      <trkpt lat="48.07322" lon="7.65431">
        <ele>341.89</ele>
        <time>2014-08-29T10:41:11Z</time>
      </trkpt>
      <trkpt lat="48.07322" lon="7.65432">
        <ele>345.25</ele>
        <time>2014-08-29T10:41:12Z</time>
      </trkpt>
      <trkpt lat="48.07321" lon="7.65434">
        <ele>342.85</ele>
        <time>2014-08-29T10:41:13Z</time>
      </trkpt>
      <trkpt lat="48.0732" lon="7.65445">
        <ele>345.73</ele>
        <time>2014-08-29T10:41:27Z</time>
      </trkpt>
      <trkpt lat="48.07319" lon="7.65445">
        <ele>341.89</ele>
        <time>2014-08-29T10:41:28Z</time>
      </trkpt>
      <trkpt lat="48.07317" lon="7.65443">
        <ele>345.25</ele>
        <time>2014-08-29T10:41:30Z</time>
      </trkpt>
      <trkpt lat="48.07312" lon="7.65439">
        <ele>342.37</ele>
        <time>2014-08-29T10:41:37Z</time>
      </trkpt>
      <trkpt lat="48.07311" lon="7.65438">
        <ele>343.81</ele>
        <time>2014-08-29T10:41:39Z</time>
      </trkpt>
      <trkpt lat="48.07314" lon="7.65435">
        <ele>342.85</ele>
        <time>2014-08-29T10:41:56Z</time>
      </trkpt>
      <trkpt lat="48.07323" lon="7.65457">
        <ele>343.81</ele>
        <time>2014-08-29T10:42:14Z</time>
      </trkpt>
      <trkpt lat="48.07325" lon="7.65464">
        <ele>340.92</ele>
        <time>2014-08-29T10:42:21Z</time>
      </trkpt>
      <trkpt lat="48.07324" lon="7.65469">
        <ele>343.81</ele>
        <time>2014-08-29T10:42:26Z</time>
      </trkpt>
      <trkpt lat="48.07324" lon="7.65471">
        <ele>343.81</ele>
        <time>2014-08-29T10:42:27Z</time>
      </trkpt>
      <trkpt lat="48.07327" lon="7.65476">
        <ele>343.81</ele>
        <time>2014-08-29T10:42:30Z</time>
      </trkpt>
      <trkpt lat="48.07329" lon="7.65481">
        <ele>338.52</ele>
        <time>2014-08-29T10:42:33Z</time>
      </trkpt>
      <trkpt lat="48.0733" lon="7.65482">
        <ele>338.52</ele>
        <time>2014-08-29T10:42:34Z</time>
      </trkpt>
      <trkpt lat="48.07333" lon="7.65481">
        <ele>341.89</ele>
        <time>2014-08-29T10:42:36Z</time>
      </trkpt>
      <trkpt lat="48.07333" lon="7.65481">
        <ele>340.44</ele>
        <time>2014-08-29T10:42:37Z</time>
      </trkpt>
      <trkpt lat="48.07335" lon="7.6548">
        <ele>339.96</ele>
        <time>2014-08-29T10:42:39Z</time>
      </trkpt>
      <trkpt lat="48.07335" lon="7.65483">
        <ele>339</ele>
        <time>2014-08-29T10:42:44Z</time>
      </trkpt>
      <trkpt lat="48.07344" lon="7.65504">
        <ele>339.48</ele>
        <time>2014-08-29T10:42:57Z</time>
      </trkpt>
      <trkpt lat="48.07347" lon="7.65509">
        <ele>336.6</ele>
        <time>2014-08-29T10:43:01Z</time>
      </trkpt>
      <trkpt lat="48.07358" lon="7.65524">
        <ele>335.16</ele>
        <time>2014-08-29T10:43:15Z</time>
      </trkpt>
      <trkpt lat="48.07373" lon="7.65538">
        <ele>332.75</ele>
        <time>2014-08-29T10:43:31Z</time>
      </trkpt>
      <trkpt lat="48.07379" lon="7.65539">
        <ele>330.83</ele>
        <time>2014-08-29T10:43:36Z</time>
      </trkpt>
      <trkpt lat="48.07385" lon="7.6554">
        <ele>333.71</ele>
        <time>2014-08-29T10:43:40Z</time>
      </trkpt>
      <trkpt lat="48.07395" lon="7.65546">
        <ele>333.23</ele>
        <time>2014-08-29T10:43:47Z</time>
      </trkpt>
      <trkpt lat="48.07399" lon="7.65551">
        <ele>331.31</ele>
        <time>2014-08-29T10:43:50Z</time>
      </trkpt>
      <trkpt lat="48.07417" lon="7.65566">
        <ele>334.68</ele>
        <time>2014-08-29T10:44:08Z</time>
      </trkpt>
      <trkpt lat="48.07418" lon="7.65566">
        <ele>333.23</ele>
        <time>2014-08-29T10:44:09Z</time>
      </trkpt>
      <trkpt lat="48.07421" lon="7.65567">
        <ele>330.83</ele>
        <time>2014-08-29T10:44:11Z</time>
      </trkpt>
      <trkpt lat="48.0743" lon="7.65557">
        <ele>335.64</ele>
        <time>2014-08-29T10:44:19Z</time>
      </trkpt>
      <trkpt lat="48.0743" lon="7.65556">
        <ele>334.2</ele>
        <time>2014-08-29T10:44:20Z</time>
      </trkpt>
      <trkpt lat="48.07431" lon="7.65553">
        <ele>329.39</ele>
        <time>2014-08-29T10:44:22Z</time>
      </trkpt>
      <trkpt lat="48.07431" lon="7.65551">
        <ele>329.87</ele>
        <time>2014-08-29T10:44:23Z</time>
      </trkpt>
      <trkpt lat="48.07432" lon="7.65549">
        <ele>333.23</ele>
        <time>2014-08-29T10:44:24Z</time>
      </trkpt>
      <trkpt lat="48.07433" lon="7.65548">
        <ele>333.23</ele>
        <time>2014-08-29T10:44:25Z</time>
      </trkpt>
      <trkpt lat="48.07434" lon="7.65543">
        <ele>331.79</ele>
        <time>2014-08-29T10:44:29Z</time>
      </trkpt>
      <trkpt lat="48.07437" lon="7.65527">
        <ele>328.91</ele>
        <time>2014-08-29T10:45:00Z</time>
      </trkpt>
      <trkpt lat="48.0744" lon="7.65519">
        <ele>332.27</ele>
        <time>2014-08-29T10:45:04Z</time>
      </trkpt>
      <trkpt lat="48.07442" lon="7.65514">
        <ele>328.91</ele>
        <time>2014-08-29T10:45:07Z</time>
      </trkpt>
      <trkpt lat="48.07442" lon="7.65512">
        <ele>329.87</ele>
        <time>2014-08-29T10:45:08Z</time>
      </trkpt>
      <trkpt lat="48.07443" lon="7.65507">
        <ele>332.27</ele>
        <time>2014-08-29T10:45:11Z</time>
      </trkpt>
      <trkpt lat="48.07447" lon="7.65501">
        <ele>328.43</ele>
        <time>2014-08-29T10:45:17Z</time>
      </trkpt>
      <trkpt lat="48.07447" lon="7.65499">
        <ele>331.31</ele>
        <time>2014-08-29T10:45:18Z</time>
      </trkpt>
      <trkpt lat="48.07449" lon="7.65496">
        <ele>327.47</ele>
        <time>2014-08-29T10:45:21Z</time>
      </trkpt>
      <trkpt lat="48.07453" lon="7.65491">
        <ele>327.47</ele>
        <time>2014-08-29T10:45:27Z</time>
      </trkpt>
      <trkpt lat="48.07454" lon="7.65489">
        <ele>323.62</ele>
        <time>2014-08-29T10:45:31Z</time>
      </trkpt>
      <trkpt lat="48.07455" lon="7.65488">
        <ele>324.58</ele>
        <time>2014-08-29T10:45:32Z</time>
      </trkpt>
      <trkpt lat="48.07456" lon="7.65488">
        <ele>325.06</ele>
        <time>2014-08-29T10:45:33Z</time>
      </trkpt>
      <trkpt lat="48.07459" lon="7.65484">
        <ele>321.7</ele>
        <time>2014-08-29T10:45:40Z</time>
      </trkpt>
      <trkpt lat="48.07456" lon="7.65488">
        <ele>321.7</ele>
        <time>2014-08-29T10:45:45Z</time>
      </trkpt>
      <trkpt lat="48.07456" lon="7.65494">
        <ele>317.85</ele>
        <time>2014-08-29T10:45:49Z</time>
      </trkpt>
      <trkpt lat="48.07459" lon="7.65504">
        <ele>317.37</ele>
        <time>2014-08-29T10:45:55Z</time>
      </trkpt>
      <trkpt lat="48.07464" lon="7.65495">
        <ele>317.37</ele>
        <time>2014-08-29T10:46:07Z</time>
      </trkpt>
      <trkpt lat="48.07468" lon="7.65478">
        <ele>317.37</ele>
        <time>2014-08-29T10:46:19Z</time>
      </trkpt>
      <trkpt lat="48.0747" lon="7.65476">
        <ele>317.37</ele>
        <time>2014-08-29T10:46:21Z</time>
      </trkpt>
      <trkpt lat="48.07474" lon="7.65473">
        <ele>316.89</ele>
        <time>2014-08-29T10:46:25Z</time>
      </trkpt>
      <trkpt lat="48.07483" lon="7.65475">
        <ele>315.93</ele>
        <time>2014-08-29T10:46:33Z</time>
      </trkpt>
      <trkpt lat="48.07488" lon="7.65476">
        <ele>315.45</ele>
        <time>2014-08-29T10:46:37Z</time>
      </trkpt>
      <trkpt lat="48.07501" lon="7.6548">
        <ele>314.01</ele>
        <time>2014-08-29T10:46:48Z</time>
      </trkpt>
      <trkpt lat="48.07506" lon="7.65483">
        <ele>314.49</ele>
        <time>2014-08-29T10:46:53Z</time>
      </trkpt>
      <trkpt lat="48.07512" lon="7.6549">
        <ele>311.6</ele>
        <time>2014-08-29T10:47:00Z</time>
      </trkpt>
      <trkpt lat="48.07512" lon="7.65491">
        <ele>311.12</ele>
        <time>2014-08-29T10:47:01Z</time>
      </trkpt>
      <trkpt lat="48.07528" lon="7.65506">
        <ele>309.2</ele>
        <time>2014-08-29T10:47:16Z</time>
      </trkpt>
      <trkpt lat="48.07529" lon="7.65506">
        <ele>309.68</ele>
        <time>2014-08-29T10:47:26Z</time>
      </trkpt>
      <trkpt lat="48.07529" lon="7.65518">
        <ele>310.16</ele>
        <time>2014-08-29T10:47:35Z</time>
      </trkpt>
      <trkpt lat="48.0752" lon="7.65536">
        <ele>311.12</ele>
        <time>2014-08-29T10:47:48Z</time>
      </trkpt>
      <trkpt lat="48.07514" lon="7.65556">
        <ele>312.57</ele>
        <time>2014-08-29T10:48:00Z</time>
      </trkpt>
      <trkpt lat="48.07509" lon="7.65572">
        <ele>313.53</ele>
        <time>2014-08-29T10:48:10Z</time>
      </trkpt>
      <trkpt lat="48.07509" lon="7.65576">
        <ele>314.01</ele>
        <time>2014-08-29T10:48:12Z</time>
      </trkpt>
      <trkpt lat="48.07505" lon="7.65599">
        <ele>315.93</ele>
        <time>2014-08-29T10:48:26Z</time>
      </trkpt>
      <trkpt lat="48.07502" lon="7.65617">
        <ele>317.37</ele>
        <time>2014-08-29T10:48:37Z</time>
      </trkpt>
      <trkpt lat="48.07505" lon="7.65619">
        <ele>317.85</ele>
        <time>2014-08-29T10:48:46Z</time>
      </trkpt>
      <trkpt lat="48.07509" lon="7.6562">
        <ele>317.37</ele>
        <time>2014-08-29T10:48:50Z</time>
      </trkpt>
      <trkpt lat="48.07521" lon="7.65615">
        <ele>316.89</ele>
        <time>2014-08-29T10:49:00Z</time>
      </trkpt>
      <trkpt lat="48.07526" lon="7.65611">
        <ele>316.89</ele>
        <time>2014-08-29T10:49:05Z</time>
      </trkpt>
      <trkpt lat="48.07544" lon="7.65605">
        <ele>316.41</ele>
        <time>2014-08-29T10:49:20Z</time>
      </trkpt>
      <trkpt lat="48.07553" lon="7.65605">
        <ele>316.89</ele>
        <time>2014-08-29T10:49:32Z</time>
      </trkpt>
      <trkpt lat="48.07553" lon="7.65607">
        <ele>314.01</ele>
        <time>2014-08-29T10:49:34Z</time>
      </trkpt>
      <trkpt lat="48.07553" lon="7.6561">
        <ele>316.41</ele>
        <time>2014-08-29T10:49:36Z</time>
      </trkpt>
      <trkpt lat="48.07557" lon="7.65626">
        <ele>317.37</ele>
        <time>2014-08-29T10:49:49Z</time>
      </trkpt>
      <trkpt lat="48.07563" lon="7.65642">
        <ele>321.22</ele>
        <time>2014-08-29T10:50:01Z</time>
      </trkpt>
      <trkpt lat="48.07568" lon="7.65657">
        <ele>320.26</ele>
        <time>2014-08-29T10:50:15Z</time>
      </trkpt>
      <trkpt lat="48.07569" lon="7.65659">
        <ele>321.22</ele>
        <time>2014-08-29T10:50:17Z</time>
      </trkpt>
      <trkpt lat="48.07571" lon="7.65665">
        <ele>325.06</ele>
        <time>2014-08-29T10:50:23Z</time>
      </trkpt>
      <trkpt lat="48.07572" lon="7.65668">
        <ele>321.7</ele>
        <time>2014-08-29T10:50:26Z</time>
      </trkpt>
      <trkpt lat="48.07573" lon="7.6567">
        <ele>325.06</ele>
        <time>2014-08-29T10:50:28Z</time>
      </trkpt>
      <trkpt lat="48.07573" lon="7.65671">
        <ele>320.26</ele>
        <time>2014-08-29T10:50:29Z</time>
      </trkpt>
      <trkpt lat="48.07574" lon="7.65672">
        <ele>324.58</ele>
        <time>2014-08-29T10:50:30Z</time>
      </trkpt>
      <trkpt lat="48.07576" lon="7.65678">
        <ele>325.06</ele>
        <time>2014-08-29T10:50:35Z</time>
      </trkpt>
      <trkpt lat="48.07579" lon="7.65686">
        <ele>323.62</ele>
        <time>2014-08-29T10:50:42Z</time>
      </trkpt>
      <trkpt lat="48.0758" lon="7.65689">
        <ele>325.06</ele>
        <time>2014-08-29T10:50:44Z</time>
      </trkpt>
      <trkpt lat="48.07582" lon="7.65693">
        <ele>327.95</ele>
        <time>2014-08-29T10:50:47Z</time>
      </trkpt>
      <trkpt lat="48.07582" lon="7.65694">
        <ele>326.99</ele>
        <time>2014-08-29T10:50:48Z</time>
      </trkpt>
      <trkpt lat="48.07585" lon="7.657">
        <ele>328.91</ele>
        <time>2014-08-29T10:50:54Z</time>
      </trkpt>
      <trkpt lat="48.07587" lon="7.65704">
        <ele>326.02</ele>
        <time>2014-08-29T10:50:57Z</time>
      </trkpt>
      <trkpt lat="48.07589" lon="7.65708">
        <ele>329.39</ele>
        <time>2014-08-29T10:51:00Z</time>
      </trkpt>
      <trkpt lat="48.07589" lon="7.6571">
        <ele>325.54</ele>
        <time>2014-08-29T10:51:02Z</time>
      </trkpt>
      <trkpt lat="48.07591" lon="7.65712">
        <ele>330.83</ele>
        <time>2014-08-29T10:51:04Z</time>
      </trkpt>
      <trkpt lat="48.07591" lon="7.65713">
        <ele>328.43</ele>
        <time>2014-08-29T10:51:05Z</time>
      </trkpt>
      <trkpt lat="48.07593" lon="7.65719">
        <ele>329.39</ele>
        <time>2014-08-29T10:51:09Z</time>
      </trkpt>
      <trkpt lat="48.07598" lon="7.6573">
        <ele>333.23</ele>
        <time>2014-08-29T10:51:18Z</time>
      </trkpt>
      <trkpt lat="48.07598" lon="7.65732">
        <ele>331.79</ele>
        <time>2014-08-29T10:51:19Z</time>
      </trkpt>
      <trkpt lat="48.07598" lon="7.65733">
        <ele>328.43</ele>
        <time>2014-08-29T10:51:20Z</time>
      </trkpt>
      <trkpt lat="48.07599" lon="7.65734">
        <ele>328.91</ele>
        <time>2014-08-29T10:51:21Z</time>
      </trkpt>
      <trkpt lat="48.07599" lon="7.65736">
        <ele>333.71</ele>
        <time>2014-08-29T10:51:22Z</time>
      </trkpt>
      <trkpt lat="48.076" lon="7.65737">
        <ele>332.27</ele>
        <time>2014-08-29T10:51:23Z</time>
      </trkpt>
      <trkpt lat="48.076" lon="7.65738">
        <ele>328.91</ele>
        <time>2014-08-29T10:51:24Z</time>
      </trkpt>
      <trkpt lat="48.076" lon="7.6574">
        <ele>329.87</ele>
        <time>2014-08-29T10:51:25Z</time>
      </trkpt>
      <trkpt lat="48.07601" lon="7.65742">
        <ele>333.23</ele>
        <time>2014-08-29T10:51:27Z</time>
      </trkpt>
      <trkpt lat="48.07603" lon="7.65747">
        <ele>333.23</ele>
        <time>2014-08-29T10:51:31Z</time>
      </trkpt>
      <trkpt lat="48.07605" lon="7.65755">
        <ele>334.68</ele>
        <time>2014-08-29T10:51:36Z</time>
      </trkpt>
      <trkpt lat="48.07608" lon="7.65761">
        <ele>334.2</ele>
        <time>2014-08-29T10:51:49Z</time>
      </trkpt>
      <trkpt lat="48.07608" lon="7.65762">
        <ele>333.71</ele>
        <time>2014-08-29T10:53:05Z</time>
      </trkpt>
      <trkpt lat="48.07608" lon="7.65762">
        <ele>333.23</ele>
        <time>2014-08-29T10:53:36Z</time>
      </trkpt>
      <trkpt lat="48.07609" lon="7.65772">
        <ele>336.12</ele>
        <time>2014-08-29T10:55:01Z</time>
      </trkpt>
      <trkpt lat="48.0761" lon="7.65774">
        <ele>334.2</ele>
        <time>2014-08-29T10:55:03Z</time>
      </trkpt>
      <trkpt lat="48.07611" lon="7.65779">
        <ele>336.12</ele>
        <time>2014-08-29T10:55:06Z</time>
      </trkpt>
      <trkpt lat="48.07612" lon="7.65796">
        <ele>335.16</ele>
        <time>2014-08-29T10:55:17Z</time>
      </trkpt>
      <trkpt lat="48.07613" lon="7.65797">
        <ele>339</ele>
        <time>2014-08-29T10:55:18Z</time>
      </trkpt>
      <trkpt lat="48.07613" lon="7.65801">
        <ele>336.12</ele>
        <time>2014-08-29T10:55:21Z</time>
      </trkpt>
      <trkpt lat="48.07613" lon="7.65808">
        <ele>335.64</ele>
        <time>2014-08-29T10:55:25Z</time>
      </trkpt>
      <trkpt lat="48.07613" lon="7.65811">
        <ele>339</ele>
        <time>2014-08-29T10:55:27Z</time>
      </trkpt>
      <trkpt lat="48.07613" lon="7.65812">
        <ele>339</ele>
        <time>2014-08-29T10:55:28Z</time>
      </trkpt>
      <trkpt lat="48.07614" lon="7.65815">
        <ele>338.04</ele>
        <time>2014-08-29T10:55:30Z</time>
      </trkpt>
      <trkpt lat="48.07613" lon="7.65818">
        <ele>341.41</ele>
        <time>2014-08-29T10:55:32Z</time>
      </trkpt>
      <trkpt lat="48.07613" lon="7.65822">
        <ele>338.04</ele>
        <time>2014-08-29T10:55:34Z</time>
      </trkpt>
      <trkpt lat="48.07613" lon="7.65825">
        <ele>341.41</ele>
        <time>2014-08-29T10:55:36Z</time>
      </trkpt>
      <trkpt lat="48.07614" lon="7.65839">
        <ele>343.33</ele>
        <time>2014-08-29T10:55:46Z</time>
      </trkpt>
      <trkpt lat="48.07614" lon="7.65841">
        <ele>339.96</ele>
        <time>2014-08-29T10:55:47Z</time>
      </trkpt>
      <trkpt lat="48.07613" lon="7.65843">
        <ele>340.92</ele>
        <time>2014-08-29T10:55:48Z</time>
      </trkpt>
      <trkpt lat="48.07613" lon="7.6585">
        <ele>344.29</ele>
        <time>2014-08-29T10:55:53Z</time>
      </trkpt>
      <trkpt lat="48.07611" lon="7.65873">
        <ele>343.81</ele>
        <time>2014-08-29T10:56:09Z</time>
      </trkpt>
      <trkpt lat="48.0761" lon="7.65876">
        <ele>348.13</ele>
        <time>2014-08-29T10:56:11Z</time>
      </trkpt>
      <trkpt lat="48.0761" lon="7.65877">
        <ele>345.25</ele>
        <time>2014-08-29T10:56:12Z</time>
      </trkpt>
      <trkpt lat="48.0761" lon="7.65881">
        <ele>349.1</ele>
        <time>2014-08-29T10:56:15Z</time>
      </trkpt>
      <trkpt lat="48.07606" lon="7.65899">
        <ele>349.58</ele>
        <time>2014-08-29T10:56:28Z</time>
      </trkpt>
      <trkpt lat="48.07603" lon="7.65908">
        <ele>353.9</ele>
        <time>2014-08-29T10:56:35Z</time>
      </trkpt>
      <trkpt lat="48.07603" lon="7.65909">
        <ele>351.98</ele>
        <time>2014-08-29T10:56:36Z</time>
      </trkpt>
      <trkpt lat="48.07601" lon="7.65917">
        <ele>354.86</ele>
        <time>2014-08-29T10:56:43Z</time>
      </trkpt>
      <trkpt lat="48.076" lon="7.65927">
        <ele>353.42</ele>
        <time>2014-08-29T10:56:51Z</time>
      </trkpt>
      <trkpt lat="48.07599" lon="7.65935">
        <ele>357.75</ele>
        <time>2014-08-29T10:56:56Z</time>
      </trkpt>
      <trkpt lat="48.07599" lon="7.65936">
        <ele>353.42</ele>
        <time>2014-08-29T10:56:57Z</time>
      </trkpt>
      <trkpt lat="48.07599" lon="7.65941">
        <ele>358.23</ele>
        <time>2014-08-29T10:57:00Z</time>
      </trkpt>
      <trkpt lat="48.076" lon="7.65947">
        <ele>358.23</ele>
        <time>2014-08-29T10:57:04Z</time>
      </trkpt>
      <trkpt lat="48.07599" lon="7.65954">
        <ele>357.27</ele>
        <time>2014-08-29T10:57:08Z</time>
      </trkpt>
      <trkpt lat="48.07599" lon="7.65957">
        <ele>360.63</ele>
        <time>2014-08-29T10:57:10Z</time>
      </trkpt>
      <trkpt lat="48.07599" lon="7.65958">
        <ele>357.27</ele>
        <time>2014-08-29T10:57:11Z</time>
      </trkpt>
      <trkpt lat="48.07599" lon="7.65963">
        <ele>361.11</ele>
        <time>2014-08-29T10:57:14Z</time>
      </trkpt>
      <trkpt lat="48.07599" lon="7.65964">
        <ele>357.75</ele>
        <time>2014-08-29T10:57:15Z</time>
      </trkpt>
      <trkpt lat="48.07601" lon="7.65975">
        <ele>361.11</ele>
        <time>2014-08-29T10:57:22Z</time>
      </trkpt>
      <trkpt lat="48.07601" lon="7.65977">
        <ele>362.07</ele>
        <time>2014-08-29T10:57:23Z</time>
      </trkpt>
      <trkpt lat="48.07603" lon="7.6598">
        <ele>359.67</ele>
        <time>2014-08-29T10:57:25Z</time>
      </trkpt>
      <trkpt lat="48.07604" lon="7.65982">
        <ele>362.55</ele>
        <time>2014-08-29T10:57:27Z</time>
      </trkpt>
      <trkpt lat="48.07612" lon="7.65998">
        <ele>362.55</ele>
        <time>2014-08-29T10:57:40Z</time>
      </trkpt>
      <trkpt lat="48.07613" lon="7.65999">
        <ele>365.92</ele>
        <time>2014-08-29T10:57:41Z</time>
      </trkpt>
      <trkpt lat="48.07613" lon="7.66001">
        <ele>364</ele>
        <time>2014-08-29T10:57:42Z</time>
      </trkpt>
      <trkpt lat="48.07615" lon="7.66005">
        <ele>365.92</ele>
        <time>2014-08-29T10:57:46Z</time>
      </trkpt>
      <trkpt lat="48.07615" lon="7.66006">
        <ele>362.07</ele>
        <time>2014-08-29T10:57:47Z</time>
      </trkpt>
      <trkpt lat="48.07615" lon="7.66007">
        <ele>363.52</ele>
        <time>2014-08-29T10:57:48Z</time>
      </trkpt>
      <trkpt lat="48.07615" lon="7.66008">
        <ele>367.36</ele>
        <time>2014-08-29T10:57:49Z</time>
      </trkpt>
      <trkpt lat="48.07615" lon="7.66009">
        <ele>365.92</ele>
        <time>2014-08-29T10:57:50Z</time>
      </trkpt>
      <trkpt lat="48.07619" lon="7.66013">
        <ele>367.36</ele>
        <time>2014-08-29T10:57:55Z</time>
      </trkpt>
      <trkpt lat="48.07624" lon="7.66019">
        <ele>365.44</ele>
        <time>2014-08-29T10:58:02Z</time>
      </trkpt>
      <trkpt lat="48.07626" lon="7.66025">
        <ele>365.92</ele>
        <time>2014-08-29T10:58:07Z</time>
      </trkpt>
      <trkpt lat="48.07626" lon="7.66027">
        <ele>368.8</ele>
        <time>2014-08-29T10:58:09Z</time>
      </trkpt>
      <trkpt lat="48.07629" lon="7.66037">
        <ele>369.28</ele>
        <time>2014-08-29T10:58:20Z</time>
      </trkpt>
      <trkpt lat="48.07631" lon="7.66042">
        <ele>372.65</ele>
        <time>2014-08-29T10:58:25Z</time>
      </trkpt>
      <trkpt lat="48.07632" lon="7.66044">
        <ele>372.17</ele>
        <time>2014-08-29T10:58:26Z</time>
      </trkpt>
      <trkpt lat="48.07644" lon="7.6606">
        <ele>373.61</ele>
        <time>2014-08-29T10:58:35Z</time>
      </trkpt>
      <trkpt lat="48.0765" lon="7.66064">
        <ele>377.45</ele>
        <time>2014-08-29T10:58:43Z</time>
      </trkpt>
      <trkpt lat="48.07651" lon="7.66064">
        <ele>372.65</ele>
        <time>2014-08-29T10:58:44Z</time>
      </trkpt>
      <trkpt lat="48.07652" lon="7.66064">
        <ele>376.01</ele>
        <time>2014-08-29T10:58:45Z</time>
      </trkpt>
      <trkpt lat="48.07661" lon="7.66063">
        <ele>374.09</ele>
        <time>2014-08-29T10:58:52Z</time>
      </trkpt>
      <trkpt lat="48.07664" lon="7.66061">
        <ele>376.97</ele>
        <time>2014-08-29T10:58:54Z</time>
      </trkpt>
      <trkpt lat="48.07671" lon="7.66054">
        <ele>373.61</ele>
        <time>2014-08-29T10:58:57Z</time>
      </trkpt>
      <trkpt lat="48.07672" lon="7.66053">
        <ele>375.53</ele>
        <time>2014-08-29T10:58:58Z</time>
      </trkpt>
      <trkpt lat="48.07675" lon="7.66051">
        <ele>378.42</ele>
        <time>2014-08-29T10:59:01Z</time>
      </trkpt>
      <trkpt lat="48.07689" lon="7.66034">
        <ele>377.94</ele>
        <time>2014-08-29T10:59:13Z</time>
      </trkpt>
      <trkpt lat="48.0769" lon="7.66033">
        <ele>380.82</ele>
        <time>2014-08-29T10:59:14Z</time>
      </trkpt>
      <trkpt lat="48.07691" lon="7.66031">
        <ele>379.86</ele>
        <time>2014-08-29T10:59:15Z</time>
      </trkpt>
      <trkpt lat="48.07692" lon="7.66029">
        <ele>376.49</ele>
        <time>2014-08-29T10:59:16Z</time>
      </trkpt>
      <trkpt lat="48.07692" lon="7.66028">
        <ele>378.42</ele>
        <time>2014-08-29T10:59:17Z</time>
      </trkpt>
      <trkpt lat="48.07701" lon="7.6601">
        <ele>379.38</ele>
        <time>2014-08-29T10:59:29Z</time>
      </trkpt>
      <trkpt lat="48.07701" lon="7.66008">
        <ele>377.45</ele>
        <time>2014-08-29T10:59:30Z</time>
      </trkpt>
      <trkpt lat="48.07703" lon="7.66">
        <ele>378.9</ele>
        <time>2014-08-29T10:59:35Z</time>
      </trkpt>
      <trkpt lat="48.07703" lon="7.65965">
        <ele>377.94</ele>
        <time>2014-08-29T10:59:54Z</time>
      </trkpt>
      <trkpt lat="48.07706" lon="7.65943">
        <ele>379.86</ele>
        <time>2014-08-29T11:00:05Z</time>
      </trkpt>
      <trkpt lat="48.07707" lon="7.65938">
        <ele>376.49</ele>
        <time>2014-08-29T11:00:08Z</time>
      </trkpt>
      <trkpt lat="48.07707" lon="7.65936">
        <ele>376.49</ele>
        <time>2014-08-29T11:00:09Z</time>
      </trkpt>
      <trkpt lat="48.07708" lon="7.65931">
        <ele>379.38</ele>
        <time>2014-08-29T11:00:12Z</time>
      </trkpt>
      <trkpt lat="48.07709" lon="7.6593">
        <ele>379.38</ele>
        <time>2014-08-29T11:00:13Z</time>
      </trkpt>
      <trkpt lat="48.07713" lon="7.6592">
        <ele>376.97</ele>
        <time>2014-08-29T11:00:19Z</time>
      </trkpt>
      <trkpt lat="48.07714" lon="7.65914">
        <ele>375.05</ele>
        <time>2014-08-29T11:00:22Z</time>
      </trkpt>
      <trkpt lat="48.07715" lon="7.6591">
        <ele>377.45</ele>
        <time>2014-08-29T11:00:24Z</time>
      </trkpt>
      <trkpt lat="48.07718" lon="7.65885">
        <ele>376.97</ele>
        <time>2014-08-29T11:00:37Z</time>
      </trkpt>
      <trkpt lat="48.07722" lon="7.65859">
        <ele>375.05</ele>
        <time>2014-08-29T11:00:51Z</time>
      </trkpt>
      <trkpt lat="48.07723" lon="7.65854">
        <ele>377.45</ele>
        <time>2014-08-29T11:00:54Z</time>
      </trkpt>
      <trkpt lat="48.07724" lon="7.65846">
        <ele>375.53</ele>
        <time>2014-08-29T11:00:59Z</time>
      </trkpt>
      <trkpt lat="48.07728" lon="7.65836">
        <ele>375.05</ele>
        <time>2014-08-29T11:01:06Z</time>
      </trkpt>
      <trkpt lat="48.07729" lon="7.65834">
        <ele>376.49</ele>
        <time>2014-08-29T11:01:08Z</time>
      </trkpt>
      <trkpt lat="48.07733" lon="7.65832">
        <ele>376.01</ele>
        <time>2014-08-29T11:01:25Z</time>
      </trkpt>
      <trkpt lat="48.07743" lon="7.65843">
        <ele>375.53</ele>
        <time>2014-08-29T11:01:35Z</time>
      </trkpt>
      <trkpt lat="48.07746" lon="7.65847">
        <ele>375.05</ele>
        <time>2014-08-29T11:01:39Z</time>
      </trkpt>
      <trkpt lat="48.07751" lon="7.65852">
        <ele>373.13</ele>
        <time>2014-08-29T11:01:44Z</time>
      </trkpt>
      <trkpt lat="48.07768" lon="7.65866">
        <ele>370.73</ele>
        <time>2014-08-29T11:02:02Z</time>
      </trkpt>
      <trkpt lat="48.07774" lon="7.65878">
        <ele>372.17</ele>
        <time>2014-08-29T11:02:10Z</time>
      </trkpt>
      <trkpt lat="48.07768" lon="7.6589">
        <ele>375.53</ele>
        <time>2014-08-29T11:02:18Z</time>
      </trkpt>
      <trkpt lat="48.07766" lon="7.65893">
        <ele>371.21</ele>
        <time>2014-08-29T11:02:20Z</time>
      </trkpt>
      <trkpt lat="48.07764" lon="7.65894">
        <ele>375.05</ele>
        <time>2014-08-29T11:02:22Z</time>
      </trkpt>
      <trkpt lat="48.07762" lon="7.65899">
        <ele>372.17</ele>
        <time>2014-08-29T11:02:25Z</time>
      </trkpt>
      <trkpt lat="48.07761" lon="7.65901">
        <ele>375.53</ele>
        <time>2014-08-29T11:02:26Z</time>
      </trkpt>
      <trkpt lat="48.0776" lon="7.65902">
        <ele>375.53</ele>
        <time>2014-08-29T11:02:27Z</time>
      </trkpt>
      <trkpt lat="48.07759" lon="7.65904">
        <ele>372.17</ele>
        <time>2014-08-29T11:02:29Z</time>
      </trkpt>
      <trkpt lat="48.07756" lon="7.65906">
        <ele>376.49</ele>
        <time>2014-08-29T11:02:31Z</time>
      </trkpt>
      <trkpt lat="48.07755" lon="7.65907">
        <ele>376.01</ele>
        <time>2014-08-29T11:02:32Z</time>
      </trkpt>
      <trkpt lat="48.07754" lon="7.65908">
        <ele>373.13</ele>
        <time>2014-08-29T11:02:33Z</time>
      </trkpt>
      <trkpt lat="48.07753" lon="7.65909">
        <ele>373.13</ele>
        <time>2014-08-29T11:02:34Z</time>
      </trkpt>
      <trkpt lat="48.07748" lon="7.65917">
        <ele>376.97</ele>
        <time>2014-08-29T11:02:41Z</time>
      </trkpt>
      <trkpt lat="48.07745" lon="7.65921">
        <ele>376.49</ele>
        <time>2014-08-29T11:02:45Z</time>
      </trkpt>
      <trkpt lat="48.0774" lon="7.65929">
        <ele>378.42</ele>
        <time>2014-08-29T11:02:51Z</time>
      </trkpt>
      <trkpt lat="48.07736" lon="7.65936">
        <ele>379.86</ele>
        <time>2014-08-29T11:02:57Z</time>
      </trkpt>
      <trkpt lat="48.07736" lon="7.65937">
        <ele>376.49</ele>
        <time>2014-08-29T11:02:58Z</time>
      </trkpt>
      <trkpt lat="48.07735" lon="7.65938">
        <ele>376.49</ele>
        <time>2014-08-29T11:02:59Z</time>
      </trkpt>
      <trkpt lat="48.07734" lon="7.65941">
        <ele>379.86</ele>
        <time>2014-08-29T11:03:01Z</time>
      </trkpt>
      <trkpt lat="48.07733" lon="7.65947">
        <ele>379.38</ele>
        <time>2014-08-29T11:03:05Z</time>
      </trkpt>
      <trkpt lat="48.07732" lon="7.65948">
        <ele>380.82</ele>
        <time>2014-08-29T11:03:06Z</time>
      </trkpt>
      <trkpt lat="48.07731" lon="7.65957">
        <ele>380.34</ele>
        <time>2014-08-29T11:03:11Z</time>
      </trkpt>
      <trkpt lat="48.07732" lon="7.65963">
        <ele>383.22</ele>
        <time>2014-08-29T11:03:14Z</time>
      </trkpt>
      <trkpt lat="48.07732" lon="7.65966">
        <ele>379.86</ele>
        <time>2014-08-29T11:03:16Z</time>
      </trkpt>
      <trkpt lat="48.07732" lon="7.65968">
        <ele>380.34</ele>
        <time>2014-08-29T11:03:17Z</time>
      </trkpt>
      <trkpt lat="48.07732" lon="7.6597">
        <ele>383.7</ele>
        <time>2014-08-29T11:03:19Z</time>
      </trkpt>
      <trkpt lat="48.07732" lon="7.65983">
        <ele>382.74</ele>
        <time>2014-08-29T11:03:28Z</time>
      </trkpt>
      <trkpt lat="48.07732" lon="7.65994">
        <ele>384.18</ele>
        <time>2014-08-29T11:03:34Z</time>
      </trkpt>
      <trkpt lat="48.07732" lon="7.65999">
        <ele>387.07</ele>
        <time>2014-08-29T11:03:37Z</time>
      </trkpt>
      <trkpt lat="48.07729" lon="7.66023">
        <ele>386.11</ele>
        <time>2014-08-29T11:03:52Z</time>
      </trkpt>
      <trkpt lat="48.07728" lon="7.66028">
        <ele>390.43</ele>
        <time>2014-08-29T11:03:55Z</time>
      </trkpt>
      <trkpt lat="48.07727" lon="7.66031">
        <ele>385.63</ele>
        <time>2014-08-29T11:03:57Z</time>
      </trkpt>
      <trkpt lat="48.07725" lon="7.66035">
        <ele>390.91</ele>
        <time>2014-08-29T11:04:00Z</time>
      </trkpt>
      <trkpt lat="48.07725" lon="7.66037">
        <ele>390.43</ele>
        <time>2014-08-29T11:04:01Z</time>
      </trkpt>
      <trkpt lat="48.07723" lon="7.66043">
        <ele>390.91</ele>
        <time>2014-08-29T11:04:06Z</time>
      </trkpt>
      <trkpt lat="48.07723" lon="7.66045">
        <ele>388.03</ele>
        <time>2014-08-29T11:04:07Z</time>
      </trkpt>
      <trkpt lat="48.07722" lon="7.66051">
        <ele>391.87</ele>
        <time>2014-08-29T11:04:10Z</time>
      </trkpt>
      <trkpt lat="48.07722" lon="7.66052">
        <ele>390.43</ele>
        <time>2014-08-29T11:04:11Z</time>
      </trkpt>
      <trkpt lat="48.07722" lon="7.66056">
        <ele>389.47</ele>
        <time>2014-08-29T11:04:13Z</time>
      </trkpt>
      <trkpt lat="48.07719" lon="7.66072">
        <ele>392.84</ele>
        <time>2014-08-29T11:04:25Z</time>
      </trkpt>
      <trkpt lat="48.07718" lon="7.66085">
        <ele>393.32</ele>
        <time>2014-08-29T11:04:39Z</time>
      </trkpt>
      <trkpt lat="48.07723" lon="7.66091">
        <ele>392.84</ele>
        <time>2014-08-29T11:04:49Z</time>
      </trkpt>
      <trkpt lat="48.07728" lon="7.66104">
        <ele>393.8</ele>
        <time>2014-08-29T11:05:00Z</time>
      </trkpt>
      <trkpt lat="48.07731" lon="7.66118">
        <ele>395.72</ele>
        <time>2014-08-29T11:05:14Z</time>
      </trkpt>
      <trkpt lat="48.07734" lon="7.66132">
        <ele>397.16</ele>
        <time>2014-08-29T11:05:25Z</time>
      </trkpt>
      <trkpt lat="48.07726" lon="7.66152">
        <ele>396.68</ele>
        <time>2014-08-29T11:05:40Z</time>
      </trkpt>
      <trkpt lat="48.07725" lon="7.66154">
        <ele>400.05</ele>
        <time>2014-08-29T11:05:43Z</time>
      </trkpt>
      <trkpt lat="48.07724" lon="7.66158">
        <ele>396.68</ele>
        <time>2014-08-29T11:05:47Z</time>
      </trkpt>
      <trkpt lat="48.07724" lon="7.66162">
        <ele>401.01</ele>
        <time>2014-08-29T11:05:49Z</time>
      </trkpt>
      <trkpt lat="48.07724" lon="7.66163">
        <ele>399.57</ele>
        <time>2014-08-29T11:05:50Z</time>
      </trkpt>
      <trkpt lat="48.0772" lon="7.66179">
        <ele>402.93</ele>
        <time>2014-08-29T11:06:01Z</time>
      </trkpt>
      <trkpt lat="48.07724" lon="7.66195">
        <ele>404.37</ele>
        <time>2014-08-29T11:06:13Z</time>
      </trkpt>
      <trkpt lat="48.07726" lon="7.66207">
        <ele>407.74</ele>
        <time>2014-08-29T11:06:26Z</time>
      </trkpt>
      <trkpt lat="48.07726" lon="7.66216">
        <ele>407.74</ele>
        <time>2014-08-29T11:06:35Z</time>
      </trkpt>
      <trkpt lat="48.07725" lon="7.66236">
        <ele>410.62</ele>
        <time>2014-08-29T11:06:52Z</time>
      </trkpt>
      <trkpt lat="48.07725" lon="7.66236">
        <ele>410.62</ele>
        <time>2014-08-29T11:07:14Z</time>
      </trkpt>
      <trkpt lat="48.07731" lon="7.6624">
        <ele>410.62</ele>
        <time>2014-08-29T11:07:38Z</time>
      </trkpt>
      <trkpt lat="48.07731" lon="7.66242">
        <ele>410.14</ele>
        <time>2014-08-29T11:08:06Z</time>
      </trkpt>
      <trkpt lat="48.07728" lon="7.66253">
        <ele>412.06</ele>
        <time>2014-08-29T11:08:22Z</time>
      </trkpt>
      <trkpt lat="48.0773" lon="7.66259">
        <ele>412.54</ele>
        <time>2014-08-29T11:08:40Z</time>
      </trkpt>
      <trkpt lat="48.07728" lon="7.66276">
        <ele>413.5</ele>
        <time>2014-08-29T11:08:55Z</time>
      </trkpt>
      <trkpt lat="48.07729" lon="7.66282">
        <ele>414.47</ele>
        <time>2014-08-29T11:09:08Z</time>
      </trkpt>
      <trkpt lat="48.0773" lon="7.66308">
        <ele>416.87</ele>
        <time>2014-08-29T11:09:23Z</time>
      </trkpt>
      <trkpt lat="48.07728" lon="7.66324">
        <ele>415.43</ele>
        <time>2014-08-29T11:09:35Z</time>
      </trkpt>
      <trkpt lat="48.07727" lon="7.66325">
        <ele>419.27</ele>
        <time>2014-08-29T11:09:37Z</time>
      </trkpt>
      <trkpt lat="48.07726" lon="7.66325">
        <ele>415.43</ele>
        <time>2014-08-29T11:09:38Z</time>
      </trkpt>
      <trkpt lat="48.07726" lon="7.66325">
        <ele>418.79</ele>
        <time>2014-08-29T11:09:39Z</time>
      </trkpt>
      <trkpt lat="48.07726" lon="7.66346">
        <ele>418.79</ele>
        <time>2014-08-29T11:09:57Z</time>
      </trkpt>
      <trkpt lat="48.07726" lon="7.66349">
        <ele>422.16</ele>
        <time>2014-08-29T11:10:00Z</time>
      </trkpt>
      <trkpt lat="48.07726" lon="7.6635">
        <ele>418.31</ele>
        <time>2014-08-29T11:10:01Z</time>
      </trkpt>
      <trkpt lat="48.07726" lon="7.66351">
        <ele>422.16</ele>
        <time>2014-08-29T11:10:02Z</time>
      </trkpt>
      <trkpt lat="48.07726" lon="7.66362">
        <ele>416.87</ele>
        <time>2014-08-29T11:10:12Z</time>
      </trkpt>
      <trkpt lat="48.07727" lon="7.66363">
        <ele>424.08</ele>
        <time>2014-08-29T11:10:13Z</time>
      </trkpt>
      <trkpt lat="48.07727" lon="7.66364">
        <ele>419.75</ele>
        <time>2014-08-29T11:10:14Z</time>
      </trkpt>
      <trkpt lat="48.07728" lon="7.66368">
        <ele>424.56</ele>
        <time>2014-08-29T11:10:16Z</time>
      </trkpt>
      <trkpt lat="48.07728" lon="7.66376">
        <ele>421.19</ele>
        <time>2014-08-29T11:10:20Z</time>
      </trkpt>
      <trkpt lat="48.07727" lon="7.66382">
        <ele>425.52</ele>
        <time>2014-08-29T11:10:23Z</time>
      </trkpt>
      <trkpt lat="48.07727" lon="7.66385">
        <ele>422.16</ele>
        <time>2014-08-29T11:10:25Z</time>
      </trkpt>
      <trkpt lat="48.07726" lon="7.66386">
        <ele>427.44</ele>
        <time>2014-08-29T11:10:26Z</time>
      </trkpt>
      <trkpt lat="48.07725" lon="7.66387">
        <ele>421.68</ele>
        <time>2014-08-29T11:10:27Z</time>
      </trkpt>
      <trkpt lat="48.07725" lon="7.66387">
        <ele>426.48</ele>
        <time>2014-08-29T11:10:32Z</time>
      </trkpt>
      <trkpt lat="48.07725" lon="7.66387">
        <ele>422.16</ele>
        <time>2014-08-29T11:10:34Z</time>
      </trkpt>
      <trkpt lat="48.07724" lon="7.66389">
        <ele>427.44</ele>
        <time>2014-08-29T11:10:35Z</time>
      </trkpt>
      <trkpt lat="48.07723" lon="7.6639">
        <ele>423.6</ele>
        <time>2014-08-29T11:10:36Z</time>
      </trkpt>
      <trkpt lat="48.07722" lon="7.66393">
        <ele>428.4</ele>
        <time>2014-08-29T11:10:39Z</time>
      </trkpt>
      <trkpt lat="48.0772" lon="7.66397">
        <ele>424.56</ele>
        <time>2014-08-29T11:10:43Z</time>
      </trkpt>
      <trkpt lat="48.07721" lon="7.66398">
        <ele>427.92</ele>
        <time>2014-08-29T11:10:45Z</time>
      </trkpt>
      <trkpt lat="48.07726" lon="7.66422">
        <ele>428.4</ele>
        <time>2014-08-29T11:11:00Z</time>
      </trkpt>
      <trkpt lat="48.07728" lon="7.6643">
        <ele>427.92</ele>
        <time>2014-08-29T11:11:06Z</time>
      </trkpt>
      <trkpt lat="48.07729" lon="7.66442">
        <ele>431.29</ele>
        <time>2014-08-29T11:11:11Z</time>
      </trkpt>
      <trkpt lat="48.07729" lon="7.66452">
        <ele>432.25</ele>
        <time>2014-08-29T11:11:18Z</time>
      </trkpt>
      <trkpt lat="48.07732" lon="7.66461">
        <ele>435.61</ele>
        <time>2014-08-29T11:11:26Z</time>
      </trkpt>
      <trkpt lat="48.07732" lon="7.66461">
        <ele>431.29</ele>
        <time>2014-08-29T11:11:27Z</time>
      </trkpt>
      <trkpt lat="48.07735" lon="7.66469">
        <ele>435.61</ele>
        <time>2014-08-29T11:11:33Z</time>
      </trkpt>
      <trkpt lat="48.07736" lon="7.66471">
        <ele>431.77</ele>
        <time>2014-08-29T11:11:34Z</time>
      </trkpt>
      <trkpt lat="48.07737" lon="7.66472">
        <ele>435.13</ele>
        <time>2014-08-29T11:11:35Z</time>
      </trkpt>
      <trkpt lat="48.07737" lon="7.66473">
        <ele>431.77</ele>
        <time>2014-08-29T11:11:37Z</time>
      </trkpt>
      <trkpt lat="48.07736" lon="7.66478">
        <ele>435.61</ele>
        <time>2014-08-29T11:11:40Z</time>
      </trkpt>
      <trkpt lat="48.07736" lon="7.66479">
        <ele>435.61</ele>
        <time>2014-08-29T11:11:41Z</time>
      </trkpt>
      <trkpt lat="48.07736" lon="7.66485">
        <ele>435.61</ele>
        <time>2014-08-29T11:11:49Z</time>
      </trkpt>
      <trkpt lat="48.07739" lon="7.66493">
        <ele>438.98</ele>
        <time>2014-08-29T11:12:01Z</time>
      </trkpt>
      <trkpt lat="48.07739" lon="7.66493">
        <ele>434.65</ele>
        <time>2014-08-29T11:12:02Z</time>
      </trkpt>
      <trkpt lat="48.07739" lon="7.66493">
        <ele>438.5</ele>
        <time>2014-08-29T11:12:03Z</time>
      </trkpt>
      <trkpt lat="48.07739" lon="7.66494">
        <ele>435.13</ele>
        <time>2014-08-29T11:12:05Z</time>
      </trkpt>
      <trkpt lat="48.0774" lon="7.66496">
        <ele>438.98</ele>
        <time>2014-08-29T11:12:06Z</time>
      </trkpt>
      <trkpt lat="48.07741" lon="7.66499">
        <ele>437.06</ele>
        <time>2014-08-29T11:12:09Z</time>
      </trkpt>
      <trkpt lat="48.07741" lon="7.665">
        <ele>440.42</ele>
        <time>2014-08-29T11:12:10Z</time>
      </trkpt>
      <trkpt lat="48.07741" lon="7.66501">
        <ele>436.58</ele>
        <time>2014-08-29T11:12:11Z</time>
      </trkpt>
      <trkpt lat="48.07744" lon="7.66504">
        <ele>439.94</ele>
        <time>2014-08-29T11:12:15Z</time>
      </trkpt>
      <trkpt lat="48.07748" lon="7.66514">
        <ele>439.94</ele>
        <time>2014-08-29T11:12:22Z</time>
      </trkpt>
      <trkpt lat="48.07748" lon="7.66515">
        <ele>441.38</ele>
        <time>2014-08-29T11:12:23Z</time>
      </trkpt>
      <trkpt lat="48.07748" lon="7.66516">
        <ele>438.5</ele>
        <time>2014-08-29T11:12:24Z</time>
      </trkpt>
      <trkpt lat="48.07749" lon="7.66517">
        <ele>440.9</ele>
        <time>2014-08-29T11:12:25Z</time>
      </trkpt>
      <trkpt lat="48.0775" lon="7.66524">
        <ele>442.82</ele>
        <time>2014-08-29T11:12:30Z</time>
      </trkpt>
      <trkpt lat="48.0775" lon="7.66525">
        <ele>438.98</ele>
        <time>2014-08-29T11:12:31Z</time>
      </trkpt>
      <trkpt lat="48.07749" lon="7.66527">
        <ele>438.98</ele>
        <time>2014-08-29T11:12:32Z</time>
      </trkpt>
      <trkpt lat="48.07749" lon="7.66528">
        <ele>441.86</ele>
        <time>2014-08-29T11:12:33Z</time>
      </trkpt>
      <trkpt lat="48.07751" lon="7.66535">
        <ele>443.31</ele>
        <time>2014-08-29T11:12:37Z</time>
      </trkpt>
      <trkpt lat="48.07754" lon="7.66547">
        <ele>440.42</ele>
        <time>2014-08-29T11:12:40Z</time>
      </trkpt>
      <trkpt lat="48.07754" lon="7.66555">
        <ele>444.75</ele>
        <time>2014-08-29T11:12:43Z</time>
      </trkpt>
      <trkpt lat="48.07753" lon="7.66556">
        <ele>440.9</ele>
        <time>2014-08-29T11:12:44Z</time>
      </trkpt>
      <trkpt lat="48.07752" lon="7.6656">
        <ele>445.71</ele>
        <time>2014-08-29T11:12:47Z</time>
      </trkpt>
      <trkpt lat="48.07752" lon="7.66565">
        <ele>441.86</ele>
        <time>2014-08-29T11:12:50Z</time>
      </trkpt>
      <trkpt lat="48.07752" lon="7.66568">
        <ele>442.34</ele>
        <time>2014-08-29T11:12:53Z</time>
      </trkpt>
      <trkpt lat="48.07752" lon="7.66568">
        <ele>445.23</ele>
        <time>2014-08-29T11:12:54Z</time>
      </trkpt>
      <trkpt lat="48.07753" lon="7.66584">
        <ele>448.59</ele>
        <time>2014-08-29T11:13:08Z</time>
      </trkpt>
      <trkpt lat="48.0776" lon="7.66601">
        <ele>448.59</ele>
        <time>2014-08-29T11:13:24Z</time>
      </trkpt>
      <trkpt lat="48.0776" lon="7.66602">
        <ele>451.96</ele>
        <time>2014-08-29T11:13:25Z</time>
      </trkpt>
      <trkpt lat="48.07761" lon="7.66604">
        <ele>447.63</ele>
        <time>2014-08-29T11:13:26Z</time>
      </trkpt>
      <trkpt lat="48.07765" lon="7.66613">
        <ele>451.48</ele>
        <time>2014-08-29T11:13:29Z</time>
      </trkpt>
      <trkpt lat="48.0777" lon="7.66627">
        <ele>452.92</ele>
        <time>2014-08-29T11:13:35Z</time>
      </trkpt>
      <trkpt lat="48.0777" lon="7.66632">
        <ele>450.03</ele>
        <time>2014-08-29T11:13:41Z</time>
      </trkpt>
      <trkpt lat="48.0777" lon="7.66633">
        <ele>453.4</ele>
        <time>2014-08-29T11:13:42Z</time>
      </trkpt>
      <trkpt lat="48.0777" lon="7.66634">
        <ele>454.36</ele>
        <time>2014-08-29T11:13:43Z</time>
      </trkpt>
      <trkpt lat="48.0777" lon="7.66636">
        <ele>451.48</ele>
        <time>2014-08-29T11:13:45Z</time>
      </trkpt>
      <trkpt lat="48.07771" lon="7.66637">
        <ele>453.88</ele>
        <time>2014-08-29T11:13:47Z</time>
      </trkpt>
      <trkpt lat="48.07774" lon="7.66642">
        <ele>453.88</ele>
        <time>2014-08-29T11:13:52Z</time>
      </trkpt>
      <trkpt lat="48.0778" lon="7.66662">
        <ele>458.21</ele>
        <time>2014-08-29T11:14:03Z</time>
      </trkpt>
      <trkpt lat="48.0778" lon="7.66666">
        <ele>454.84</ele>
        <time>2014-08-29T11:14:06Z</time>
      </trkpt>
      <trkpt lat="48.0778" lon="7.66668">
        <ele>458.21</ele>
        <time>2014-08-29T11:14:07Z</time>
      </trkpt>
      <trkpt lat="48.07781" lon="7.66676">
        <ele>456.28</ele>
        <time>2014-08-29T11:14:10Z</time>
      </trkpt>
      <trkpt lat="48.07784" lon="7.6668">
        <ele>458.21</ele>
        <time>2014-08-29T11:14:14Z</time>
      </trkpt>
      <trkpt lat="48.07787" lon="7.66693">
        <ele>459.65</ele>
        <time>2014-08-29T11:14:29Z</time>
      </trkpt>
      <trkpt lat="48.07791" lon="7.66704">
        <ele>463.49</ele>
        <time>2014-08-29T11:14:44Z</time>
      </trkpt>
      <trkpt lat="48.07792" lon="7.66706">
        <ele>460.13</ele>
        <time>2014-08-29T11:14:45Z</time>
      </trkpt>
      <trkpt lat="48.07795" lon="7.66708">
        <ele>463.01</ele>
        <time>2014-08-29T11:14:49Z</time>
      </trkpt>
      <trkpt lat="48.07803" lon="7.66724">
        <ele>466.38</ele>
        <time>2014-08-29T11:15:02Z</time>
      </trkpt>
      <trkpt lat="48.07803" lon="7.66727">
        <ele>463.01</ele>
        <time>2014-08-29T11:15:03Z</time>
      </trkpt>
      <trkpt lat="48.07803" lon="7.66732">
        <ele>466.38</ele>
        <time>2014-08-29T11:15:06Z</time>
      </trkpt>
      <trkpt lat="48.07804" lon="7.66734">
        <ele>466.38</ele>
        <time>2014-08-29T11:15:07Z</time>
      </trkpt>
      <trkpt lat="48.07806" lon="7.66738">
        <ele>468.78</ele>
        <time>2014-08-29T11:15:14Z</time>
      </trkpt>
      <trkpt lat="48.07808" lon="7.66738">
        <ele>466.86</ele>
        <time>2014-08-29T11:15:15Z</time>
      </trkpt>
      <trkpt lat="48.07825" lon="7.6676">
        <ele>464.93</ele>
        <time>2014-08-29T11:15:33Z</time>
      </trkpt>
      <trkpt lat="48.07826" lon="7.6676">
        <ele>471.18</ele>
        <time>2014-08-29T11:15:34Z</time>
      </trkpt>
      <trkpt lat="48.07828" lon="7.66762">
        <ele>471.18</ele>
        <time>2014-08-29T11:15:40Z</time>
      </trkpt>
      <trkpt lat="48.0783" lon="7.66764">
        <ele>475.03</ele>
        <time>2014-08-29T11:15:45Z</time>
      </trkpt>
      <trkpt lat="48.0783" lon="7.66766">
        <ele>471.18</ele>
        <time>2014-08-29T11:15:47Z</time>
      </trkpt>
      <trkpt lat="48.0783" lon="7.66767">
        <ele>471.66</ele>
        <time>2014-08-29T11:15:48Z</time>
      </trkpt>
      <trkpt lat="48.0783" lon="7.66774">
        <ele>475.51</ele>
        <time>2014-08-29T11:15:54Z</time>
      </trkpt>
      <trkpt lat="48.07828" lon="7.66782">
        <ele>478.39</ele>
        <time>2014-08-29T11:16:10Z</time>
      </trkpt>
      <trkpt lat="48.07823" lon="7.66795">
        <ele>481.28</ele>
        <time>2014-08-29T11:16:24Z</time>
      </trkpt>
      <trkpt lat="48.07822" lon="7.66797">
        <ele>477.91</ele>
        <time>2014-08-29T11:16:25Z</time>
      </trkpt>
      <trkpt lat="48.07822" lon="7.66798">
        <ele>481.76</ele>
        <time>2014-08-29T11:16:26Z</time>
      </trkpt>
      <trkpt lat="48.07822" lon="7.66798">
        <ele>477.91</ele>
        <time>2014-08-29T11:16:27Z</time>
      </trkpt>
      <trkpt lat="48.07821" lon="7.66801">
        <ele>482.72</ele>
        <time>2014-08-29T11:16:31Z</time>
      </trkpt>
      <trkpt lat="48.0782" lon="7.66802">
        <ele>481.28</ele>
        <time>2014-08-29T11:16:32Z</time>
      </trkpt>
      <trkpt lat="48.07809" lon="7.66827">
        <ele>485.6</ele>
        <time>2014-08-29T11:16:47Z</time>
      </trkpt>
      <trkpt lat="48.078" lon="7.66842">
        <ele>488.97</ele>
        <time>2014-08-29T11:17:06Z</time>
      </trkpt>
      <trkpt lat="48.078" lon="7.66842">
        <ele>488.49</ele>
        <time>2014-08-29T11:17:07Z</time>
      </trkpt>
      <trkpt lat="48.07794" lon="7.66853">
        <ele>488.49</ele>
        <time>2014-08-29T11:17:27Z</time>
      </trkpt>
      <trkpt lat="48.07792" lon="7.66855">
        <ele>488.49</ele>
        <time>2014-08-29T11:17:45Z</time>
      </trkpt>
      <trkpt lat="48.07792" lon="7.66859">
        <ele>488.01</ele>
        <time>2014-08-29T11:18:03Z</time>
      </trkpt>
      <trkpt lat="48.07794" lon="7.66852">
        <ele>488.49</ele>
        <time>2014-08-29T11:18:18Z</time>
      </trkpt>
      <trkpt lat="48.07792" lon="7.66853">
        <ele>488.49</ele>
        <time>2014-08-29T11:18:39Z</time>
      </trkpt>
      <trkpt lat="48.07793" lon="7.66849">
        <ele>488.49</ele>
        <time>2014-08-29T11:18:58Z</time>
      </trkpt>
      <trkpt lat="48.07793" lon="7.66849">
        <ele>488.97</ele>
        <time>2014-08-29T11:19:24Z</time>
      </trkpt>
      <trkpt lat="48.0779" lon="7.66841">
        <ele>488.01</ele>
        <time>2014-08-29T11:19:46Z</time>
      </trkpt>
      <trkpt lat="48.07783" lon="7.6683">
        <ele>487.53</ele>
        <time>2014-08-29T11:20:02Z</time>
      </trkpt>
      <trkpt lat="48.07772" lon="7.66822">
        <ele>487.53</ele>
        <time>2014-08-29T11:20:16Z</time>
      </trkpt>
      <trkpt lat="48.07755" lon="7.66812">
        <ele>487.05</ele>
        <time>2014-08-29T11:20:27Z</time>
      </trkpt>
      <trkpt lat="48.07733" lon="7.66821">
        <ele>486.56</ele>
        <time>2014-08-29T11:20:41Z</time>
      </trkpt>
      <trkpt lat="48.0772" lon="7.66823">
        <ele>486.08</ele>
        <time>2014-08-29T11:20:56Z</time>
      </trkpt>
      <trkpt lat="48.07716" lon="7.66825">
        <ele>485.12</ele>
        <time>2014-08-29T11:20:59Z</time>
      </trkpt>
      <trkpt lat="48.07699" lon="7.66837">
        <ele>484.16</ele>
        <time>2014-08-29T11:21:11Z</time>
      </trkpt>
      <trkpt lat="48.07696" lon="7.6684">
        <ele>484.16</ele>
        <time>2014-08-29T11:21:15Z</time>
      </trkpt>
      <trkpt lat="48.07679" lon="7.66841">
        <ele>481.76</ele>
        <time>2014-08-29T11:21:32Z</time>
      </trkpt>
      <trkpt lat="48.07676" lon="7.66842">
        <ele>481.28</ele>
        <time>2014-08-29T11:21:34Z</time>
      </trkpt>
      <trkpt lat="48.07665" lon="7.66846">
        <ele>479.84</ele>
        <time>2014-08-29T11:21:45Z</time>
      </trkpt>
      <trkpt lat="48.07651" lon="7.66842">
        <ele>477.43</ele>
        <time>2014-08-29T11:21:58Z</time>
      </trkpt>
      <trkpt lat="48.07643" lon="7.66842">
        <ele>475.51</ele>
        <time>2014-08-29T11:22:05Z</time>
      </trkpt>
      <trkpt lat="48.07626" lon="7.66842">
        <ele>472.14</ele>
        <time>2014-08-29T11:22:17Z</time>
      </trkpt>
      <trkpt lat="48.07611" lon="7.66844">
        <ele>470.22</ele>
        <time>2014-08-29T11:22:31Z</time>
      </trkpt>
      <trkpt lat="48.07598" lon="7.6684">
        <ele>467.82</ele>
        <time>2014-08-29T11:22:45Z</time>
      </trkpt>
      <trkpt lat="48.07582" lon="7.66839">
        <ele>466.38</ele>
        <time>2014-08-29T11:22:58Z</time>
      </trkpt>
      <trkpt lat="48.07568" lon="7.66837">
        <ele>463.97</ele>
        <time>2014-08-29T11:23:10Z</time>
      </trkpt>
      <trkpt lat="48.07553" lon="7.66839">
        <ele>461.57</ele>
        <time>2014-08-29T11:23:23Z</time>
      </trkpt>
      <trkpt lat="48.07549" lon="7.66839">
        <ele>460.61</ele>
        <time>2014-08-29T11:23:26Z</time>
      </trkpt>
      <trkpt lat="48.07533" lon="7.66842">
        <ele>457.72</ele>
        <time>2014-08-29T11:23:41Z</time>
      </trkpt>
      <trkpt lat="48.07519" lon="7.66849">
        <ele>454.84</ele>
        <time>2014-08-29T11:23:54Z</time>
      </trkpt>
      <trkpt lat="48.07506" lon="7.66858">
        <ele>451.96</ele>
        <time>2014-08-29T11:24:07Z</time>
      </trkpt>
      <trkpt lat="48.07491" lon="7.66862">
        <ele>448.11</ele>
        <time>2014-08-29T11:24:21Z</time>
      </trkpt>
      <trkpt lat="48.07486" lon="7.66867">
        <ele>449.55</ele>
        <time>2014-08-29T11:24:27Z</time>
      </trkpt>
      <trkpt lat="48.07484" lon="7.6687">
        <ele>448.11</ele>
        <time>2014-08-29T11:24:30Z</time>
      </trkpt>
      <trkpt lat="48.07478" lon="7.66878">
        <ele>442.82</ele>
        <time>2014-08-29T11:24:39Z</time>
      </trkpt>
      <trkpt lat="48.07474" lon="7.6688">
        <ele>443.31</ele>
        <time>2014-08-29T11:24:40Z</time>
      </trkpt>
      <trkpt lat="48.07452" lon="7.66902">
        <ele>441.38</ele>
        <time>2014-08-29T11:24:53Z</time>
      </trkpt>
      <trkpt lat="48.07449" lon="7.66905">
        <ele>440.42</ele>
        <time>2014-08-29T11:24:56Z</time>
      </trkpt>
      <trkpt lat="48.07448" lon="7.66905">
        <ele>442.34</ele>
        <time>2014-08-29T11:24:58Z</time>
      </trkpt>
      <trkpt lat="48.0744" lon="7.66916">
        <ele>438.98</ele>
        <time>2014-08-29T11:25:09Z</time>
      </trkpt>
      <trkpt lat="48.07439" lon="7.66918">
        <ele>437.54</ele>
        <time>2014-08-29T11:25:10Z</time>
      </trkpt>
      <trkpt lat="48.07438" lon="7.66922">
        <ele>437.06</ele>
        <time>2014-08-29T11:25:12Z</time>
      </trkpt>
      <trkpt lat="48.07424" lon="7.66939">
        <ele>436.58</ele>
        <time>2014-08-29T11:25:28Z</time>
      </trkpt>
      <trkpt lat="48.07416" lon="7.6695">
        <ele>432.73</ele>
        <time>2014-08-29T11:25:36Z</time>
      </trkpt>
      <trkpt lat="48.07411" lon="7.66953">
        <ele>433.69</ele>
        <time>2014-08-29T11:25:41Z</time>
      </trkpt>
      <trkpt lat="48.074" lon="7.66959">
        <ele>431.77</ele>
        <time>2014-08-29T11:25:52Z</time>
      </trkpt>
      <trkpt lat="48.07396" lon="7.6696">
        <ele>429.85</ele>
        <time>2014-08-29T11:25:55Z</time>
      </trkpt>
      <trkpt lat="48.07388" lon="7.66962">
        <ele>427.92</ele>
        <time>2014-08-29T11:26:03Z</time>
      </trkpt>
      <trkpt lat="48.07377" lon="7.66961">
        <ele>427.44</ele>
        <time>2014-08-29T11:26:13Z</time>
      </trkpt>
      <trkpt lat="48.07364" lon="7.66946">
        <ele>423.6</ele>
        <time>2014-08-29T11:26:25Z</time>
      </trkpt>
      <trkpt lat="48.07345" lon="7.66927">
        <ele>425.04</ele>
        <time>2014-08-29T11:26:41Z</time>
      </trkpt>
      <trkpt lat="48.07334" lon="7.66918">
        <ele>421.68</ele>
        <time>2014-08-29T11:26:51Z</time>
      </trkpt>
      <trkpt lat="48.07328" lon="7.66914">
        <ele>420.71</ele>
        <time>2014-08-29T11:26:57Z</time>
      </trkpt>
      <trkpt lat="48.07308" lon="7.66899">
        <ele>422.64</ele>
        <time>2014-08-29T11:27:14Z</time>
      </trkpt>
      <trkpt lat="48.07292" lon="7.6689">
        <ele>419.75</ele>
        <time>2014-08-29T11:27:27Z</time>
      </trkpt>
      <trkpt lat="48.07287" lon="7.66885">
        <ele>420.23</ele>
        <time>2014-08-29T11:27:32Z</time>
      </trkpt>
      <trkpt lat="48.07285" lon="7.66884">
        <ele>419.27</ele>
        <time>2014-08-29T11:27:34Z</time>
      </trkpt>
      <trkpt lat="48.07283" lon="7.66883">
        <ele>417.83</ele>
        <time>2014-08-29T11:27:36Z</time>
      </trkpt>
      <trkpt lat="48.07281" lon="7.66883">
        <ele>416.39</ele>
        <time>2014-08-29T11:27:38Z</time>
      </trkpt>
      <trkpt lat="48.0726" lon="7.66871">
        <ele>416.39</ele>
        <time>2014-08-29T11:27:52Z</time>
      </trkpt>
      <trkpt lat="48.07243" lon="7.66862">
        <ele>415.91</ele>
        <time>2014-08-29T11:28:04Z</time>
      </trkpt>
      <trkpt lat="48.07231" lon="7.66856">
        <ele>414.95</ele>
        <time>2014-08-29T11:28:12Z</time>
      </trkpt>
      <trkpt lat="48.07225" lon="7.66852">
        <ele>414.95</ele>
        <time>2014-08-29T11:28:18Z</time>
      </trkpt>
      <trkpt lat="48.0722" lon="7.6685">
        <ele>413.98</ele>
        <time>2014-08-29T11:28:22Z</time>
      </trkpt>
      <trkpt lat="48.07207" lon="7.66847">
        <ele>410.62</ele>
        <time>2014-08-29T11:28:34Z</time>
      </trkpt>
      <trkpt lat="48.07206" lon="7.66847">
        <ele>410.62</ele>
        <time>2014-08-29T11:28:35Z</time>
      </trkpt>
      <trkpt lat="48.07185" lon="7.66848">
        <ele>411.58</ele>
        <time>2014-08-29T11:28:52Z</time>
      </trkpt>
      <trkpt lat="48.07165" lon="7.6685">
        <ele>408.7</ele>
        <time>2014-08-29T11:29:07Z</time>
      </trkpt>
      <trkpt lat="48.07145" lon="7.66858">
        <ele>407.74</ele>
        <time>2014-08-29T11:29:20Z</time>
      </trkpt>
      <trkpt lat="48.0713" lon="7.66864">
        <ele>407.26</ele>
        <time>2014-08-29T11:29:29Z</time>
      </trkpt>
      <trkpt lat="48.07119" lon="7.66871">
        <ele>409.18</ele>
        <time>2014-08-29T11:29:38Z</time>
      </trkpt>
      <trkpt lat="48.07102" lon="7.66877">
        <ele>407.74</ele>
        <time>2014-08-29T11:29:54Z</time>
      </trkpt>
      <trkpt lat="48.07082" lon="7.66878">
        <ele>405.81</ele>
        <time>2014-08-29T11:30:11Z</time>
      </trkpt>
      <trkpt lat="48.07063" lon="7.6688">
        <ele>402.45</ele>
        <time>2014-08-29T11:30:26Z</time>
      </trkpt>
      <trkpt lat="48.0704" lon="7.66883">
        <ele>401.49</ele>
        <time>2014-08-29T11:30:44Z</time>
      </trkpt>
      <trkpt lat="48.07019" lon="7.66872">
        <ele>398.6</ele>
        <time>2014-08-29T11:30:59Z</time>
      </trkpt>
      <trkpt lat="48.06999" lon="7.66863">
        <ele>398.6</ele>
        <time>2014-08-29T11:31:12Z</time>
      </trkpt>
      <trkpt lat="48.06998" lon="7.66863">
        <ele>398.12</ele>
        <time>2014-08-29T11:31:13Z</time>
      </trkpt>
      <trkpt lat="48.06988" lon="7.66857">
        <ele>397.64</ele>
        <time>2014-08-29T11:31:22Z</time>
      </trkpt>
      <trkpt lat="48.06971" lon="7.66853">
        <ele>396.2</ele>
        <time>2014-08-29T11:31:37Z</time>
      </trkpt>
      <trkpt lat="48.06962" lon="7.66851">
        <ele>395.72</ele>
        <time>2014-08-29T11:31:47Z</time>
      </trkpt>
      <trkpt lat="48.06952" lon="7.66841">
        <ele>392.84</ele>
        <time>2014-08-29T11:32:00Z</time>
      </trkpt>
      <trkpt lat="48.0694" lon="7.6684">
        <ele>391.39</ele>
        <time>2014-08-29T11:32:14Z</time>
      </trkpt>
      <trkpt lat="48.0693" lon="7.66841">
        <ele>388.51</ele>
        <time>2014-08-29T11:32:26Z</time>
      </trkpt>
      <trkpt lat="48.06928" lon="7.66841">
        <ele>388.03</ele>
        <time>2014-08-29T11:32:28Z</time>
      </trkpt>
      <trkpt lat="48.06922" lon="7.6684">
        <ele>385.63</ele>
        <time>2014-08-29T11:32:33Z</time>
      </trkpt>
      <trkpt lat="48.0692" lon="7.6684">
        <ele>384.66</ele>
        <time>2014-08-29T11:32:49Z</time>
      </trkpt>
      <trkpt lat="48.06909" lon="7.66843">
        <ele>382.26</ele>
        <time>2014-08-29T11:33:08Z</time>
      </trkpt>
      <trkpt lat="48.06896" lon="7.66853">
        <ele>380.34</ele>
        <time>2014-08-29T11:33:27Z</time>
      </trkpt>
      <trkpt lat="48.06889" lon="7.66858">
        <ele>379.86</ele>
        <time>2014-08-29T11:33:47Z</time>
      </trkpt>
      <trkpt lat="48.06878" lon="7.66873">
        <ele>377.45</ele>
        <time>2014-08-29T11:34:02Z</time>
      </trkpt>
      <trkpt lat="48.06878" lon="7.66873">
        <ele>376.97</ele>
        <time>2014-08-29T11:34:03Z</time>
      </trkpt>
      <trkpt lat="48.0687" lon="7.66888">
        <ele>376.01</ele>
        <time>2014-08-29T11:34:17Z</time>
      </trkpt>
      <trkpt lat="48.06861" lon="7.66906">
        <ele>374.57</ele>
        <time>2014-08-29T11:34:30Z</time>
      </trkpt>
      <trkpt lat="48.06857" lon="7.6691">
        <ele>373.61</ele>
        <time>2014-08-29T11:34:35Z</time>
      </trkpt>
      <trkpt lat="48.06845" lon="7.66925">
        <ele>372.65</ele>
        <time>2014-08-29T11:34:49Z</time>
      </trkpt>
      <trkpt lat="48.06841" lon="7.66944">
        <ele>371.69</ele>
        <time>2014-08-29T11:35:05Z</time>
      </trkpt>
      <trkpt lat="48.06844" lon="7.66943">
        <ele>371.69</ele>
        <time>2014-08-29T11:35:23Z</time>
      </trkpt>
      <trkpt lat="48.06837" lon="7.66943">
        <ele>371.21</ele>
        <time>2014-08-29T11:35:55Z</time>
      </trkpt>
      <trkpt lat="48.06824" lon="7.66948">
        <ele>370.24</ele>
        <time>2014-08-29T11:36:09Z</time>
      </trkpt>
      <trkpt lat="48.06823" lon="7.66949">
        <ele>369.76</ele>
        <time>2014-08-29T11:36:10Z</time>
      </trkpt>
      <trkpt lat="48.06802" lon="7.6695">
        <ele>368.32</ele>
        <time>2014-08-29T11:36:25Z</time>
      </trkpt>
      <trkpt lat="48.06801" lon="7.66949">
        <ele>368.32</ele>
        <time>2014-08-29T11:36:26Z</time>
      </trkpt>
      <trkpt lat="48.0679" lon="7.66949">
        <ele>366.88</ele>
        <time>2014-08-29T11:36:35Z</time>
      </trkpt>
      <trkpt lat="48.0678" lon="7.6695">
        <ele>365.92</ele>
        <time>2014-08-29T11:36:43Z</time>
      </trkpt>
      <trkpt lat="48.06763" lon="7.66955">
        <ele>363.52</ele>
        <time>2014-08-29T11:36:57Z</time>
      </trkpt>
      <trkpt lat="48.06749" lon="7.66965">
        <ele>363.04</ele>
        <time>2014-08-29T11:37:10Z</time>
      </trkpt>
      <trkpt lat="48.06746" lon="7.66969">
        <ele>362.55</ele>
        <time>2014-08-29T11:37:22Z</time>
      </trkpt>
      <trkpt lat="48.0674" lon="7.66993">
        <ele>361.11</ele>
        <time>2014-08-29T11:37:38Z</time>
      </trkpt>
      <trkpt lat="48.06737" lon="7.67008">
        <ele>359.19</ele>
        <time>2014-08-29T11:37:52Z</time>
      </trkpt>
      <trkpt lat="48.06744" lon="7.67024">
        <ele>357.27</ele>
        <time>2014-08-29T11:38:06Z</time>
      </trkpt>
      <trkpt lat="48.06739" lon="7.67031">
        <ele>355.34</ele>
        <time>2014-08-29T11:38:17Z</time>
      </trkpt>
      <trkpt lat="48.06739" lon="7.67036">
        <ele>354.38</ele>
        <time>2014-08-29T11:38:19Z</time>
      </trkpt>
      <trkpt lat="48.06739" lon="7.67033">
        <ele>354.86</ele>
        <time>2014-08-29T11:38:31Z</time>
      </trkpt>
      <trkpt lat="48.06734" lon="7.67033">
        <ele>353.9</ele>
        <time>2014-08-29T11:38:43Z</time>
      </trkpt>
      <trkpt lat="48.0672" lon="7.67035">
        <ele>352.46</ele>
        <time>2014-08-29T11:38:56Z</time>
      </trkpt>
      <trkpt lat="48.06696" lon="7.67033">
        <ele>352.46</ele>
        <time>2014-08-29T11:39:12Z</time>
      </trkpt>
      <trkpt lat="48.06689" lon="7.67034">
        <ele>352.46</ele>
        <time>2014-08-29T11:39:24Z</time>
      </trkpt>
      <trkpt lat="48.06699" lon="7.67029">
        <ele>351.5</ele>
        <time>2014-08-29T11:39:38Z</time>
      </trkpt>
      <trkpt lat="48.06717" lon="7.67031">
        <ele>351.98</ele>
        <time>2014-08-29T11:39:54Z</time>
      </trkpt>
      <trkpt lat="48.06735" lon="7.67035">
        <ele>353.9</ele>
        <time>2014-08-29T11:40:09Z</time>
      </trkpt>
      <trkpt lat="48.06744" lon="7.67032">
        <ele>354.86</ele>
        <time>2014-08-29T11:40:25Z</time>
      </trkpt>
      <trkpt lat="48.06749" lon="7.6703">
        <ele>356.31</ele>
        <time>2014-08-29T11:40:32Z</time>
      </trkpt>
      <trkpt lat="48.06755" lon="7.67027">
        <ele>357.75</ele>
        <time>2014-08-29T11:40:44Z</time>
      </trkpt>
      <trkpt lat="48.06762" lon="7.67024">
        <ele>357.75</ele>
        <time>2014-08-29T11:40:56Z</time>
      </trkpt>
      <trkpt lat="48.06765" lon="7.67024">
        <ele>356.79</ele>
        <time>2014-08-29T11:41:13Z</time>
      </trkpt>
      <trkpt lat="48.06765" lon="7.67025">
        <ele>356.31</ele>
        <time>2014-08-29T11:41:32Z</time>
      </trkpt>
      <trkpt lat="48.06772" lon="7.67032">
        <ele>354.38</ele>
        <time>2014-08-29T11:41:44Z</time>
      </trkpt>
      <trkpt lat="48.06785" lon="7.67036">
        <ele>352.94</ele>
        <time>2014-08-29T11:41:59Z</time>
      </trkpt>
      <trkpt lat="48.06788" lon="7.67039">
        <ele>352.46</ele>
        <time>2014-08-29T11:42:04Z</time>
      </trkpt>
      <trkpt lat="48.06794" lon="7.67049">
        <ele>350.54</ele>
        <time>2014-08-29T11:42:18Z</time>
      </trkpt>
      <trkpt lat="48.06802" lon="7.67063">
        <ele>348.13</ele>
        <time>2014-08-29T11:42:29Z</time>
      </trkpt>
      <trkpt lat="48.06805" lon="7.67068">
        <ele>347.65</ele>
        <time>2014-08-29T11:42:34Z</time>
      </trkpt>
      <trkpt lat="48.06806" lon="7.6707">
        <ele>348.13</ele>
        <time>2014-08-29T11:42:38Z</time>
      </trkpt>
      <trkpt lat="48.06795" lon="7.67071">
        <ele>346.21</ele>
        <time>2014-08-29T11:42:46Z</time>
      </trkpt>
      <trkpt lat="48.06789" lon="7.67081">
        <ele>343.81</ele>
        <time>2014-08-29T11:43:00Z</time>
      </trkpt>
      <trkpt lat="48.06789" lon="7.67081">
        <ele>343.81</ele>
        <time>2014-08-29T11:43:01Z</time>
      </trkpt>
      <trkpt lat="48.06785" lon="7.67082">
        <ele>339.96</ele>
        <time>2014-08-29T11:43:11Z</time>
      </trkpt>
      <trkpt lat="48.06784" lon="7.67084">
        <ele>339</ele>
        <time>2014-08-29T11:43:13Z</time>
      </trkpt>
      <trkpt lat="48.0678" lon="7.67093">
        <ele>338.04</ele>
        <time>2014-08-29T11:43:18Z</time>
      </trkpt>
      <trkpt lat="48.06779" lon="7.67092">
        <ele>336.6</ele>
        <time>2014-08-29T11:43:23Z</time>
      </trkpt>
      <trkpt lat="48.06765" lon="7.67111">
        <ele>335.16</ele>
        <time>2014-08-29T11:43:35Z</time>
      </trkpt>
      <trkpt lat="48.06763" lon="7.67111">
        <ele>335.16</ele>
        <time>2014-08-29T11:43:37Z</time>
      </trkpt>
      <trkpt lat="48.06756" lon="7.67109">
        <ele>335.16</ele>
        <time>2014-08-29T11:43:44Z</time>
      </trkpt>
      <trkpt lat="48.06745" lon="7.67105">
        <ele>336.12</ele>
        <time>2014-08-29T11:43:59Z</time>
      </trkpt>
      <trkpt lat="48.06736" lon="7.67103">
        <ele>334.68</ele>
        <time>2014-08-29T11:44:12Z</time>
      </trkpt>
      <trkpt lat="48.06729" lon="7.67108">
        <ele>334.2</ele>
        <time>2014-08-29T11:44:26Z</time>
      </trkpt>
      <trkpt lat="48.06726" lon="7.67109">
        <ele>332.75</ele>
        <time>2014-08-29T11:44:55Z</time>
      </trkpt>
      <trkpt lat="48.0672" lon="7.67109">
        <ele>332.27</ele>
        <time>2014-08-29T11:45:06Z</time>
      </trkpt>
      <trkpt lat="48.06719" lon="7.6711">
        <ele>332.27</ele>
        <time>2014-08-29T11:45:08Z</time>
      </trkpt>
      <trkpt lat="48.06715" lon="7.67112">
        <ele>330.83</ele>
        <time>2014-08-29T11:45:11Z</time>
      </trkpt>
      <trkpt lat="48.06706" lon="7.67121">
        <ele>329.39</ele>
        <time>2014-08-29T11:45:22Z</time>
      </trkpt>
      <trkpt lat="48.06701" lon="7.67133">
        <ele>326.02</ele>
        <time>2014-08-29T11:45:37Z</time>
      </trkpt>
      <trkpt lat="48.06699" lon="7.67149">
        <ele>322.66</ele>
        <time>2014-08-29T11:45:50Z</time>
      </trkpt>
      <trkpt lat="48.06699" lon="7.67159">
        <ele>320.74</ele>
        <time>2014-08-29T11:46:03Z</time>
      </trkpt>
      <trkpt lat="48.06697" lon="7.67174">
        <ele>318.33</ele>
        <time>2014-08-29T11:46:15Z</time>
      </trkpt>
      <trkpt lat="48.06693" lon="7.67177">
        <ele>318.33</ele>
        <time>2014-08-29T11:46:27Z</time>
      </trkpt>
      <trkpt lat="48.06693" lon="7.67177">
        <ele>317.85</ele>
        <time>2014-08-29T11:46:42Z</time>
      </trkpt>
      <trkpt lat="48.06701" lon="7.6718">
        <ele>317.37</ele>
        <time>2014-08-29T11:46:57Z</time>
      </trkpt>
      <trkpt lat="48.067" lon="7.67177">
        <ele>317.85</ele>
        <time>2014-08-29T11:47:12Z</time>
      </trkpt>
      <trkpt lat="48.06699" lon="7.67177">
        <ele>318.33</ele>
        <time>2014-08-29T11:47:27Z</time>
      </trkpt>
      <trkpt lat="48.067" lon="7.67176">
        <ele>318.33</ele>
        <time>2014-08-29T11:47:34Z</time>
      </trkpt>
      <trkpt lat="48.06699" lon="7.67165">
        <ele>318.81</ele>
        <time>2014-08-29T11:47:43Z</time>
      </trkpt>
      <trkpt lat="48.06698" lon="7.67151">
        <ele>321.7</ele>
        <time>2014-08-29T11:47:57Z</time>
      </trkpt>
      <trkpt lat="48.067" lon="7.67145">
        <ele>322.66</ele>
        <time>2014-08-29T11:48:05Z</time>
      </trkpt>
      <trkpt lat="48.06706" lon="7.67132">
        <ele>325.06</ele>
        <time>2014-08-29T11:48:19Z</time>
      </trkpt>
      <trkpt lat="48.06707" lon="7.67129">
        <ele>326.99</ele>
        <time>2014-08-29T11:48:33Z</time>
      </trkpt>
      <trkpt lat="48.06711" lon="7.67121">
        <ele>328.43</ele>
        <time>2014-08-29T11:48:51Z</time>
      </trkpt>
      <trkpt lat="48.06713" lon="7.67119">
        <ele>329.39</ele>
        <time>2014-08-29T11:48:57Z</time>
      </trkpt>
      <trkpt lat="48.0672" lon="7.67115">
        <ele>330.83</ele>
        <time>2014-08-29T11:49:08Z</time>
      </trkpt>
      <trkpt lat="48.06727" lon="7.67113">
        <ele>332.27</ele>
        <time>2014-08-29T11:49:19Z</time>
      </trkpt>
      <trkpt lat="48.06737" lon="7.67109">
        <ele>334.2</ele>
        <time>2014-08-29T11:49:33Z</time>
      </trkpt>
      <trkpt lat="48.06748" lon="7.67108">
        <ele>334.68</ele>
        <time>2014-08-29T11:49:45Z</time>
      </trkpt>
      <trkpt lat="48.06761" lon="7.67112">
        <ele>333.23</ele>
        <time>2014-08-29T11:49:59Z</time>
      </trkpt>
      <trkpt lat="48.06766" lon="7.67114">
        <ele>332.75</ele>
        <time>2014-08-29T11:50:03Z</time>
      </trkpt>
      <trkpt lat="48.06778" lon="7.67117">
        <ele>332.75</ele>
        <time>2014-08-29T11:50:13Z</time>
      </trkpt>
      <trkpt lat="48.06788" lon="7.67132">
        <ele>330.83</ele>
        <time>2014-08-29T11:50:26Z</time>
      </trkpt>
      <trkpt lat="48.06792" lon="7.67145">
        <ele>329.87</ele>
        <time>2014-08-29T11:50:36Z</time>
      </trkpt>
      <trkpt lat="48.068" lon="7.67159">
        <ele>328.91</ele>
        <time>2014-08-29T11:50:47Z</time>
      </trkpt>
      <trkpt lat="48.06809" lon="7.67182">
        <ele>327.95</ele>
        <time>2014-08-29T11:51:00Z</time>
      </trkpt>
      <trkpt lat="48.06809" lon="7.67186">
        <ele>327.47</ele>
        <time>2014-08-29T11:51:03Z</time>
      </trkpt>
      <trkpt lat="48.06808" lon="7.67189">
        <ele>327.47</ele>
        <time>2014-08-29T11:51:05Z</time>
      </trkpt>
      <trkpt lat="48.06809" lon="7.67211">
        <ele>327.47</ele>
        <time>2014-08-29T11:51:17Z</time>
      </trkpt>
      <trkpt lat="48.06812" lon="7.67232">
        <ele>326.99</ele>
        <time>2014-08-29T11:51:30Z</time>
      </trkpt>
      <trkpt lat="48.06812" lon="7.67251">
        <ele>327.95</ele>
        <time>2014-08-29T11:51:40Z</time>
      </trkpt>
      <trkpt lat="48.06811" lon="7.67257">
        <ele>328.43</ele>
        <time>2014-08-29T11:51:43Z</time>
      </trkpt>
      <trkpt lat="48.06811" lon="7.67262">
        <ele>328.91</ele>
        <time>2014-08-29T11:51:45Z</time>
      </trkpt>
      <trkpt lat="48.0681" lon="7.67266">
        <ele>328.91</ele>
        <time>2014-08-29T11:51:48Z</time>
      </trkpt>
      <trkpt lat="48.06797" lon="7.67268">
        <ele>330.35</ele>
        <time>2014-08-29T11:52:01Z</time>
      </trkpt>
      <trkpt lat="48.06795" lon="7.67267">
        <ele>329.39</ele>
        <time>2014-08-29T11:52:04Z</time>
      </trkpt>
      <trkpt lat="48.06783" lon="7.6726">
        <ele>329.39</ele>
        <time>2014-08-29T11:52:14Z</time>
      </trkpt>
      <trkpt lat="48.06773" lon="7.67258">
        <ele>328.43</ele>
        <time>2014-08-29T11:52:23Z</time>
      </trkpt>
      <trkpt lat="48.06761" lon="7.67261">
        <ele>329.39</ele>
        <time>2014-08-29T11:52:34Z</time>
      </trkpt>
      <trkpt lat="48.06758" lon="7.67263">
        <ele>329.39</ele>
        <time>2014-08-29T11:52:36Z</time>
      </trkpt>
      <trkpt lat="48.06757" lon="7.67266">
        <ele>329.87</ele>
        <time>2014-08-29T11:52:38Z</time>
      </trkpt>
      <trkpt lat="48.06752" lon="7.67287">
        <ele>331.31</ele>
        <time>2014-08-29T11:52:50Z</time>
      </trkpt>
      <trkpt lat="48.06752" lon="7.67288">
        <ele>331.31</ele>
        <time>2014-08-29T11:52:51Z</time>
      </trkpt>
      <trkpt lat="48.06754" lon="7.67296">
        <ele>331.31</ele>
        <time>2014-08-29T11:52:57Z</time>
      </trkpt>
      <trkpt lat="48.06759" lon="7.67307">
        <ele>331.31</ele>
        <time>2014-08-29T11:53:04Z</time>
      </trkpt>
      <trkpt lat="48.06772" lon="7.67307">
        <ele>332.27</ele>
        <time>2014-08-29T11:53:16Z</time>
      </trkpt>
      <trkpt lat="48.06786" lon="7.67299">
        <ele>332.27</ele>
        <time>2014-08-29T11:53:28Z</time>
      </trkpt>
      <trkpt lat="48.06796" lon="7.67299">
        <ele>332.75</ele>
        <time>2014-08-29T11:53:39Z</time>
      </trkpt>
      <trkpt lat="48.068" lon="7.67298">
        <ele>332.75</ele>
        <time>2014-08-29T11:53:43Z</time>
      </trkpt>
      <trkpt lat="48.06811" lon="7.67297">
        <ele>332.75</ele>
        <time>2014-08-29T11:53:53Z</time>
      </trkpt>
      <trkpt lat="48.0682" lon="7.67306">
        <ele>333.71</ele>
        <time>2014-08-29T11:54:00Z</time>
      </trkpt>
      <trkpt lat="48.06828" lon="7.67308">
        <ele>333.71</ele>
        <time>2014-08-29T11:54:05Z</time>
      </trkpt>
      <trkpt lat="48.06838" lon="7.67315">
        <ele>334.2</ele>
        <time>2014-08-29T11:54:16Z</time>
      </trkpt>
      <trkpt lat="48.0685" lon="7.6732">
        <ele>333.23</ele>
        <time>2014-08-29T11:54:26Z</time>
      </trkpt>
      <trkpt lat="48.06854" lon="7.67324">
        <ele>333.71</ele>
        <time>2014-08-29T11:54:36Z</time>
      </trkpt>
      <trkpt lat="48.06854" lon="7.67329">
        <ele>333.23</ele>
        <time>2014-08-29T11:54:39Z</time>
      </trkpt>
      <trkpt lat="48.06855" lon="7.67341">
        <ele>331.79</ele>
        <time>2014-08-29T11:54:45Z</time>
      </trkpt>
      <trkpt lat="48.0686" lon="7.67358">
        <ele>329.39</ele>
        <time>2014-08-29T11:54:56Z</time>
      </trkpt>
      <trkpt lat="48.06863" lon="7.67375">
        <ele>326.99</ele>
        <time>2014-08-29T11:55:08Z</time>
      </trkpt>
      <trkpt lat="48.06867" lon="7.67381">
        <ele>325.54</ele>
        <time>2014-08-29T11:55:14Z</time>
      </trkpt>
      <trkpt lat="48.06874" lon="7.67393">
        <ele>323.62</ele>
        <time>2014-08-29T11:55:25Z</time>
      </trkpt>
      <trkpt lat="48.06886" lon="7.67388">
        <ele>321.22</ele>
        <time>2014-08-29T11:55:35Z</time>
      </trkpt>
      <trkpt lat="48.06893" lon="7.67384">
        <ele>318.81</ele>
        <time>2014-08-29T11:55:42Z</time>
      </trkpt>
      <trkpt lat="48.06898" lon="7.67379">
        <ele>318.33</ele>
        <time>2014-08-29T11:55:46Z</time>
      </trkpt>
      <trkpt lat="48.06907" lon="7.67379">
        <ele>314.97</ele>
        <time>2014-08-29T11:56:02Z</time>
      </trkpt>
      <trkpt lat="48.06907" lon="7.67379">
        <ele>314.01</ele>
        <time>2014-08-29T11:56:05Z</time>
      </trkpt>
      <trkpt lat="48.06912" lon="7.67387">
        <ele>312.57</ele>
        <time>2014-08-29T11:56:15Z</time>
      </trkpt>
      <trkpt lat="48.06913" lon="7.67391">
        <ele>312.09</ele>
        <time>2014-08-29T11:56:21Z</time>
      </trkpt>
      <trkpt lat="48.06912" lon="7.67398">
        <ele>311.12</ele>
        <time>2014-08-29T11:56:27Z</time>
      </trkpt>
      <trkpt lat="48.06911" lon="7.67422">
        <ele>307.76</ele>
        <time>2014-08-29T11:56:41Z</time>
      </trkpt>
      <trkpt lat="48.06911" lon="7.67424">
        <ele>307.76</ele>
        <time>2014-08-29T11:56:42Z</time>
      </trkpt>
      <trkpt lat="48.06912" lon="7.67429">
        <ele>305.84</ele>
        <time>2014-08-29T11:56:51Z</time>
      </trkpt>
      <trkpt lat="48.06907" lon="7.67436">
        <ele>304.88</ele>
        <time>2014-08-29T11:56:59Z</time>
      </trkpt>
      <trkpt lat="48.06904" lon="7.6744">
        <ele>303.43</ele>
        <time>2014-08-29T11:57:04Z</time>
      </trkpt>
      <trkpt lat="48.06897" lon="7.67451">
        <ele>301.03</ele>
        <time>2014-08-29T11:57:11Z</time>
      </trkpt>
      <trkpt lat="48.06896" lon="7.67453">
        <ele>300.55</ele>
        <time>2014-08-29T11:57:14Z</time>
      </trkpt>
      <trkpt lat="48.06894" lon="7.67463">
        <ele>299.59</ele>
        <time>2014-08-29T11:57:27Z</time>
      </trkpt>
      <trkpt lat="48.06889" lon="7.67471">
        <ele>299.59</ele>
        <time>2014-08-29T11:57:46Z</time>
      </trkpt>
      <trkpt lat="48.06873" lon="7.67469">
        <ele>298.63</ele>
        <time>2014-08-29T11:58:00Z</time>
      </trkpt>
      <trkpt lat="48.06863" lon="7.67463">
        <ele>298.63</ele>
        <time>2014-08-29T11:58:06Z</time>
      </trkpt>
      <trkpt lat="48.06848" lon="7.67462">
        <ele>297.18</ele>
        <time>2014-08-29T11:58:21Z</time>
      </trkpt>
      <trkpt lat="48.06831" lon="7.67467">
        <ele>296.7</ele>
        <time>2014-08-29T11:58:34Z</time>
      </trkpt>
      <trkpt lat="48.06823" lon="7.67471">
        <ele>296.7</ele>
        <time>2014-08-29T11:58:43Z</time>
      </trkpt>
      <trkpt lat="48.06808" lon="7.67476">
        <ele>296.22</ele>
        <time>2014-08-29T11:58:58Z</time>
      </trkpt>
      <trkpt lat="48.06791" lon="7.67485">
        <ele>294.78</ele>
        <time>2014-08-29T11:59:16Z</time>
      </trkpt>
      <trkpt lat="48.06788" lon="7.67498">
        <ele>293.82</ele>
        <time>2014-08-29T11:59:33Z</time>
      </trkpt>
      <trkpt lat="48.06785" lon="7.67509">
        <ele>293.82</ele>
        <time>2014-08-29T11:59:52Z</time>
      </trkpt>
      <trkpt lat="48.06785" lon="7.67509">
        <ele>293.34</ele>
        <time>2014-08-29T12:00:14Z</time>
      </trkpt>
      <trkpt lat="48.06785" lon="7.6751">
        <ele>293.34</ele>
        <time>2014-08-29T12:00:55Z</time>
      </trkpt>
      <trkpt lat="48.06786" lon="7.67511">
        <ele>292.38</ele>
        <time>2014-08-29T12:01:00Z</time>
      </trkpt>
      <trkpt lat="48.06783" lon="7.67514">
        <ele>292.86</ele>
        <time>2014-08-29T12:01:10Z</time>
      </trkpt>
      <trkpt lat="48.06776" lon="7.67525">
        <ele>291.9</ele>
        <time>2014-08-29T12:01:21Z</time>
      </trkpt>
      <trkpt lat="48.06769" lon="7.67534">
        <ele>290.94</ele>
        <time>2014-08-29T12:01:32Z</time>
      </trkpt>
      <trkpt lat="48.06765" lon="7.67542">
        <ele>290.94</ele>
        <time>2014-08-29T12:01:38Z</time>
      </trkpt>
      <trkpt lat="48.06764" lon="7.67551">
        <ele>291.9</ele>
        <time>2014-08-29T12:01:49Z</time>
      </trkpt>
      <trkpt lat="48.06763" lon="7.67559">
        <ele>291.9</ele>
        <time>2014-08-29T12:02:03Z</time>
      </trkpt>
      <trkpt lat="48.0676" lon="7.67572">
        <ele>292.86</ele>
        <time>2014-08-29T12:02:13Z</time>
      </trkpt>
      <trkpt lat="48.06754" lon="7.67576">
        <ele>293.82</ele>
        <time>2014-08-29T12:02:25Z</time>
      </trkpt>
      <trkpt lat="48.06753" lon="7.67575">
        <ele>293.34</ele>
        <time>2014-08-29T12:02:27Z</time>
      </trkpt>
      <trkpt lat="48.06749" lon="7.67568">
        <ele>293.82</ele>
        <time>2014-08-29T12:02:39Z</time>
      </trkpt>
    </trkseg>
  </trk>
</gpx>